     2              OBSERVATION DATA    GPS                 RINEX VERSION / TYPE
ASRINEXO V2.9.7 UX USGS/MENLO_PARK 28-JAN- 0 14:55          PGM / RUN BY / DATE
                                                            COMMENT
Original Marker Name: meek Meeks_1939_USC&GS                COMMENT
Campaign Name: Hector mine                                  COMMENT
4-Character Station Name: MEEK                              COMMENT
6-Character Antenna Code: DMRCHT                            COMMENT
Vertical Measurement Point: BCR                             COMMENT
Vertical Offset to Rinex Ref. Point: 0.0348                 COMMENT
Radial Measurement Point: ECF                               COMMENT
Radial Offset to Rinex Ref. Point: 0.1897                   COMMENT
Antenna Height from Field Measurement: 0.6740 m             COMMENT
Additional Antenna Identification Info.:                    COMMENT
Turborogue and Ashtech Choke Ring                           COMMENT
Original XYZ: -2350842.0110 -4703301.4016 3599591.6746      COMMENT
New XYZ position is based on association with SCEC monument COMMENT
E1F2G4K5+0011. Position of that monument is believed to be  COMMENT
valid to within 1 m horizontally; vertical accuracy         COMMENT
should be no worse than 3-times this value.                 COMMENT
                                                            COMMENT
Revised Rinex header created by UCSD GPS archive for        COMMENT
GSAC on 04-Apr-2000 (2000:095) 21:44:20 GMT                 COMMENT
For assistance contact dagnew@ucsd.edu or hjohnson@ucsd.edu COMMENT
                                                            COMMENT
MEEKS 1939                                                  MARKER NAME
JMS US GEOLOGICAL SURVEY                                    OBSERVER / AGENCY
360 ASHTECH Z-XII3 CC00                                     REC # / TYPE / VERS
341 DORNE-MARGOL. TYPE T                                    ANT # / TYPE
 -2365050.0707 -4719310.0429  3571188.1706                  APPROX POSITION XYZ
        0.6120        0.0000        0.0000                  ANTENNA: DELTA H/E/N
     1     1     0                                          WAVELENGTH FACT L1/2
     5    C1    L1    L2    P1    P2                        # / TYPES OF OBSERV
    30                                                      INTERVAL
  2000     1    22    17    55    0.000000                  TIME OF FIRST OBS
  2000     1    22    23    58   30.000000                  TIME OF LAST OBS
                                                            END OF HEADER
 00  1 22 17 55  0.0000000  0  9 19 02 18 27 03 01 31 10 13
  20792972.340      -60858.863 9    -43245.83648  20792972.005    20792981.0114
  23275058.348     -252002.755 8   -181117.85346  23275057.843    23275069.5554
  20751670.549      122119.564 9     88462.30348  20751670.318    20751678.7894
  21698525.430     -178188.381 9   -128612.55047  21698525.084    21698534.1204
  23891448.605      110234.828 8     75832.70245  23891448.344    23891462.9264
  23200813.500      234652.991 8    170092.87946  23200812.691    23200825.4634
  21829352.073      -45276.590 8    -32730.54047  21829351.854    21829362.0354
  24391782.508      -94685.60544                  24391782.051    24391794.3614
  21917752.614                                    21917755.763    21917753.7764
 00  1 22 17 55 30.0000000  0  9 19 02 18 27 03 01 31 10 13
  20789098.980      -81214.485 9    -59107.42948  20789098.506    20789107.4214
  23259758.301     -332410.291 8   -243772.99846  23259756.756    23259768.4564
  20759916.519      165452.491 9    122228.14848  20759916.309    20759924.8124
  21686829.042     -239652.655 9   -176506.81847  21686828.851    21686837.9124
  23900514.371      157875.282 8    112954.94345  23900514.198    23900528.4554
  23216438.218      316764.082 8    234075.36746  23216438.044    23216450.8444
  21826586.396      -59812.730 8    -44057.42447  21826585.769    21826595.9514
  24383929.309     -176631.02217   -126842.88645  24383927.878    24383940.6134
  21902377.591      -49797.66854                  21902389.601    21902398.0234
 00  1 22 17 56  0.0000000  0 10 19 02 18 16 27 03 01 31 10 13
  20608355.384    -1031028.815 9   -799222.56648  20608354.933    20608363.8264
  23067594.544    -1342234.754 8  -1030649.12146  23067593.487    23067605.2814
  20591351.561     -720362.744 9   -568017.57448  20591351.314    20591359.8664
  24668574.667     -528066.09044                  24668575.391    24668591.3974
  21498245.603    -1230665.737 9   -948724.83447  21498245.324    21498254.4414
  23732762.928     -723667.464 8   -573961.67345  23732762.121    23732776.4014
  23055209.802     -530498.349 8   -426129.29346  23055209.451    23055222.3014
  21647033.156    -1003371.459 8   -779298.02447  21647032.561    21647042.7604
  24199267.006    -1147037.022 7   -883003.48745  24199265.647    24199279.5624
  21710161.259    -1339889.12219   -836891.03447  21710161.218    21710169.4674
 00  1 22 17 56 30.0000000  0 10 19 02 18 16 27 03 01 31 10 13
  20606935.065    -1038492.512 9   -805038.49448  20606934.686    20606943.5964
  23054761.988    -1409668.909 8  -1083195.14446  23054761.231    23054772.9894
  20602168.749     -663518.108 9   -523723.11148  20602168.525    20602177.1444
  24687592.773     -551176.31617   -450196.22545  24687591.256    24687609.3434
  21488968.634    -1279416.512 9   -986712.47647  21488968.377    21488977.5624
  23744385.197     -662590.502 8   -526369.43345  23744384.685    23744399.0684
  23073318.074     -435339.285 8   -351979.56346  23073317.705    23073330.6434
  21646884.844    -1004151.076 8   -779905.51747  21646884.284    21646894.4834
  24193991.223    -1174760.546 7   -904606.33145  24193989.930    24194004.2224
  21697300.653    -1407471.763 9   -889552.81947  21697300.801    21697309.1094
 00  1 22 17 57  0.0000000  0 10 19 02 18 16 27 03 01 31 10 13
  20605547.447    -1045784.410 9   -810720.55048  20605547.117    20605556.0504
  23041970.951    -1476886.239 8  -1135572.21046  23041970.196    23041981.9844
  20613077.221     -606193.902 9   -479054.96248  20613076.984    20613085.6564
  24706590.883     -451340.443 7   -372402.58345  24706590.034    24706608.3584
  21479708.491    -1328078.828 9  -1024631.19147  21479708.227    21479717.4834
  23756093.802     -601061.357 8   -478424.85545  23756093.419    23756107.9134
  23091469.893     -339951.261 8   -277651.41446  23091469.558    23091482.5564
  21646850.487    -1004331.312 8   -780045.97647  21646849.948    21646860.1824
  24188811.316    -1201980.526 7   -925816.80445  24188810.065    24188824.5584
  21684506.797    -1474703.909 9   -941941.49647  21684506.958    21684515.2654
 00  1 22 17 57 30.0000000  0 10 19 02 18 16 27 03 01 31 10 13
  20604195.008    -1052891.742 9   -816258.79048  20604194.703    20604203.6334
  23029224.448    -1543869.231 8  -1187766.68446  23029223.711    23029235.5704
  20624076.448     -548392.796 9   -434015.21148  20624076.219    20624084.8824
  24725569.308     -351607.622 7   -294689.24445  24725569.154    24725587.1274
  21470468.746    -1376634.305 9  -1062466.65447  21470468.484    21470477.7634
  23767891.363     -539065.549 8   -430116.65645  23767891.001    23767905.4594
  23109662.350     -244349.194 8   -203156.48646  23109662.054    23109675.1234
  21646930.024    -1003913.065 8   -779720.08747  21646929.542    21646939.7704
  24183728.533    -1228690.987 7   -946630.23445  24183727.533    24183741.7194
  21671780.302    -1541582.134 9   -994054.39547  21671780.498    21671788.7634
 00  1 22 17 58  0.0000000  0 10 19 02 18 16 27 03 01 31 10 13
  20602880.229    -1059801.141 9   -821642.80348  20602879.953    20602888.9034
  23016524.066    -1610609.626 8  -1239772.11346  23016523.382    23016535.2904
  20635166.184     -490116.408 9   -388605.11148  20635165.972    20635174.5924
  24744526.979     -251984.598 7   -217061.47344  24744526.101    24744544.9124
  21461249.849    -1425079.911 9  -1100216.49447  21461249.576    21461258.9424
  23779775.534     -476613.526 7   -381452.97345  23779775.244    23779789.7904
  23127894.706     -148538.158 8   -128498.73846  23127894.431    23127907.5064
  21647123.251    -1002898.127 8   -778929.25447  21647122.789    21647133.0004
  24178742.784    -1254892.070 7   -967046.76345  24178741.905    24178756.0394
  21659118.418    -1608120.989 9  -1045902.84647  21659118.604    21659126.9024
 00  1 22 17 58 30.0000000  0 10 19 02 18 16 27 03 01 31 10 13
  20601606.794    -1066493.164 9   -826857.42848  20601606.525    20601615.5244
  23003872.675    -1677092.707 8  -1291577.05046  23003872.021    23003883.9604
  20646352.509     -431332.348 9   -342799.41448  20646352.318    20646360.9394
  24763465.145     -152465.007 7   -139514.26344  24763464.599    24763482.7254
  21452053.455    -1473407.391 9  -1137874.30247  21452053.202    21452062.5774
  23791744.671     -413715.015 8   -332441.37245  23791744.448    23791759.2054
  23146169.928      -52502.077 8    -53665.62246  23146169.660    23146182.7974
  21647433.938    -1001265.721 8   -777657.27747  21647433.464    21647443.6924
  24173856.086    -1280572.425 7   -987057.54245  24173855.258    24173869.4134
  21646523.375    -1674308.518 9  -1097477.54247  21646523.554    21646531.8724
 00  1 22 17 59  0.0000000  0  9 19 02 18 27 03 01 31 10 13
  20600381.492    -1072932.116 9   -831874.87248  20600381.253    20600390.3214
  22991278.125    -1743277.732 8  -1343149.75946  22991277.469    22991289.3534
  20657643.763     -371996.708 9   -296563.93748  20657643.581    20657652.2414
  21442885.402    -1521586.170 9  -1175416.25247  21442885.139    21442894.5544
  23803803.027     -350349.154 8   -283065.62445  23803802.820    23803817.6684
  23164495.908       43800.781 8     21375.36246  23164495.633    23164508.8624
  21647869.096     -998978.975 8   -775875.44947  21647868.632    21647878.8634
  24169073.902    -1305703.550 7  -1006640.36645  24169073.069    24169087.2374
  21634002.089    -1740108.015 9  -1148749.88847  21634002.292    21634010.6424
 00  1 22 17 59 30.0000000  0  9 19 02 18 27 03 01 31 10 13
  20599200.741    -1079137.516 9   -836710.36148  20599200.510    20599209.5904
  22978734.754    -1809193.419 8  -1394512.67846  22978734.084    22978745.9524
  20669035.383     -312133.607 9   -249917.49148  20669035.204    20669043.9064
  21433740.497    -1569643.001 9  -1212863.22747  21433740.260    21433749.6764
  23815943.411     -286552.427 8   -233354.25645  23815943.245    23815958.0604
  23182871.229      140363.136 7     96618.45546  23182870.962    23182884.3744
  21648424.707     -996059.407 8   -773600.57947  21648424.248    21648434.4964
  24164389.616    -1330319.616 7  -1025821.93745  24164388.832    24164403.0724
  21621551.907    -1805534.083 9  -1199731.31047  21621552.121    21621560.4894
 00  1 22 18  0  0.0000000  0  9 19 02 18 27 03 01 31 10 13
  20598062.303    -1085120.433 9   -841372.45348  20598062.088    20598071.1514
  22966239.791    -1874854.384 8  -1445677.05546  22966239.134    22966251.1014
  20680527.018     -251745.250 9   -202861.73648  20680526.829    20680535.5584
  21424618.680    -1617578.942 9  -1250215.96947  21424618.425    21424627.8514
  23828163.785     -222334.457 7   -183314.58445  23828163.615    23828178.6634
  23201296.226      237186.410 7    172064.91645  23201295.967    23201309.5744
  21649101.184     -992504.542 8   -770830.64947  21649100.739    21649111.0174
  24159803.476    -1354420.710 7  -1044602.21345  24159802.686    24159816.9134
  21609173.890    -1870581.181 9  -1250417.39047  21609174.100    21609182.5154
 00  1 22 18  0 30.0000000  0  9 19 02 18 27 03 01 31 10 13
  20596966.470    -1090879.430 9   -845860.03748  20596966.257    20596975.3344
  22953792.341    -1940265.820 8  -1496646.95946  22953791.751    22953803.7064
  20692115.191     -190849.444 9   -155410.51648  20692115.007    20692123.7864
  21415520.390    -1665391.085 9  -1287472.21947  21415520.154    21415529.5444
  23840468.563     -157673.633 8   -132929.79745  23840468.456    23840483.5404
  23219772.654      334279.445 8    247721.58645  23219772.225    23219786.0184
  21649898.879     -988312.873 8   -767564.46547  21649898.457    21649908.7574
  24155316.741    -1377998.859 7  -1062974.87445  24155316.002    24155330.1724
  21596871.095    -1935232.736 9  -1300795.22147  21596871.297    21596879.7964
 00  1 22 18  1  0.0000000  0  9 19 02 18 27 03 01 31 10 13
  20595912.873    -1096416.684 9   -850174.83348  20595912.666    20595921.7544
  22941391.521    -2005432.739 8  -1547426.34146  22941390.935    22941402.8354
  20703793.788     -129478.515 9   -107589.09248  20703793.602    20703802.4364
  21406446.196    -1713076.458 9  -1324629.69447  21406445.966    21406455.3884
  23852860.926      -92553.121 8    -82186.82445  23852860.738    23852875.7954
  23238299.892      431639.584 8    323586.38946  23238299.440    23238313.2614
  21650816.225     -983492.394 8   -763808.31447  21650815.812    21650826.1124
  24150927.581    -1401064.860 7  -1080948.51945  24150926.891    24150941.0434
  21584641.162    -1999501.572 9  -1350874.85047  21584641.384    21584649.9114
 00  1 22 18  1 30.0000000  0  9 19 02 18 27 03 01 31 10 13
  20594901.187    -1101733.946 9   -854318.17948  20594900.956    20594910.0264
  22929036.722    -2070357.715 8  -1598017.16546  22929036.119    22929048.0204
  20715558.182      -67656.556 9    -59416.19548  20715557.987    20715566.8604
  21397394.976    -1760641.285 9  -1361693.20447  21397394.732    21397404.2034
  23865340.794      -26972.243 8    -31085.06845  23865340.578    23865355.6334
  23256873.626      529244.022 8    399641.60346  23256873.121    23256886.9974
  21651852.596     -978046.792 8   -759565.02747  21651852.145    21651862.4524
  24146634.189    -1423627.532 7  -1098529.88445  24146633.473    24146647.6624
  21572480.408    -2063406.738 9  -1400671.05947  21572480.652    21572489.2114
 00  1 22 18  2  0.0000000  0  9 19 02 18 27 03 01 31 10 13
  20593931.861    -1106828.162 9   -858287.71748  20593931.638    20593940.7114
  22916727.611    -2135042.051 8  -1648420.47246  22916727.040    22916738.9604
  20727407.832       -5386.391 9    -10894.04348  20727407.644    20727416.5544
  21388364.424    -1808097.677 9  -1398672.22147  21388364.154    21388373.6034
  23877906.484       39060.181 8     20368.53045  23877906.349    23877921.4724
  23275490.315      627075.105 8    475873.40346  23275489.873    23275503.8274
  21653006.745     -971982.278 8   -754839.48047  21653006.286    21653016.5764
  24142439.281    -1445672.093 7  -1115707.51645  24142438.588    24142452.9654
  21560387.556    -2126955.023 9  -1450189.18147  21560387.804    21560396.3574
 00  1 22 18  2 30.0000000  0  9 19 02 18 27 03 01 31 10 13
  20593006.414    -1111691.630 9   -862077.45848  20593006.198    20593015.2624
  22904464.783    -2199483.316 8  -1698634.38146  22904464.259    22904476.1914
  20739343.225       57334.260 9     37979.12047  20739343.031    20739351.9794
  21379353.155    -1855452.611 9  -1435572.17947  21379352.892    21379362.3314
  23890554.534      105524.837 8     72158.97045  23890554.312    23890569.5744
  23294150.564      725135.124 8    552283.62246  23294150.165    23294164.2904
  21654278.087     -965301.598 8   -749633.82447  21654277.646    21654287.9364
  24138342.751    -1467199.490 7  -1132482.18245  24138342.083    24138356.4594
  21548362.452    -2190147.516 9  -1499430.05947  21548362.699    21548371.2724
 00  1 22 18  3  0.0000000  0  9 19 02 18 27 03 01 31 10 13
  20592123.255    -1116332.889 9   -865694.04648  20592123.050    20592132.1764
  22892250.382    -2263670.800 8  -1748650.52546  22892249.795    22892261.7454
  20751367.711      120523.196 9     87217.18647  20751367.537    20751376.5264
  21370361.821    -1902702.715 9  -1472390.45147  21370361.546    21370370.9494
  23903282.316      172408.868 8    124276.18245  23903282.102    23903297.4894
  23312852.348      823412.982 8    628863.56046  23312852.038    23312866.1884
  21655667.086     -958002.463 8   -743946.24947  21655666.664    21655676.9814
  24134344.988    -1488208.261 7  -1148852.71745  24134344.291    24134358.7724
  21536407.394    -2252972.050 9  -1548384.21147  21536407.615    21536416.2284
 00  1 22 18  3 30.0000000  0 10 19 02 18 27 03 01 31 08 10 13
  20591284.044    -1120743.106 9   -869130.60648  20591283.841    20591293.0064
  22880085.489    -2327597.803 8  -1798463.70446  22880084.867    22880096.8014
  20763486.690      184208.405 9    136841.94947  20763486.497    20763495.5084
  21361393.113    -1949833.562 9  -1509115.79047  21361392.845    21361402.2884
  23916089.931      239712.503 8    176720.36745  23916089.755    23916105.0814
  23331595.719      921908.810 8    705613.36746  23331595.372    23331609.5624
  21657176.685     -950069.566 8   -737764.81647  21657176.269    21657186.6274
  24394731.700    -2567967.646 7  -1981707.31045  24394731.280    24394745.9834
  24130450.996    -1508671.336 7  -1164798.02945  24130450.197    24130464.8774
  21524530.491    -2315385.630 9  -1597018.15047  21524530.707    21524539.3274
 00  1 22 18  4  0.0000000  0 10 19 02 18 27 03 01 31 08 10 13
  20590487.057    -1124931.495 9   -872394.30848  20590486.833    20590496.0414
  22867966.684    -2391282.352 8  -1848087.96246  22867966.056    22867977.9974
  20775700.745      248393.470 9    186856.22647  20775700.552    20775709.5694
  21352446.514    -1996848.164 9  -1545750.55247  21352446.249    21352455.7154
  23928975.778      307426.922 8    229484.63845  23928975.495    23928990.9534
  23350381.198     1020626.318 8    782535.89446  23350380.817    23350395.0254
  21658807.724     -941498.688 8   -731086.25047  21658807.299    21658817.7054
  24379132.149    -2649944.376 7  -2045585.36145  24379131.488    24379146.4434
  24126661.860    -1528583.485 7  -1180314.05345  24126661.050    24126675.8964
  21512736.292    -2377364.466 9  -1645313.31947  21512736.512    21512745.1124
 00  1 22 18  4 30.0000000  0 10 19 02 18 27 03 01 31 08 10 13
  20589729.515    -1128912.275 9   -875496.22748  20589729.317    20589738.5324
  22855893.732    -2454726.200 8  -1897524.65446  22855893.075    22855905.0014
  20788006.687      313061.400 9    237246.75347  20788006.503    20788015.5354
  21343522.642    -2043743.479 9  -1582292.36247  21343522.357    21343531.8984
  23941940.246      375554.789 8    282571.05945  23941940.039    23941955.5534
  23369207.020     1119555.892 8    859623.69046  23369206.715    23369220.9334
  21660559.838     -932291.882 8   -723912.14947  21660559.377    21660569.8384
  24363531.496    -2731926.617 7  -2109467.68945  24363530.948    24363545.6414
  24122974.297    -1547962.355 7  -1195414.52145  24122973.533    24122988.3354
  21501026.429    -2438900.229 9  -1693263.24047  21501026.669    21501035.1924
 00  1 22 18  5  0.0000000  0 10 19 02 18 27 03 01 31 08 10 13
  20589013.138    -1132677.021 9   -878429.81448  20589012.913    20589022.1364
  22843865.767    -2517933.308 8  -1946776.88946  22843865.131    22843877.0424
  20800403.919      378208.834 9    288010.91347  20800403.740    20800412.7554
  21334622.322    -2090514.679 9  -1618737.46147  21334622.058    21334631.6524
  23954985.454      444107.118 8    335988.22645  23954985.248    23955000.8804
  23388073.059     1218696.298 8    936875.75746  23388072.704    23388086.9624
  21662434.601     -922440.113 8   -716235.47847  21662434.149    21662444.6444
  24347929.074    -2813918.538 7  -2173357.55045  24347928.549    24347943.4874
  24119386.954    -1566814.465 7  -1210104.54245  24119386.117    24119400.9474
  21489402.143    -2499986.306 9  -1740862.76147  21489402.396    21489410.8504
 00  1 22 18  5 30.0000000  0 10 19 02 18 27 03 01 31 08 10 13
  20588341.747    -1136205.187 9   -881179.04448  20588341.538    20588350.7854
  22831881.642    -2580909.897 8  -1995849.50546  22831881.038    22831892.9324
  20812892.221      443834.945 9    339148.07147  20812892.044    20812901.0844
  21325745.600    -2137162.089 9  -1655086.09147  21325745.344    21325754.9464
  23968110.673      513079.524 8    389732.72545  23968110.462    23968126.2424
  23406982.749     1318066.150 8   1014306.60346  23406982.323    23406996.7604
  21664433.723     -911935.046 8   -708049.74547  21664433.235    21664443.7704
  24332324.113    -2895924.275 7  -2237258.15845  24332323.733    24332338.5574
  24115900.041    -1585138.730 7  -1224383.26845  24115899.140    24115914.0104
  21477861.770    -2560631.528 9  -1788118.75247  21477861.986    21477870.4154
 00  1 22 18  6  0.0000000  0 10 19 02 18 27 03 01 31 08 10 13
  20587719.269    -1139476.397 9   -883728.05548  20587719.049    20587728.2854
  22819944.618    -2643638.915 8  -2044729.21246  22819944.012    22819955.9084
  20825472.619      509944.955 9    390662.28847  20825472.425    20825481.4734
  21316892.947    -2183683.343 9  -1691336.42147  21316892.672    21316902.2964
  23981316.446      582475.063 7    443806.94445  23981316.170    23981332.0644
  23425939.061     1417681.717 8   1091928.90546  23425938.699    23425953.2084
  21666556.147     -900781.684 8   -699358.84847  21666555.676    21666566.2274
  24316717.383    -2977938.424 7  -2301165.32845  24316716.967    24316731.8384
  24112511.896    -1602943.674 7  -1238257.32945  24112511.026    24112525.8804
  21466400.617    -2620860.168 9  -1835050.14347  21466400.820    21466409.2554
 00  1 22 18  6 30.0000000  0 10 19 02 18 27 03 01 31 08 10 13
  20587147.052    -1142483.533 9   -886071.29648  20587146.835    20587156.1054
  22808057.412    -2706106.596 8  -2093405.28846  22808056.781    22808068.6754
  20838145.999      576543.782 9    442557.39947  20838145.802    20838154.8664
  21308066.350    -2230067.277 9  -1727479.74647  21308066.043    21308075.7234
  23994603.130      652296.711 7    498213.19645  23994602.843    23994618.8394
  23444942.579     1517545.329 8   1169744.49446  23444942.304    23444956.8774
  21668800.101     -888989.782 8   -690170.39047  21668799.622    21668810.1944
  24301110.707    -3059952.007 7  -2365072.04145  24301110.231    24301125.3024
  24109221.673    -1620234.163 7  -1251730.49145  24109220.933    24109235.5954
  21455015.117    -2680691.475 9  -1881671.93147  21455015.312    21455023.6914
 00  1 22 18  7  0.0000000  0 10 19 02 18 27 03 01 31 08 10 13
  20586626.749    -1145217.884 9   -888201.97848  20586626.535    20586635.7864
  22796219.026    -2768317.809 8  -2141881.53046  22796218.387    22796230.2094
  20850914.589      643642.769 9    494842.24747  20850914.382    20850923.4594
  21299265.785    -2276314.622 9  -1763516.63647  21299265.495    21299275.1674
  24007971.398      722547.044 7    552953.49845  24007971.158    24007987.2164
  23463995.069     1617666.213 8   1247760.56246  23463994.774    23464009.4654
  21671163.741     -876569.210 8   -680492.04447  21671163.236    21671173.8264
  24285506.548    -3141952.856 7  -2428968.83345  24285505.974    24285521.1124
  24106030.219    -1637006.130 7  -1264799.61745  24106029.543    24106044.1614
  21443701.409    -2740145.285 9  -1927999.56247  21443701.604    21443709.9814
 00  1 22 18  7 30.0000000  0 10 19 02 18 27 03 01 31 08 10 13
  20586156.078    -1147691.432 9   -890129.43648  20586155.851    20586165.1334
  22784431.675    -2830260.851 8  -2190148.80846  22784431.016    22784442.7694
  20863776.942      711234.523 9    547511.06747  20863776.728    20863785.8214
  21290491.381    -2322424.655 9  -1799446.52547  21290491.090    21290500.7114
  24021422.793      793233.292 8    608033.47645  24021422.535    24021438.6554
  23483094.477     1718033.592 8   1325968.71846  23483094.242    23483109.0184
  21673643.795     -863536.590 8   -670336.77447  21673643.309    21673653.9084
  24269907.591    -3223925.831 7  -2492843.89645  24269907.003    24269922.1364
  24102939.564    -1653247.141 7  -1277455.00445  24102938.933    24102953.6994
  21432457.202    -2799233.923 9  -1974042.64447  21432457.418    21432465.8064
 00  1 22 18  8  0.0000000  0 10 19 02 18 27 03 01 31 08 10 13
  20585728.777    -1149937.185 9   -891879.39748  20585728.556    20585737.8474
  22772694.711    -2891938.973 8  -2238209.65546  22772694.062    22772705.7404
  20876730.468      779305.222 9    600553.09347  20876730.250    20876739.3874
  21281743.817    -2368393.476 9  -1835266.38247  21281743.525    21281753.1514
  24034956.896      864354.282 7    663452.21845  24034956.535    24034972.7264
  23502235.996     1818622.072 8   1404349.15446  23502235.750    23502250.5264
  21676238.560     -849901.914 8   -659712.35847  21676238.042    21676248.6134
  24254313.098    -3305875.548 7  -2556700.84745  24254312.548    24254327.6344
  24099950.436    -1668955.277 7  -1289695.17945  24099949.801    24099964.6864
  21421282.152    -2857959.331 9  -2019802.69247  21421282.345    21421290.7554
 00  1 22 18  8 30.0000000  0 10 19 02 18 27 03 01 31 08 10 13
  20585336.979    -1151996.495 9   -893484.08348  20585336.718    20585346.0384
  22761006.680    -2953359.740 8  -2286069.97946  22761006.023    22761017.6854
  20889769.799      847827.022 9    653946.62647  20889769.603    20889778.7624
  21273021.246    -2414230.927 9  -1870983.87047  21273020.954    21273030.5884
  24048572.226      935902.588 8    719203.92445  24048571.950    24048588.2054
  23521415.335     1919408.497 8   1482883.82045  23521415.013    23521429.7404
  21678948.279     -835662.367 8   -648616.62047  21678947.747    21678958.3224
  24238719.945    -3387818.751 7  -2620552.71445  24238719.483    24238734.3344
  24097063.095    -1684128.886 7  -1301518.81545  24097062.480    24097077.3064
  21410177.844    -2916312.913 9  -2065273.00447  21410178.042    21410186.4764
 00  1 22 18  9  0.0000000  0 10 19 02 18 27 03 01 31 08 10 13
  20584978.476    -1153880.400 9   -894952.09348  20584978.236    20584987.5934
  22749366.008    -3014531.756 8  -2333736.47646  22749365.382    22749377.0514
  20902891.065      916779.311 9    707675.60347  20902890.860    20902900.0474
  21264320.513    -2459953.702 9  -1906612.00247  21264320.217    21264329.8234
  24062265.087     1007857.640 8    775272.57245  24062264.800    24062281.1174
  23540626.897     2020364.583 8   1561550.70045  23540626.543    23540641.2274
  21681772.290     -820821.872 8   -637052.61947  21681771.822    21681782.3624
  24223124.843    -3469771.867 7  -2684412.31445  24223124.440    24223139.3754
  24094275.914    -1698776.002 7  -1312932.19545  24094275.340    24094290.2154
  21399144.308    -2974294.476 9  -2110453.42847  21399144.521    21399152.9264
 00  1 22 18  9 30.0000000  0 10 19 02 18 27 03 01 31 08 10 13
  20584650.968    -1155601.664 9   -896293.36848  20584650.723    20584660.0964
  22737772.407    -3075456.604 8  -2381210.37746  22737771.758    22737783.4854
  20916092.903      986155.081 9    761734.56447  20916092.690    20916101.9164
  21255641.359    -2505563.180 9  -1942151.84347  21255641.056    21255650.6264
  24076030.953     1080196.824 7    831640.52045  24076030.701    24076047.0924
  23559868.576     2121479.563 8   1640341.39745  23559868.262    23559882.9254
  21684712.372     -805371.939 8   -625013.73347  21684711.886    21684722.3774
  24207523.969    -3551754.982 7  -2748295.29945  24207523.550    24207538.6084
  24091588.347    -1712898.734 7  -1323936.98545  24091587.761    24091602.8274
  21388185.877    -3031881.444 9  -2155326.37847  21388186.087    21388194.4814
 00  1 22 18 10  0.0000000  0 10 19 02 18 27 03 01 31 08 10 13
  20584354.983    -1157157.060 9   -897505.39148  20584354.718    20584364.1164
  22726223.882    -3136144.490 8  -2428499.63346  22726223.213    22726234.9554
  20929376.353     1055959.606 9    816127.62047  20929376.134    20929385.3684
  21246984.202    -2551056.897 9  -1977601.47247  21246983.879    21246993.4284
  24089866.995     1152904.790 8    888295.84645  24089866.752    24089883.2304
  23579141.304     2222757.960 8   1719259.44445  23579141.000    23579155.7244
  21687770.402     -789301.855 8   -612491.61747  21687769.949    21687780.3574
  24191915.245    -3633779.746 7  -2812210.73245  24191914.796    24191929.7884
  24089000.584    -1726497.661 7  -1334533.63445  24088999.902    24089015.0374
  21377305.382    -3089058.883 9  -2199880.20447  21377305.559    21377313.9894
 00  1 22 18 10 30.0000000  0 10 19 02 18 27 03 01 31 08 10 13
  20584096.883    -1158513.471 9   -898562.36748  20584096.636    20584106.0454
  22714719.020    -3196602.695 8  -2475609.92346  22714718.358    22714730.1264
  20942742.996     1126201.448 9    870861.44347  20942742.771    20942752.0314
  21238348.250    -2596439.214 9  -2012964.30247  21238347.958    21238357.4474
  24103772.156     1225975.461 8    945233.81145  24103771.795    24103788.2534
  23598447.868     2324213.441 8   1798315.45545  23598447.515    23598462.1394
  21690946.741     -772610.208 8   -599485.17347  21690946.261    21690956.7244
  24176299.919    -3715839.090 8  -2876153.12445  24176299.466    24176314.5124
  24086511.545    -1739577.739 7  -1344725.96845  24086510.925    24086526.0104
  21366503.991    -3145820.442 9  -2244109.97147  21366504.187    21366512.6534
 00  1 22 18 11  0.0000000  0 10 19 02 18 27 03 01 31 08 10 13
  20583883.737    -1159633.898 9   -899435.46148  20583883.494    20583892.8884
  22703255.997    -3256841.172 8  -2522549.00146  22703255.373    22703267.1044
  20956197.659     1196905.887 9    925955.72947  20956197.446    20956206.7194
  21229736.433    -2641694.819 9  -2048228.38747  21229736.120    21229745.6084
  24117746.844     1299412.241 7   1002457.04645  24117746.501    24117763.0374
  23617793.048     2425871.746 8   1877529.51545  23617792.652    23617807.1734
  21694241.177     -755297.659 8   -585994.91647  21694240.720    21694251.2244
  24160680.892    -3797918.040 8  -2940110.78545  24160680.359    24160695.3364
  24084120.854    -1752141.804 7  -1354516.20245  24084120.180    24084135.1424
  21355784.695    -3202150.785 9  -2288003.72447  21355784.878    21355793.3534
 00  1 22 18 11 30.0000000  0 10 19 02 18 27 03 01 31 08 10 13
  20583716.148    -1160514.642 9   -900121.79848  20583715.900    20583725.2984
  22691835.919    -3316854.317 8  -2569312.49346  22691835.250    22691846.9634
  20969741.468     1268078.803 9    981415.05247  20969741.250    20969750.5324
  21221151.066    -2686810.992 9  -2083383.83747  21221150.773    21221160.2114
  24131795.595     1373238.231 7   1059983.55945  24131795.365    24131811.9064
  23637180.706     2527753.109 8   1956917.36745  23637180.260    23637194.6764
  21697655.174     -737357.054 8   -572015.28147  21697654.746    21697665.2744
  24145060.793    -3880002.155 7  -3004072.44845  24145060.263    24145075.0864
  24081830.072    -1764180.638 7  -1363897.17145  24081829.406    24081844.3674
  21345150.874    -3258032.152 9  -2331547.62947  21345151.059    21345159.5304
 00  1 22 18 12  0.0000000  0 10 19 02 18 27 03 01 31 08 10 13
  20583596.601    -1161143.165 9   -900611.60348  20583596.353    20583605.7074
  22680459.073    -3376639.879 8  -2615898.66046  22680458.406    22680470.1444
  20983373.537     1339715.489 9   1037235.76047  20983373.323    20983382.6434
  21212592.390    -2731787.256 9  -2118430.26147  21212592.098    21212601.5264
  24145920.718     1447465.353 7   1117822.63945  24145920.376    24145937.2284
  23656610.160     2629853.956 8   2036476.25445  23656609.660    23656623.9934
  21701187.192     -718796.352 8   -557552.45647  21701186.731    21701197.2804
  24129443.285    -3962072.377 7  -3068023.28245  24129442.695    24129457.6714
  24079638.304    -1775699.038 7  -1372872.62745  24079637.514    24079652.6234
  21334601.310    -3313470.597 9  -2374746.39447  21334601.503    21334609.9884
 00  1 22 18 12 30.0000000  0 10 19 02 18 27 03 01 31 08 10 13
  20583527.440    -1161507.052 9   -900895.19848  20583527.181    20583536.5054
  22669126.533    -3436192.729 8  -2662303.49046  22669125.831    22669137.6164
  20997092.963     1411811.178 9   1093414.13247  20997092.745    20997102.0944
  21204059.993    -2776625.860 9  -2153369.42447  21204059.675    21204069.0434
  24160125.295     1522109.396 8   1175986.57945  24160124.923    24160141.6854
  23676080.247     2732168.828 8   2116201.91045  23676079.741    23676093.9914
  21704836.049     -699621.481 8   -542611.07147  21704835.595    21704846.1714
  24113828.846    -4044126.709 7  -3131961.72845  24113828.194    24113843.1394
  24077543.707    -1786706.176 7  -1381449.67845  24077543.044    24077558.1284
  21324137.770    -3368456.835 9  -2417592.79647  21324137.957    21324146.4274
 00  1 22 18 13  0.0000000  0 10 19 02 18 27 03 01 31 08 10 13
  20583506.125    -1161619.184 9   -900982.62848  20583505.865    20583515.2204
  22657842.721    -3495489.257 8  -2708508.59846  22657842.072    22657853.8094
  21010898.899     1484361.171 9   1149946.50447  21010898.647    21010907.9854
  21195553.276    -2821328.842 9  -2188202.91447  21195552.934    21195562.3394
  24174410.877     1597179.317 7   1234482.38045  24174410.474    24174427.2034
  23695587.620     2834680.081 8   2196080.60145  23695587.246    23695601.4404
  21708603.282     -679824.792 8   -527185.16447  21708602.847    21708613.4054
  24098216.602    -4126169.408 7  -3195891.11345  24098215.893    24098231.0994
  24075547.167    -1797198.578 7  -1389625.63045  24075546.476    24075561.5094
  21313761.632    -3422983.698 9  -2460081.24547  21313761.810    21313770.2764
 00  1 22 18 13 30.0000000  0 10 19 02 18 27 03 01 31 08 10 13
  20583532.500    -1161480.777 9   -900874.82848  20583532.247    20583541.6304
  22646610.954    -3554512.972 8  -2754501.10746  22646610.288    22646621.9414
  21024789.422     1557356.054 9   1206825.55247  21024789.171    21024798.5284
  21187071.368    -2865901.641 9  -2222934.96247  21187071.036    21187080.4154
  24188775.820     1672667.194 7   1293303.85545  24188775.489    24188792.4344
  23715128.774     2937368.890 8   2276097.63745  23715128.448    23715142.7384
  21712489.080     -659405.079 8   -511273.79047  21712488.587    21712499.2074
  24082603.792    -4208215.116 7  -3259822.84745  24082603.121    24082618.3574
  24073649.405    -1807171.991 7  -1397397.17745  24073648.719    24073663.6194
  21303470.510    -3477064.103 9  -2502221.80347  21303470.694    21303479.1014
 00  1 22 18 14  0.0000000  0 10 19 02 18 27 03 01 31 08 10 13
  20583609.566    -1161076.115 9   -900559.55648  20583609.294    20583618.6694
  22635433.160    -3613253.009 8  -2800272.58647  22635432.466    22635444.0644
  21038766.926     1630808.051 9   1264060.78847  21038766.675    21038776.0684
  21178614.562    -2910342.418 9  -2257564.14347  21178614.221    21178623.5734
  24203217.954     1748560.036 7   1352440.88445  24203217.551    24203234.6244
  23734704.459     3040238.782 8   2356255.77545  23734704.146    23734718.5534
  21716493.577     -638361.434 8   -494876.25347  21716493.134    21716503.7694
  24066990.617    -4290263.170 7  -3323756.38045  24066989.909    24067005.2434
  24071850.532    -1816625.636 7  -1404763.73545  24071849.885    24071864.6754
  21293263.961    -3530700.101 9  -2544016.07347  21293264.120    21293272.4724
 00  1 22 18 14 30.0000000  0 10 19 02 18 27 03 01 31 08 10 13
  20583734.306    -1160420.776 9   -900048.95148  20583734.047    20583743.4394
  22624311.341    -3671698.610 8  -2845814.61347  22624310.656    22624322.2524
  21052830.567     1704712.858 9   1321648.86747  21052830.319    21052839.7304
  21170182.528    -2954652.820 9  -2292091.73747  21170182.188    21170191.6074
  24217733.722     1824840.353 7   1411879.86645  24217733.391    24217750.3704
  23754313.309     3143283.126 8   2436549.86845  23754312.961    23754327.5654
  21720618.043     -616687.929 8   -477987.90347  21720617.589    21720628.1654
  24051374.725    -4372325.302 8  -3387700.89145  24051374.099    24051389.4054
  24070151.093    -1825556.773 7  -1411723.11545  24070150.491    24070165.1824
  21283141.090    -3583895.927 9  -2585467.35147  21283141.258    21283149.6094
 00  1 22 18 15  0.0000000  0 10 19 02 18 27 03 01 31 08 10 13
  20583904.148    -1159528.620 9   -899353.80848  20583903.880    20583913.2854
  22613246.249    -3729846.056 8  -2891124.31447  22613245.576    22613257.1654
  21066980.295     1779069.627 9   1379589.12347  21066980.043    21066989.4424
  21161776.696    -2998825.905 9  -2326512.33747  21161776.367    21161785.7794
  24232319.143     1901486.535 7   1471603.92545  24232318.964    24232335.7334
  23773957.144     3246511.282 8   2516987.18245  23773956.772    23773971.5334
  21724861.286     -594390.100 8   -460613.07247  21724860.801    21724871.3874
  24035757.704    -4454393.389 8  -3451650.03245  24035757.132    24035772.4834
  24068553.095    -1833954.975 7  -1418267.21245  24068552.448    24068567.2574
  21273100.436    -3636659.785 9  -2626582.02947  21273100.599    21273108.9834
 00  1 22 18 15 30.0000000  0 10 19 02 18 27 03 01 31 08 10 13
  20584117.858    -1158406.079 9   -898479.15748  20584117.582    20584126.9924
  22602233.973    -3787716.325 8  -2936218.03647  22602233.259    22602244.8714
  21081214.855     1853872.167 9   1437876.72147  21081214.599    21081223.9704
  21153398.727    -3042852.524 9  -2360818.81747  21153398.387    21153407.8034
  24246973.213     1978492.921 7   1531608.64845  24246973.029    24246989.8644
  23793637.116     3349929.255 8   2597572.40545  23793636.728    23793651.5354
  21729219.925     -571485.708 8   -442765.59047  21729219.424    21729230.0504
  24020140.842    -4536460.414 7  -3515598.35045  24020140.273    24020155.5774
  24067057.645    -1841814.223 8  -1424391.37445  24067056.933    24067071.6764
  21263140.813    -3688997.766 9  -2667364.85747  21263140.984    21263149.3594
 00  1 22 18 16  0.0000000  0 10 19 02 18 27 03 01 31 08 10 13
  20584372.476    -1157068.216 9   -897436.71348  20584372.206    20584381.6374
  22591270.124    -3845331.768 8  -2981113.18347  22591269.410    22591281.0284
  21095530.900     1929103.136 9   1496498.16747  21095530.648    21095540.0014
  21145047.683    -3086737.574 9  -2395014.97447  21145047.348    21145056.7794
  24261695.051     2055856.285 7   1591891.52245  24261694.848    24261711.9174
  23813353.461     3453537.810 8   2678306.13145  23813352.988    23813367.8574
  21733693.909     -547975.525 8   -424446.05947  21733693.367    21733704.0344
  24004526.255    -4618515.696 8  -3579537.51645  24004525.692    24004540.8784
  24065664.816    -1849134.299 8  -1430095.41445  24065664.027    24065678.8424
  21253264.142    -3740900.030 9  -2707808.17047  21253264.331    21253272.6454
 00  1 22 18 16 30.0000000  0 10 19 02 18 27 03 01 31 08 10 13
  20584666.224    -1155524.701 9   -896234.03048  20584665.962    20584675.3854
  22580351.917    -3902707.187 8  -3025821.30247  22580351.258    22580362.8694
  21109925.252     2004745.296 9   1555440.01247  21109924.983    21109934.3694
  21136723.132    -3130483.839 9  -2429103.00147  21136722.771    21136732.1914
  24276484.551     2133574.722 7   1652451.09745  24276484.299    24276501.4024
  23833104.469     3557328.481 8   2759181.76645  23833103.905    23833118.7874
  21738282.504     -523862.720 8   -405656.96747  21738281.940    21738292.6454
  23988912.750    -4700565.421 7  -3643472.34245  23988912.122    23988927.2734
  24064374.118    -1855917.287 8  -1435380.92545  24064373.311    24064388.2384
  21243470.054    -3792368.462 9  -2747913.43847  21243470.241    21243478.4864
 00  1 22 18 17  0.0000000  0 10 19 02 18 27 03 01 31 08 10 13
  20585000.396    -1153768.816 9   -894865.85648  20585000.131    20585009.5694
  22569473.442    -3959874.243 8  -3070367.04947  22569472.779    22569484.3844
  21124396.364     2080791.265 9   1614696.52147  21124396.085    21124405.5584
  21128424.179    -3174095.109 9  -2463085.83647  21128423.807    21128433.2544
  24291342.588     2211652.592 7   1713290.75045  24291342.323    24291359.3404
  23852891.007     3661305.922 8   2840202.92645  23852890.387    23852905.2444
  21742985.359     -499148.965 8   -386399.60347  21742984.864    21742995.6144
  23973299.405    -4782613.624 7  -3707405.99845  23973298.810    23973313.9334
  24063182.370    -1862180.373 8  -1440261.33245  24063181.586    24063196.5884
  21233757.754    -3843407.190 9  -2787683.86547  21233757.925    21233766.1794
 00  1 22 18 17 30.0000000  0 10 19 02 18 27 03 01 31 08 10 13
  20585378.220    -1151783.491 9   -893318.88648  20585377.959    20585387.4224
  22558633.021    -4016841.281 8  -3114756.91947  22558632.324    22558643.9504
  21138942.959     2157233.833 9   1674262.07347  21138942.665    21138952.2374
  21120150.173    -3217575.424 9  -2496966.62447  21120149.814    21120159.2904
  24306270.599     2290098.416 7   1774417.10645  24306270.299    24306287.4654
  23872709.952     3765454.214 8   2921357.20445  23872709.327    23872724.3204
  21747805.384     -473820.253 8   -366663.03147  21747804.898    21747815.5524
  23957683.680    -4864675.012 7  -3771349.93945  23957683.071    23957698.1344
  24062086.164    -1867941.148 8  -1444750.32945  24062085.345    24062100.4854
  21224129.353    -3894004.632 9  -2827110.42847  21224129.521    21224137.7694
 00  1 22 18 18  0.0000000  0 10 19 02 18 27 03 01 31 08 10 13
  20585804.483    -1149543.540 9   -891573.51648  20585804.224    20585813.7434
  22547833.954    -4073590.591 8  -3158977.13547  22547833.290    22547844.9704
  21153567.047     2234083.814 9   1734145.07947  21153566.780    21153576.4244
  21111901.138    -3260924.559 9  -2530745.20847  21111900.785    21111910.3014
  24321267.767     2368907.695 7   1835826.66645  24321267.466    24321284.5704
  23892560.867     3869770.806 8   3002642.63045  23892560.274    23892575.3114
  21752744.553     -447865.377 8   -346438.53747  21752744.019    21752754.6474
  23942064.513    -4946754.734 7  -3835308.17845  23942063.844    23942078.9784
  24061083.917    -1873208.743 7  -1448855.03945  24061083.178    24061098.2004
  21214587.878    -3944145.359 9  -2866181.12047  21214588.036    21214596.2914
 00  1 22 18 18 30.0000000  0 10 19 02 18 27 03 01 31 08 10 13
  20586282.531    -1147031.522 9   -889616.14548  20586282.273    20586291.8244
  22537081.078    -4130097.422 8  -3203008.39747  22537080.404    22537092.0984
  21168273.609     2311366.947 9   1794365.60547  21168273.349    21168283.0334
  21103680.451    -3304124.558 9  -2564407.57347  21103680.096    21103689.6414
  24336335.499     2448087.788 7   1897525.17045  24336335.115    24336352.2584
  23912444.185     3974257.536 8   3084060.62445  23912443.639    23912458.6274
  21757803.133     -421282.371 8   -325724.58547  21757802.607    21757813.2594
  23926440.551    -5028859.073 7  -3899285.60845  23926439.950    23926455.0684
  24060175.727    -1877981.579 7  -1452574.21445  24060174.967    24060189.9844
  21205134.906    -3993821.044 9  -2904889.43947  21205135.061    21205143.3914
 00  1 22 18 19  0.0000000  0 10 19 02 18 27 03 01 31 08 10 13
  20586815.294    -1144232.136 9   -887434.85048  20586815.025    20586824.6004
  22526376.241    -4186351.590 8  -3246842.77947  22526375.575    22526387.3014
  21183067.109     2389106.717 9   1854941.94847  21183066.838    21183076.5254
  21095489.977    -3347165.817 9  -2597946.24547  21095489.616    21095499.2014
  24351474.453     2527642.615 7   1959515.64845  24351474.075    24351491.3604
  23932360.269     4078916.277 8   3165612.66045  23932359.721    23932374.8374
  21762982.059     -394067.496 8   -304518.25947  21762981.511    21762992.2154
  23910812.763    -5110983.299 7  -3963278.52545  23910812.199    23910827.3554
  24059364.234    -1882245.413 7  -1455896.75845  24059363.479    24059378.6414
  21195774.618    -4043009.712 9  -2943218.27447  21195774.780    21195783.1044
 00  1 22 18 19 30.0000000  0 10 19 02 18 27 03 01 31 08 10 13
  20587404.064    -1141138.154 9   -885023.98548  20587403.787    20587413.3994
  22515725.156    -4242323.269 8  -3290457.02247  22515724.478    22515736.2254
  21197950.536     2467318.996 9   1915886.48747  21197950.274    21197959.9264
  21087331.916    -3390036.688 9  -2631352.14047  21087331.544    21087341.1844
  24366684.447     2607570.196 7   2021796.58945  24366684.075    24366701.2514
  23952308.484     4183744.326 8   3247296.61545  23952307.961    23952323.1374
  21768280.817     -366222.286 8   -282820.75247  21768280.303    21768291.0494
  23895182.758    -5193119.582 7  -4027280.82245  23895182.259    23895197.3544
  24058653.550    -1885980.094 7  -1458806.96245  24058652.811    24058668.0114
  21186510.676    -4091692.124 9  -2981152.61247  21186510.834    21186519.1584
 00  1 22 18 20  0.0000000  0 10 19 02 18 27 03 01 31 08 10 13
  20588045.546    -1137767.235 9   -882397.32448  20588045.293    20588054.8854
  22505131.101    -4297995.132 8  -3333837.65047  22505130.413    22505142.2184
  21212927.218     2546021.518 9   1977213.01847  21212926.936    21212936.5794
  21079207.278    -3432731.954 9  -2664621.20847  21079206.929    21079216.5984
  24381964.111     2687863.851 7   2084362.79645  24381963.667    24381981.0384
  23972291.995     4288758.004 8   3329125.21845  23972291.487    23972306.8414
  21773701.021     -337739.155 8   -260626.16547  21773700.511    21773711.2634
  23879552.183    -5275259.049 7  -4091285.59245  23879551.700    23879566.6844
  24058044.749    -1889179.532 7  -1461300.11745  24058044.023    24058059.2674
  21177341.903    -4139874.086 9  -3018696.99647  21177342.081    21177350.4484
 00  1 22 18 20 30.0000000  0 10 19 02 18 27 03 01 31 08 10 13
  20588735.539    -1134141.759 9   -879572.30248  20588735.265    20588744.8344
  22494590.717    -4353384.679 8  -3376998.28447  22494590.080    22494601.9054
  21227994.773     2625201.752 9   2038911.80447  21227994.515    21228004.1534
  21071116.295    -3475250.513 9  -2697752.57647  21071115.930    21071125.6354
  24397313.025     2768521.982 7   2147213.01345  24397312.452    24397329.9544
  23992312.681     4393966.959 8   3411105.99545  23992312.197    23992327.6854
  21779243.725     -308612.526 8   -237930.14947  21779243.214    21779253.9904
  23863923.532    -5357388.717 8  -4155282.72945  23863923.060    23863937.9184
  24057536.343    -1891851.607 8  -1463382.30645  24057535.544    24057550.9364
  21168265.977    -4187568.740 9  -3055861.65347  21168266.154    21168274.4874
 00  1 22 18 21  0.0000000  0 10 19 02 18 27 03 01 31 08 10 13
  20589470.303    -1130280.729 9   -876563.73648  20589470.036    20589479.5874
  22484101.362    -4408506.851 8  -3419950.56747  22484100.711    22484112.5044
  21243148.099     2704832.591 9   2100961.70647  21243147.835    21243157.5104
  21063057.541    -3517599.445 9  -2730751.77347  21063057.199    21063066.9344
  24412730.602     2849540.581 7   2210344.10145  24412730.088    24412747.5374
  24012368.264     4499359.054 8   3493229.47445  24012367.704    24012383.3524
  21784906.336     -278855.752 8   -214743.10847  21784905.793    21784916.5914
  23848297.772    -5439503.351 7  -4219268.15245  23848297.277    23848311.9764
  24057124.897    -1894014.336 8  -1465067.62645  24057124.049    24057139.4104
  21159281.001    -4234785.082 9  -3092653.60747  21159281.174    21159289.4994
 00  1 22 18 21 30.0000000  0 10 19 02 18 27 03 01 31 08 10 13
  20590248.634    -1126190.562 9   -873376.62548  20590248.358    20590257.9104
  22473663.114    -4463360.213 8  -3462693.38647  22473662.437    22473674.2424
  21258382.290     2784888.714 9   2163343.00047  21258382.028    21258391.7634
  21055031.786    -3559775.434 9  -2763616.21147  21055031.445    21055041.1264
  24428215.212     2930911.581 7   2273749.78345  24428214.659    24428232.2814
  24032457.548     4604927.939 8   3575490.70045  24032457.065    24032472.7034
  21790687.806     -248473.932 8   -191069.01947  21790687.311    21790698.1584
  23832675.287    -5521600.294 8  -4283239.77945  23832674.663    23832689.4184
  24056807.424    -1895683.158 8  -1466368.06645  24056806.669    24056821.8704
  21150382.662    -4281546.344 9  -3129090.95147  21150382.825    21150391.1454
 00  1 22 18 22  0.0000000  0 10 19 02 18 27 03 01 31 08 10 13
  20591071.226    -1121867.850 9   -870008.30748  20591070.968    20591080.5264
  22463272.000    -4517965.783 8  -3505243.11547  22463271.341    22463283.1564
  21273693.124     2865347.326 9   2226037.91747  21273692.849    21273702.6324
  21047039.448    -3601775.760 9  -2796343.77047  21047039.088    21047048.7394
  24443767.239     3012637.041 7   2337431.66145  24443766.692    24443784.4804
  24052579.393     4710667.497 8   3657884.90545  24052578.875    24052594.5524
  21796585.630     -217480.813 8   -166918.59847  21796585.148    21796596.1194
  23817056.065    -5603679.428 7  -4347197.54145  23817055.575    23817070.3384
  24056583.126    -1896862.342 8  -1467286.97545  24056582.354    24056597.4764
  21141567.483    -4327870.213 9  -3165187.47147  21141567.647    21141576.0214
 00  1 22 18 22 30.0000000  0 10 19 02 18 27 03 01 31 08 10 13
  20591940.371    -1117300.735 9   -866449.54448  20591940.106    20591949.6304
  22452927.024    -4572328.844 8  -3547603.87847  22452926.363    22452938.1624
  21289075.004     2946179.341 9   2289023.80047  21289074.730    21289084.5764
  21039080.865    -3643598.402 9  -2828932.87147  21039080.528    21039090.1964
  24459386.838     3094717.524 7   2401390.18945  24459386.358    24459404.0624
  24072729.276     4816554.407 8   3740393.92245  24072728.746    24072744.4104
  21802594.300     -185905.180 8   -142314.25647  21802593.789    21802604.8864
  23801441.125    -5685736.413 7  -4411138.04245  23801440.576    23801455.4154
  24056455.079    -1897535.254 7  -1467811.38645  24056454.273    24056469.4234
  21132834.985    -4373759.681 9  -3200945.50147  21132835.173    21132843.5574
 00  1 22 18 23  0.0000000  0 10 19 02 18 27 03 01 31 08 10 13
  20592859.523    -1112470.523 9   -862685.77248  20592859.270    20592868.8194
  22442632.743    -4626425.265 8  -3589756.87947  22442632.099    22442643.8174
  21304527.818     3027384.112 9   2352300.13547  21304527.542    21304537.3894
  21031155.657    -3685245.763 9  -2861385.39747  21031155.304    21031164.9904
  24475074.194     3177153.458 7   2465625.70945  24475073.589    24475091.4294
  24092902.932     4922566.764 8   3823000.69545  24092902.470    24092918.1804
  21808711.731     -153757.613 8   -117264.27347  21808711.273    21808722.3844
  23785829.188    -5767777.591 7  -4475066.22545  23785828.584    23785843.5214
  24056427.870    -1897678.353 8  -1467922.96445  24056427.092    24056442.2754
  21124188.211    -4419198.783 9  -3236352.60647  21124188.389    21124196.7224
 00  1 22 18 23 30.0000000  0 10 19 02 18 27 03 01 31 08 10 13
  20593830.361    -1107368.758 9   -858710.39648  20593830.118    20593839.6914
  22432389.006    -4680255.953 8  -3631702.80247  22432388.361    22432400.0174
  21320051.636     3108962.128 9   2415867.31247  21320051.395    21320061.2504
  21023260.618    -3726734.241 9  -2893714.10847  21023260.280    21023270.0244
  24490828.090     3259940.016 7   2530134.40845  24490827.453    24490845.4254
  24113100.048     5028702.521 7   3905703.61545  24113099.598    24113115.4284
  21814939.902     -121028.628 8    -91761.23147  21814939.402    21814950.6084
  23770221.278    -5849797.081 7  -4538977.50945  23770220.699    23770235.6414
  24056503.925    -1897279.407 8  -1467612.15745  24056503.099    24056518.2914
  21115627.276    -4464186.848 9  -3271408.25247  21115627.455    21115635.8044
 00  1 22 18 24  0.0000000  0 10 19 02 18 27 03 01 31 08 10 13
  20594851.257    -1102004.293 9   -854530.32648  20594850.991    20594860.5854
  22422195.888    -4733820.687 8  -3673441.49947  22422195.247    22422206.9084
  21335647.681     3190919.184 9   2479729.84247  21335647.408    21335657.2614
  21015393.020    -3768078.784 9  -2925930.65747  21015392.696    21015402.4674
  24506649.074     3343079.438 7   2594918.07545  24506648.430    24506666.8634
  24133320.493     5134960.819 7   3988502.02745  24133320.169    24133336.0644
  21821277.808      -87722.984 8    -65808.84847  21821277.314    21821288.5464
  23754618.322    -5931790.858 7  -4602868.73545  23754617.810    23754632.8274
  24056683.385    -1896336.914 8  -1466877.80045  24056682.595    24056697.7304
  21107154.817    -4508709.950 9  -3306101.58447  21107155.011    21107163.3604
 00  1 22 18 24 30.0000000  0 10 19 02 18 27 03 01 31 08 10 13
  20595918.688    -1096394.981 9   -850159.45648  20595918.432    20595928.0324
  22412053.693    -4787118.071 8  -3714971.86547  22412053.029    22412064.6994
  21351315.650     3273254.595 9   2543887.19747  21351315.382    21351325.2654
  21007548.517    -3809301.749 9  -2958052.47047  21007548.207    21007557.9924
  24522533.037     3426549.308 7   2659959.25345  24522532.464    24522550.8734
  24153562.564     5241332.233 7   4071388.57645  24153562.226    24153578.0804
  21827726.063      -53837.812 8    -39404.88647  21827725.540    21827736.7824
  23739019.496    -6013763.425 7  -4666743.44745  23739018.979    23739033.9844
  24056963.325    -1894865.469 8  -1465731.28945  24056962.621    24056977.7894
  21098773.527    -4552754.056 9  -3340421.67747  21098773.713    21098781.9944
 00  1 22 18 25  0.0000000  0 10 19 02 18 27 03 01 31 08 10 13
  20597032.173    -1090543.920 9   -845600.22148  20597031.901    20597041.5394
  22401958.398    -4840169.164 8  -3756310.32347  22401957.768    22401969.4074
  21367059.992     3355991.160 9   2608357.13247  21367059.722    21367069.6644
  20999726.455    -3850407.371 9  -2990082.84647  20999726.142    20999735.9024
  24538479.292     3510346.393 7   2725255.41945  24538478.724    24538497.2914
  24173827.683     5347824.191 8   4154369.03545  24173827.337    24173843.1324
  21834288.097      -19354.430 8    -12534.78547  21834287.557    21834298.8444
  23723423.180    -6095722.382 7  -4730607.54945  23723422.587    23723437.7604
  24057340.174    -1892885.188 8  -1464188.26245  24057339.390    24057354.6974
  21090485.441    -4596308.192 9  -3374359.97347  21090485.631    21090493.8854
 00  1 22 18 25 30.0000000  0 10 19 02 18 27 03 01 31 08 10 13
  20598188.683    -1084466.528 9   -840864.62248  20598188.401    20598198.0414
  22391905.681    -4892996.550 8  -3797474.45947  22391905.037    22391916.6444
  21382883.438     3439143.618 9   2673151.14547  21382883.168    21382893.1734
  20991927.966    -3891389.023 9  -3022016.61847  20991927.621    20991937.3634
  24554487.746     3594470.773 7   2790806.59245  24554487.312    24554505.8894
  24194119.407     5454455.732 8   4237458.26045  24194118.979    24194134.6524
  21840965.365       15734.844 8     14807.43547  21840964.855    21840976.1584
  23707827.946    -6177675.385 7  -4794466.99845  23707827.353    23707842.6624
  24057811.158    -1890410.317 8  -1462259.86345  24057810.414    24057825.6474
  21082289.093    -4639380.331 9  -3407922.68047  21082289.265    21082297.5364
 00  1 22 18 26  0.0000000  0 10 19 02 18 27 03 01 31 08 10 13
  20599386.306    -1078173.041 9   -835960.64548  20599386.042    20599395.6934
  22381894.180    -4945607.231 8  -3838469.74047  22381893.537    22381905.0774
  21398787.027     3522717.089 9   2738273.21247  21398786.788    21398796.8164
  20984155.373    -3932234.634 9  -3053844.38847  20984155.031    20984164.7364
  24570555.968     3678909.663 7   2856602.82945  24570555.638    24570574.1134
  24214437.564     5561226.469 7   4320655.96345  24214437.113    24214452.7084
  21847756.271       51421.010 8     42614.75347  21847755.803    21847767.0714
  23692230.180    -6259641.553 7  -4858336.71145  23692229.531    23692244.9734
  24058375.465    -1887445.252 8  -1459949.47545  24058374.674    24058389.9874
  21074185.181    -4681966.785 9  -3441106.93047  21074185.355    21074193.6004
 00  1 22 18 26 30.0000000  0 10 19 02 18 27 03 01 31 08 10 13
  20600628.098    -1071647.647 9   -830875.96648  20600627.832    20600637.4934
  22371922.142    -4998010.787 8  -3879303.62147  22371921.471    22371932.9394
  21414770.285     3606708.912 9   2803721.27147  21414770.013    21414780.0324
  20976411.823    -3972927.631 9  -3085553.23847  20976411.472    20976421.1484
  24586683.699     3763660.002 7   2922641.78245  24586683.523    24586702.0194
  24234782.293     5668137.328 7   4403962.85745  24234781.879    24234797.4044
  21854662.834       87714.704 8     70895.46247  21854662.362    21854673.6204
  23676627.207    -6341635.465 7  -4922228.02145  23676626.572    23676642.0644
  24059034.319    -1883982.867 8  -1457251.56245  24059033.538    24059048.8484
  21066173.923    -4724066.298 9  -3473911.74547  21066174.111    21066182.3244
 00  1 22 18 27  0.0000000  0 10 19 02 18 27 03 01 31 08 10 13
  20601915.317    -1064883.552 9   -825605.29248  20601915.051    20601924.6954
  22361988.664    -5050211.405 8  -3919979.37647  22361988.028    22361999.3844
  21430832.987     3691118.555 8   2869494.89747  21430832.723    21430842.7574
  20968701.147    -4013447.780 9  -3117127.40047  20968700.790    20968710.4654
  24602872.738     3848732.351 7   2988931.67345  24602872.585    24602890.9114
  24255155.842     5775200.297 8   4487388.24245  24255155.485    24255171.0274
  21861685.610      124619.424 8     99652.29347  21861685.140    21861696.3844
  23661019.034    -6423657.038 7  -4986140.89745  23661018.378    23661033.7754
  24059790.007    -1880011.967 7  -1454157.42345  24059789.244    24059804.5224
  21058253.502    -4765688.477 9  -3506344.61747  21058253.674    21058261.8894
 00  1 22 18 27 30.0000000  0 10 19 02 18 27 03 01 31 08 10 13
  20603247.720    -1057881.706 9   -820149.35448  20603247.449    20603257.1074
  22352097.480    -5102189.975 8  -3960482.11147  22352096.846    22352108.1304
  21446969.739     3775917.030 9   2935571.51147  21446969.472    21446979.5234
  20961023.304    -4053795.172 9  -3148566.94647  20961022.956    20961032.6494
  24619120.627     3934114.723 7   3055463.15245  24619120.587    24619139.0004
  24275560.108     5882424.384 8   4570939.17145  24275559.709    24275575.3694
  21868822.589      162123.621 8    128876.24447  21868822.069    21868833.2654
  23645406.469    -6505701.845 8  -5050071.87845  23645405.846    23645421.1084
  24060643.409    -1875527.630 7  -1450663.21145  24060642.584    24060658.0244
  21050422.804    -4806839.293 9  -3538410.19847  21050422.975    21050431.1734
 00  1 22 18 28  0.0000000  0 10 19 02 18 27 03 01 31 08 10 13
  20604627.889    -1050628.971 9   -814497.91748  20604627.623    20604637.3014
  22342251.189    -5153932.361 8  -4000800.80847  22342250.542    22342261.7964
  21463175.430     3861077.723 9   3001930.36547  21463175.133    21463185.1764
  20953378.117    -4093970.893 9  -3179872.71747  20953377.748    20953387.4714
  24635424.287     4019789.975 7   3122222.85345  24635424.101    24635442.6194
  24295992.928     5989798.473 8   4654606.98645  24295992.544    24296008.2444
  21876072.193      200219.920 8    158561.57247  21876071.661    21876082.7844
  23629789.689    -6587768.576 8  -5114019.93945  23629789.048    23629804.2474
  24061595.210    -1870525.449 7  -1446765.48245  24061594.355    24061610.0224
  21042684.326    -4847505.293 9  -3570097.99847  21042684.493    21042692.7324
 00  1 22 18 28 30.0000000  0  9 19 02 18 27 01 31 08 10 13
  20606061.637    -1043094.942 9   -808627.29248  20606061.380    20606071.0504
  22332454.356    -5205414.872 8  -4040917.01047  22332453.724    22332465.0144
  21479451.102     3946606.447 8   3068576.00047  21479450.825    21479460.9184
  20945769.116    -4133956.323 9  -3211030.20647  20945768.776    20945778.4924
  24316458.031     6097342.227 8   4738407.01045  24316457.636    24316473.3574
  21883437.438      238923.699 8    188720.24647  21883436.902    21883447.9914
  23614174.737    -6669825.810 8  -5177960.59945  23614174.048    23614189.1244
  24062648.275    -1864991.904 7  -1442453.69845  24062647.435    24062663.1254
  21035042.910    -4887661.264 9  -3601388.36647  21035043.083    21035051.3394
 00  1 22 18 29  0.0000000  0  9 19 02 18 27 01 31 08 10 13
  20607547.682    -1035286.080 9   -802542.51248  20607547.412    20607557.0624
  22322709.913    -5256622.054 8  -4080818.66947  22322709.280    22322720.5754
  21495797.545     4032507.377 8   3135511.65847  21495797.289    21495807.4614
  20938195.322    -4173757.171 9  -3242043.85447  20938194.969    20938204.6824
  24336955.988     6205058.788 7   4822341.66945  24336955.546    24336971.3604
  21890918.139      278234.610 8    219352.00647  21890917.653    21890928.7154
  23598564.143    -6751859.992 7  -5241883.29345  23598563.444    23598578.5284
  24063800.242    -1858938.586 7  -1437736.88545  24063799.358    24063815.0764
  21027501.217    -4927293.317 9  -3632270.49747  21027501.384    21027509.6394
 00  1 22 18 29 30.0000000  0  9 19 02 18 27 01 31 08 10 13
  20609079.324    -1027237.257 9   -796270.75048  20609079.081    20609088.7564
  22313012.339    -5307583.046 8  -4120528.48747  22313011.684    22313023.0104
  21512207.414     4118741.482 8   3202706.93347  21512207.159    21512217.4104
  20930647.507    -4213421.387 9  -3272951.03647  20930647.145    20930656.8624
  24357473.135     6312876.360 7   4906355.04345  24357472.732    24357488.5214
  21898505.003      318103.341 8    250418.43447  21898504.510    21898515.5054
  23582949.063    -6833917.715 8  -5305824.31945  23582948.444    23582963.4964
  24065041.023    -1852418.519 7  -1432656.39145  24065040.169    24065055.8954
  21020054.922    -4966423.781 9  -3662761.76847  21020055.079    21020063.3774
 00  1 22 18 30  0.0000000  0  9 19 02 18 27 01 31 08 10 13
  20610661.967    -1018920.583 9   -789790.27748  20610661.726    20610671.4034
  22303364.776    -5358280.929 8  -4160033.28847  22303364.142    22303375.5244
  21528689.896     4205356.926 8   3270199.35747  21528689.598    21528699.9084
  20923129.762    -4252927.526 9  -3303735.04147  20923129.389    20923139.0984
  24378008.048     6420787.594 7   4990441.38745  24378007.776    24378023.6224
  21906203.151      358556.785 8    281940.47047  21906202.631    21906213.5934
  23567334.449    -6915973.290 8  -5369763.67845  23567333.844    23567348.7684
  24066374.642    -1845410.321 7  -1427195.54345  24066373.886    24066389.5574
  21012710.005    -5005021.623 9  -3692838.00847  21012710.173    21012718.4974
 00  1 22 18 30 30.0000000  0  9 19 02 18 27 01 31 08 10 13
  20612296.387    -1010331.809 9   -783097.77448  20612296.144    20612305.8374
  22293768.550    -5408709.113 8  -4199327.93147  22293767.916    22293779.3194
  21545251.266     4292387.492 8   3338015.25347  21545251.023    21545261.3574
  20915644.488    -4292262.741 9  -3334385.85147  20915644.131    20915653.8374
  24398564.707     6528812.930 7   5074616.65045  24398564.435    24398580.4884
  21914015.927      399612.653 8    313931.93347  21914015.403    21914026.3204
  23551724.596    -6998003.749 8  -5433683.49145  23551723.991    23551738.8914
  24067801.798    -1837910.585 7  -1421351.67045  24067801.038    24067816.8384
  21005466.266    -5043087.531 9  -3722499.75247  21005466.458    21005474.8034
 00  1 22 18 31  0.0000000  0  9 19 02 18 27 01 31 08 10 13
  20613982.328    -1001472.484 9   -776194.45348  20613982.077    20613991.8004
  22284225.008    -5458860.550 8  -4238406.92847  22284224.353    22284235.8334
  21561892.330     4379836.312 8   3406157.06147  21561892.082    21561902.4384
  20908192.296    -4331424.353 9  -3364901.38847  20908191.940    20908201.6024
  24419142.620     6636949.787 7   5158878.79945  24419142.409    24419158.4994
  21921943.376      441270.907 8    346392.78547  21921942.815    21921953.7944
  23536119.421    -7080009.168 8  -5497583.78145  23536118.854    23536133.7884
  24069322.111    -1829921.793 7  -1415126.70845  24069321.256    24069337.0334
  20998322.642    -5080627.355 9  -3751751.56747  20998322.824    20998331.1984
 00  1 22 18 31 30.0000000  0  9 19 02 18 27 01 31 08 10 13
  20615719.767     -992342.438 9   -769080.18148  20615719.504    20615729.2514
  22274734.322    -5508734.035 8  -4277269.34647  22274733.683    22274745.1934
  21578613.446     4467705.542 8   3474626.45747  21578613.157    21578623.5334
  20900773.717    -4370409.493 9  -3395279.41347  20900773.366    20900783.0184
  24439740.741     6745192.809 7   5243223.66545  24439740.549    24439756.6824
  21929984.534      483527.302 8    379319.71647  21929984.018    21929995.0744
  23520521.079    -7161979.175 8  -5561456.47645  23520520.473    23520535.3524
  24070937.693    -1821432.468 7  -1408511.73045  24070936.857    24070952.5214
  20991276.498    -5117655.160 9  -3780604.41447  20991276.692    20991285.0124
 00  1 22 18 32  0.0000000  0  9 19 02 18 27 01 31 08 10 13
  20617505.912     -982956.193 9   -761766.26448  20617505.668    20617515.4274
  22265294.131    -5558342.595 8  -4315925.32347  22265293.458    22265304.9924
  21595408.979     4555966.167 8   3543400.83847  21595408.690    21595419.1084
  20893388.367    -4409219.655 9  -3425521.07947  20893388.019    20893397.7144
  24460363.047     6853562.628 7   5327667.33145  24460362.773    24460379.1564
  21938138.818      526377.948 8    412709.70347  21938138.313    21938149.4584
  23504928.388    -7243919.446 8  -5625305.99245  23504927.817    23504942.5984
  24072646.275    -1812454.839 7  -1401516.24345  24072645.394    24072661.0384
  20984321.946    -5154201.469 9  -3809082.05547  20984322.146    20984330.4694
 00  1 22 18 32 30.0000000  0  9 19 02 18 27 01 31 08 10 13
  20619339.201     -973322.578 9   -754259.60348  20619338.948    20619348.7354
  22255901.644    -5607700.192 8  -4354385.75047  22255900.971    22255912.4934
  21612270.808     4644575.122 8   3612446.64047  21612270.546    21612280.9684
  20886037.266    -4447849.868 9  -3455622.54247  20886036.918    20886046.6124
  24481009.484     6962059.002 7   5412209.59245  24481009.100    24481025.6904
  21946403.047      569806.422 8    446549.94947  21946402.561    21946413.7684
  23489338.396    -7325845.136 8  -5689144.16245  23489337.860    23489352.5684
  24074445.174    -1803001.674 7  -1394150.21845  24074444.319    24074460.0344
  20977457.549    -5190274.276 9  -3837190.74047  20977457.748    20977466.0574
 00  1 22 18 33  0.0000000  0  9 19 02 18 27 01 31 08 10 13
  20621220.190     -963438.054 9   -746557.41748  20621219.956    20621229.7484
  22246557.469    -5656804.001 8  -4392648.41947  22246556.799    22246568.2954
  21629195.437     4733513.631 8   3681749.23847  21629195.149    21629205.5644
  20878720.909    -4486297.338 9  -3485581.60247  20878720.563    20878730.2694
  24501674.016     7070650.628 7   5496826.06045  24501673.644    24501690.3874
  21954775.414      613802.466 8    480832.47547  21954774.875    21954786.1074
  23473751.468    -7407754.673 8  -5752969.74545  23473750.920    23473765.7054
  24076336.246    -1793063.700 7  -1386406.42245  24076335.240    24076351.1964
  20970685.015    -5225864.352 9  -3864923.26647  20970685.207    20970693.4814
 00  1 22 18 33 30.0000000  0  9 19 02 18 27 01 31 08 10 13
  20623148.575     -953304.586 9   -738661.25348  20623148.322    20623158.1064
  22237259.306    -5705666.127 8  -4430722.76447  22237258.616    22237270.1094
  21646183.104     4822783.588 8   3751310.10947  21646182.809    21646193.2284
  20871441.060    -4524553.142 9  -3515391.32347  20871440.722    20871450.4574
  24522354.614     7179326.365 7   5581508.06645  24522354.217    24522371.0554
  21963256.388      658370.014 8    515560.31247  21963255.844    21963267.1554
  23458167.598    -7489648.446 8  -5816783.05745  23458167.059    23458181.7774
  24078321.900    -1782629.465 7  -1378275.93045  24078320.895    24078336.9404
  20964004.083    -5260972.943 9  -3892280.60647  20964004.272    20964012.5574
 00  1 22 18 34  0.0000000  0  9 19 02 18 27 01 31 08 10 13
  20625127.431     -942905.814 9   -730558.36148  20625127.192    20625136.9744
  22228003.536    -5754305.002 8  -4468623.15447  22228002.884    22228014.3614
  21663232.860     4912380.111 8   3821125.44147  21663232.556    21663243.0024
  20864199.524    -4562607.611 9  -3545044.15447  20864199.175    20864208.9484
  24543052.005     7288090.168 7   5666258.66745  24543051.628    24543068.5184
  21971844.646      703501.407 8    550727.50747  21971844.138    21971855.5274
  23442584.728    -7571537.003 8  -5880592.31045  23442584.237    23442598.8944
  24080402.155    -1771697.782 7  -1369757.82645  24080401.255    24080417.2704
  20957418.458    -5295580.640 9  -3919247.64047  20957418.651    20957426.9244
 00  1 22 18 34 30.0000000  0  9 19 02 18 27 01 31 08 10 13
  20627159.644     -932226.554 9   -722236.90148  20627159.414    20627169.1934
  22218790.085    -5802722.271 8  -4506350.86547  22218789.392    22218800.8554
  21680351.104     5002336.561 8   3891221.23447  21680350.785    21680361.3014
  20856995.637    -4600464.282 9  -3574542.85847  20856995.302    20857005.1104
  24563765.657     7396939.119 7   5751075.60545  24563765.258    24563782.2404
  21980538.902      749189.691 8    586328.64747  21980538.439    21980549.8504
  23427005.746    -7653405.451 8  -5944385.87845  23427005.232    23427019.7594
  24082580.624    -1760249.889 7  -1360837.45545  24082579.747    24082595.8034
  20950933.092    -5329661.491 9  -3945804.14347  20950933.281    20950941.5254
 00  1 22 18 35  0.0000000  0  9 19 02 18 27 01 31 08 10 13
  20629244.714     -921269.723 9   -713699.15747  20629244.481    20629254.2384
  22209620.532    -5850908.419 8  -4543898.48347  22209619.830    22209631.2924
  21697542.057     5092675.424 8   3961615.01047  21697541.744    21697552.3504
  20849827.581    -4638132.793 9  -3603894.95647  20849827.235    20849837.0394
  24584497.371     7505883.067 7   5835966.56145  24584496.976    24584513.8734
  21989340.068      795439.727 8    622367.51947  21989339.587    21989351.0374
  23411432.693    -7735242.175 8  -6008154.73645  23411432.233    23411446.7744
  24084857.726    -1748283.664 7  -1351513.21145  24084856.891    24084872.8744
  20944548.075    -5363215.003 9  -3971949.73447  20944548.261    20944556.5354
 00  1 22 18 35 30.0000000  0  8 19 02 18 27 31 08 10 13
  20631381.433     -910041.336 9   -704949.80647  20631381.192    20631390.9464
  22200490.290    -5898888.089 8  -4581285.20847  22200489.591    22200501.0104
  21714802.160     5183377.419 8   4032291.75147  21714801.855    21714812.5194
  20842690.792    -4675636.847 9  -3633118.90847  20842690.446    20842700.2334
  21998244.024      842229.998 8    658827.35447  21998243.563    21998255.0964
  23395859.526    -7817079.485 8  -6071924.04345  23395859.044    23395873.7394
  24087225.644    -1735841.012 7  -1341817.72945  24087224.781    24087240.8604
  20938259.897    -5396259.783 9  -3997698.91047  20938260.084    20938268.3774
 00  1 22 18 36  0.0000000  0  8 19 02 18 27 31 08 10 13
  20633577.440     -898501.229 9   -695957.55847  20633577.202    20633586.9914
  22191408.042    -5946615.665 8  -4618475.50847  22191407.358    22191418.7244
  21732135.755     5274465.477 8   4103269.31647  21732135.465    21732146.1534
  20835588.433    -4712960.060 9  -3662201.95847  20835588.102    20835597.8354
  22007256.071      889587.963 8    695729.55647  22007255.614    22007267.1654
  23380292.159    -7898886.395 8  -6135669.65845  23380291.711    23380306.3894
  24089688.296    -1722900.810 7  -1331734.55845  24089687.416    24089703.4614
  20932077.843    -5428746.609 9  -4023013.31947  20932078.034    20932086.3584
 00  1 22 18 36 30.0000000  0  8 19 02 18 27 31 08 10 13
  20635829.179     -886668.408 9   -686737.21247  20635828.943    20635838.7654
  22182377.554    -5994071.250 9  -4655453.86247  22182376.870    22182388.1954
  21749540.028     5365924.835 8   4174536.20947  21749539.756    21749550.4624
  20828519.245    -4750109.003 9  -3691149.20647  20828518.916    20828528.6044
  22016379.357      937530.740 8    733087.44847  22016378.878    22016390.4664
  23364730.419    -7980664.070 8  -6199392.47045  23364729.894    23364744.6024
  24092243.513    -1709473.704 8  -1321271.98145  24092242.597    24092258.7914
  20925998.762    -5460692.504 9  -4047906.22147  20925998.952    20926007.2824
 00  1 22 18 37  0.0000000  0  8 19 02 18 27 31 08 10 13
  20638135.225     -874550.144 9   -677294.44647  20638134.986    20638144.8304
  22173398.777    -6041254.742 8  -4692220.19847  22173398.106    22173409.4094
  21767009.818     5457728.322 8   4246071.26047  21767009.533    21767020.2574
  20821483.119    -4787084.269 9  -3719961.12547  20821482.767    20821492.4664
  22025614.363      986060.917 8    770903.04046  22025613.915    22025625.5964
  23349170.277    -8062432.898 8  -6263108.39845  23349169.686    23349184.5634
  24094889.048    -1695571.776 7  -1310439.40045  24094888.116    24094904.4374
  20920021.080    -5492105.265 9  -4072383.69547  20920021.261    20920029.5954
 00  1 22 18 37 30.0000000  0  8 19 02 18 27 31 08 10 13
  20640495.070     -862149.260 9   -667631.45347  20640494.833    20640504.6974
  22164471.383    -6088168.617 9  -4728776.44647  22164470.726    22164481.9904
  21784543.517     5549867.741 8   4317868.07747  21784543.195    21784553.9614
  20814481.939    -4823875.791 9  -3748629.86047  20814481.604    20814491.2964
  22034961.899     1035182.023 8    809179.09346  22034961.443    22034973.1424
  23333609.142    -8144206.918 8  -6326828.35645  23333608.610    23333623.4974
  24097626.919    -1681184.092 7  -1299228.30945  24097626.010    24097642.3964
  20914145.607    -5522981.030 9  -4096442.72947  20914145.788    20914154.1764
 00  1 22 18 38  0.0000000  0  8 19 02 18 27 31 08 10 13
  20642905.631     -849482.100 9   -657760.97247  20642905.374    20642915.2274
  22155592.968    -6134825.346 9  -4765132.32147  22155592.273    22155603.4984
  21802140.376     5642339.685 8   4389924.00547  21802140.072    21802150.8724
  20807517.134    -4860476.344 9  -3777149.79147  20807516.796    20807526.4684
  22044421.233     1084890.515 8    847912.84846  22044420.735    22044432.4134
  23318047.702    -8225982.770 8  -6390549.74245  23318047.102    23318062.0764
  24100461.795    -1666287.086 7  -1287620.35845  24100460.968    24100477.2874
  20908370.372    -5553330.091 9  -4120091.34347  20908370.546    20908378.9714
 00  1 22 18 38 30.0000000  0  8 19 02 18 27 31 08 10 13
  20645363.544     -836565.804 9   -647696.37047  20645363.292    20645373.1434
  22146759.346    -6181246.279 9  -4801304.45847  22146758.688    22146769.8724
  21819799.797     5735140.169 8   4462235.93947  21819799.517    21819810.3404
  20800589.966    -4896878.957 9  -3805515.48547  20800589.641    20800599.2994
  22053989.879     1135173.485 8    887094.22546  22053989.371    22054001.1044
  23302485.554    -8307761.961 8  -6454273.72645  23302484.956    23302499.9914
  24103390.938    -1650894.817 7  -1275626.49045  24103390.150    24103406.3904
  20902690.863    -5583176.036 9  -4143347.92848  20902691.038    20902699.4544
 00  1 22 18 39  0.0000000  0  8 19 02 18 27 31 08 10 13
  20647869.005     -823399.775 9   -637437.16647  20647868.758    20647878.6344
  22137967.591    -6227447.448 9  -4837305.35147  22137966.885    22137978.0554
  21837521.284     5828266.685 8   4534801.92347  21837520.999    21837531.8484
  20793699.399    -4933089.353 9  -3833731.39948  20793699.052    20793708.6864
  22063664.114     1186010.662 8    926707.47046  22063663.553    22063675.2614
  23286923.485    -8389541.003 8  -6517997.59346  23286922.889    23286937.8174
  24106413.720    -1635010.447 7  -1263249.14445  24106412.938    24106428.9364
  20897107.116    -5612518.974 9  -4166212.55948  20897107.284    20897115.6954
 00  1 22 18 39 30.0000000  0  8 19 02 18 27 31 08 10 13
  20650420.631     -809990.807 9   -626988.65347  20650420.401    20650430.3164
  22129215.999    -6273437.180 9  -4873141.49147  22129215.323    22129226.4404
  21855305.807     5921724.418 8   4607626.00347  21855305.497    21855316.3534
  20786846.038    -4969104.158 9  -3861794.89948  20786845.686    20786855.3154
  22073441.897     1237392.948 8    966745.46846  22073441.354    22073453.1054
  23271363.150    -8471311.257 8  -6581714.61746  23271362.521    23271377.4564
  24109526.233    -1618654.532 7  -1250504.37245  24109525.513    24109541.4524
  20891616.883    -5641370.451 9  -4188694.22648  20891617.044    20891625.4614
 00  1 22 18 40  0.0000000  0  8 19 02 18 27 31 08 10 13
  20653020.523     -796328.757 9   -616342.94047  20653020.272    20653030.1874
  22120504.610    -6319215.702 9  -4908813.05447  22120503.934    22120515.0364
  21873152.869     6015510.868 8   4680706.22347  21873152.571    21873163.4224
  20780029.319    -5004926.433 9  -3889708.37648  20780028.965    20780038.5914
  22083322.140     1289313.778 8   1007203.09546  22083321.664    22083333.4654
  23255807.109    -8553058.670 8  -6645413.82046  23255806.461    23255821.4634
  24112723.060    -1601855.657 7  -1237414.44445  24112722.329    24112738.0724
  20886220.465    -5669729.008 9  -4210791.80548  20886220.620    20886229.0284
 00  1 22 18 40 30.0000000  0  8 19 02 18 27 31 08 10 13
  20655669.795     -782406.691 9   -605494.61147  20655669.547    20655679.4914
  22111837.094    -6364763.491 9  -4944304.82847  22111836.414    22111847.5544
  21891062.164     6109624.239 8   4754041.18647  21891061.873    21891072.7154
  20773249.015    -5040557.125 9  -3917472.56948  20773248.679    20773258.3544
  22093305.378     1341775.613 8   1048082.27246  22093304.903    22093316.7954
  23240255.497    -8634782.557 8  -6709094.69846  23240254.876    23240269.9554
  24115999.732    -1584636.384 7  -1223996.91745  24115998.912    24116014.9444
  20880921.557    -5697574.865 9  -4232489.88048  20880921.719    20880930.1594
 00  1 22 18 41  0.0000000  0  8 19 02 18 27 31 08 10 13
  20658373.236     -768200.303 9   -594424.73347  20658372.996    20658382.9304
  22103216.081    -6410067.024 9  -4979606.27047  22103215.403    22103226.5384
  21909035.861     6204076.156 8   4827639.95347  21909035.610    21909046.4494
  20766505.832    -5075992.740 9  -3945084.74648  20766505.497    20766515.2034
  22103391.871     1394779.987 8   1089384.21046  22103391.371    22103403.3134
  23224708.497    -8716481.970 8  -6772756.51246  23224707.939    23224722.9744
  24119358.710    -1566985.165 7  -1210242.83145  24119357.945    24119373.9174
  20875725.772    -5724878.851 9  -4253765.72348  20875725.966    20875734.4254
 00  1 22 18 41 30.0000000  0  8 19 02 18 27 31 08 10 13
  20661133.465     -753695.488 9   -583122.31647  20661133.205    20661143.1614
  22094644.228    -6455112.290 9  -5014706.46547  22094643.537    22094654.6894
  21927077.025     6298882.002 8   4901514.50447  21927076.730    21927087.5354
  20759803.284    -5111214.923 9  -3972530.61048  20759802.947    20759812.7044
  22113581.721     1448327.577 8   1131109.44246  22113581.216    22113593.2604
  23209168.122    -8798147.076 8  -6836391.60446  23209167.568    23209182.5464
  24122801.705    -1548893.620 7  -1196145.62645  24122800.971    24122816.7274
  20870636.168    -5751624.935 9  -4274606.84048  20870636.349    20870644.7904
 00  1 22 18 42  0.0000000  0  9 19 02 18 27 31 08 10 07 13
  20663952.981     -738878.795 9   -571576.87847  20663952.743    20663962.7154
  22086125.654    -6499877.782 9  -5049588.66147  22086124.964    22086136.1504
  21945185.383     6394041.130 8   4975664.33447  21945185.074    21945195.8494
  20753143.228    -5146213.637 9  -3999802.34148  20753142.908    20753152.7004
  22123877.675     1502432.809 8   1173269.19446  22123877.178    22123889.3164
  23193636.496    -8879766.343 8  -6899990.98646  23193635.880    23193650.8284
  24126334.683    -1530328.315 7  -1181679.25145  24126333.946    24126349.6304
  24561195.072    -4570572.173 7  -2944451.46845  24561194.270    24561214.5834
  20865657.368    -5777788.789 9  -4294994.27648  20865657.556    20865665.9694
 00  1 22 18 42 30.0000000  0  9 19 02 18 27 31 08 10 07 13
  20666833.804     -723740.350 9   -559780.72647  20666833.549    20666843.5164
  22077663.578    -6544346.010 9  -5084239.21447  22077662.892    22077674.1684
  21963362.117     6489559.931 8   5050094.43447  21963361.811    21963372.6474
  20746527.262    -5180981.064 9  -4026893.84548  20746526.928    20746536.7374
  22134280.017     1557097.096 8   1215864.56946  22134279.547    22134291.7864
  23178115.696    -8961328.682 8  -6963545.99346  23178115.105    23178129.9664
  24129964.382    -1511253.975 7  -1166816.22745  24129963.653    24129979.4004
  24541008.554    -4676650.776 7  -3027109.72345  24541007.835    24541028.0834
  20860792.122    -5803355.849 9  -4314916.67848  20860792.294    20860800.6904
 00  1 22 18 43  0.0000000  0  9 19 02 18 27 31 08 10 07 13
  20669770.998     -708305.194 9   -547753.36847  20669770.735    20669780.7174
  22069253.024    -6588543.412 9  -5118678.73247  22069252.355    22069263.7034
  21981601.629     6585409.137 8   5124781.99547  21981601.364    21981612.2404
  20739950.621    -5215541.652 9  -4053824.17848  20739950.271    20739960.0854
  22144784.364     1612297.145 8   1258877.42846  22144783.895    22144796.1564
  23162601.090    -9042858.394 8  -7027075.59346  23162600.485    23162615.2754
  24133690.709    -1491672.346 7  -1151557.94045  24133689.954    24133705.8164
  24520832.831    -4782672.947 7  -3109724.02345  24520832.222    24520852.2004
  20856033.895    -5828360.299 9  -4334400.68048  20856034.088    20856042.4934
 00  1 22 18 43 30.0000000  0  9 19 02 18 27 31 08 10 07 13
  20672760.068     -692597.880 9   -535513.93247  20672759.826    20672769.7724
  22060892.134    -6632480.161 9  -5152915.14947  22060891.463    22060902.8034
  21999900.425     6681569.469 8   5199711.99147  21999900.176    21999911.1084
  20733412.481    -5249899.954 9  -4080596.88348  20733412.137    20733421.9354
  22155392.376     1668041.755 8   1302314.61446  22155391.911    22155404.1824
  23147092.074    -9124358.755 8  -7090582.32046  23147091.402    23147106.2584
  24137511.616    -1471593.244 7  -1135911.99445  24137510.929    24137526.8824
  24500665.396    -4888651.374 7  -3192304.26445  24500664.844    24500684.6934
  20851379.989    -5852816.992 9  -4353457.86148  20851380.150    20851388.5624
 00  1 22 18 44  0.0000000  0  9 19 02 18 27 31 08 10 07 13
  20675799.453     -676626.111 9   -523068.43247  20675799.182    20675809.1294
  22052578.181    -6676170.392 9  -5186959.47647  22052577.538    22052588.7794
  22018254.301     6778019.321 8   5274867.58747  22018254.040    22018265.0434
  20726910.193    -5284069.729 9  -4107222.69148  20726909.849    20726919.6404
  22166105.135     1724336.865 8   1346180.76746  22166104.665    22166116.9364
  23131584.939    -9205849.069 8  -7154081.21346  23131584.328    23131599.1844
  24141424.932    -1451028.665 7  -1119887.76945  24141424.200    24141440.3014
  24480504.240    -4994597.377 7  -3274859.23545  24480503.630    24480523.3714
  20846829.518    -5876729.819 9  -4372091.25348  20846829.700    20846838.0824
 00  1 22 18 44 30.0000000  0  9 19 02 18 27 31 08 10 07 13
  20678889.825     -660386.056 9   -510413.88247  20678889.583    20678899.5224
  22044308.305    -6719629.321 9  -5220823.56947  22044307.604    22044318.7904
  22036663.684     6874760.861 8   5350250.47147  22036663.415    22036674.4584
  20720443.359    -5318053.097 9  -4133703.24948  20720443.036    20720452.8224
  22176921.213     1781175.109 8   1390470.14346  22176920.767    22176933.0684
  23116078.532    -9287335.607 8  -7217577.18246  23116077.932    23116092.7644
  24145427.755    -1429994.747 8  -1103497.85145  24145426.888    24145443.0264
  24460343.921    -5100538.953 7  -3357410.75445  24460343.397    24460362.9194
  20842383.831    -5900092.230 9  -4390295.75348  20842384.008    20842392.4044
 00  1 22 18 45  0.0000000  0  9 19 02 18 27 31 08 10 07 13
  20682031.684     -643875.848 9   -497548.82747  20682031.437    20682041.3544
  22036079.633    -6762870.779 9  -5254518.20547  22036078.970    22036090.1314
  22055131.326     6971808.736 8   5425872.06047  22055131.100    22055142.1684
  20714014.739    -5351835.797 9  -4160027.44148  20714014.416    20714024.2344
  22187842.973     1838568.654 8   1435192.22446  22187842.536    22187854.8354
  23100574.185    -9368811.490 8  -7281064.84946  23100573.606    23100588.4164
  24149517.090    -1408505.579 8  -1086753.16045  24149516.297    24149532.4984
  24440181.837    -5206490.322 7  -3439969.89145  24440181.266    24440200.7584
  20838045.056    -5922892.612 9  -4408062.30748  20838045.251    20838053.6474
 00  1 22 18 45 30.0000000  0  9 19 02 18 27 31 08 10 07 13
  20685227.278     -627083.110 9   -484463.62447  20685227.025    20685236.9244
  22027892.310    -6805895.282 9  -5288043.78047  22027891.648    22027902.8394
  22073659.555     7069174.608 8   5501741.43947  22073659.353    22073670.4314
  20707625.702    -5385410.448 9  -4186189.51548  20707625.370    20707635.1874
  22198869.975     1896514.901 8   1480344.99846  22198869.472    22198881.7544
  23085073.965    -9450265.614 8  -7344535.54646  23085073.356    23085088.1334
  24153690.667    -1386573.974 8  -1069663.71845  24153689.958    24153705.8964
  24420016.856    -5312456.052 7  -3522540.19745  24420016.196    24420035.6734
  20833813.015    -5945132.372 9  -4425392.01748  20833813.211    20833821.5674
 00  1 22 18 46  0.0000000  0  9 19 02 18 27 31 08 10 07 13
  20688480.350     -609988.262 9   -471143.01947  20688480.113    20688490.0234
  22019749.013    -6848688.626 9  -5321389.23147  22019748.336    22019759.5654
  22092248.150     7166857.361 8   5577857.73147  22092247.935    22092259.0134
  20701277.660    -5418769.589 9  -4212183.65548  20701277.344    20701287.1604
  22209999.989     1955002.559 8   1525919.65446  22209999.477    22210011.7584
  23069578.640    -9531693.572 8  -7407985.85046  23069578.073    23069592.8564
  24157951.143    -1364185.610 8  -1052218.36045  24157950.469    24157966.5024
  24399848.392    -5418440.550 7  -3605125.09545  24399847.638    24399867.0514
  20829687.910    -5966810.082 9  -4442283.76448  20829688.097    20829696.4414
 00  1 22 18 46 30.0000000  0  9 19 02 18 27 31 08 10 07 13
  20691792.206     -592584.422 9   -457581.63747  20691791.970    20691801.8944
  22011651.334    -6891242.266 9  -5354547.90447  22011650.681    22011661.9164
  22110899.344     7264869.086 8   5654230.36447  22110899.083    22110910.2084
  20694973.364    -5451898.680 9  -4237998.53348  20694973.058    20694982.8754
  22221231.081     2014021.695 8   1571908.44546  22221230.552    22221242.8194
  23054091.232    -9613080.314 8  -7471404.04946  23054090.645    23054105.4064
  24162301.177    -1341326.238 7  -1034405.97045  24162300.478    24162316.6634
  24379676.780    -5524441.552 7  -3687722.85545  24379675.992    24379695.2384
  20825668.512    -5987932.135 9  -4458742.53248  20825668.709    20825677.0754
 00  1 22 18 47  0.0000000  0  9 19 02 18 27 31 08 10 07 13
  20695162.770     -574872.015 9   -443779.81647  20695162.537    20695172.5014
  22003600.210    -6933551.422 9  -5387516.06447  22003599.535    22003610.7994
  22129610.489     7363196.044 8   5730848.63247  22129610.229    22129621.3984
  20688712.776    -5484798.473 9  -4263634.73548  20688712.452    20688722.2704
  22232563.550     2073573.827 8   1618312.55046  22232563.017    22232575.3344
  23038611.713    -9694425.936 8  -7534790.19746  23038611.141    23038625.8244
  24166741.019    -1317995.081 8  -1016225.96745  24166740.354    24166756.5754
  24359506.908    -5630433.020 7  -3770313.14345  24359506.205    24359525.3104
  20821748.761    -6008530.798 9  -4474793.46348  20821748.953    20821757.3474
 00  1 22 18 47 30.0000000  0  9 19 02 18 27 31 08 10 07 13
  20698591.170     -556855.828 9   -429741.28647  20698590.924    20698600.9344
  21995595.832    -6975614.750 9  -5420292.67447  21995595.126    21995606.4294
  22148375.860     7461808.412 8   5807689.29547  22148375.618    22148386.8664
  20682491.635    -5517490.829 9  -4289109.29448  20682491.299    20682501.1354
  22243995.607     2133649.207 8   1665124.38746  22243995.102    22244007.4054
  23023136.308    -9775749.547 8  -7598159.18946  23023135.775    23023150.3044
  24171269.786    -1294196.982 8   -997682.12045  24171269.178    24171285.3794
  24339340.420    -5736407.251 7  -3852890.00745  24339339.766    24339358.6674
  20817924.572    -6028627.158 9  -4490452.98748  20817924.760    20817933.1694
 00  1 22 18 48  0.0000000  0  9 19 02 18 27 31 08 10 07 13
  20702074.207     -538552.291 9   -415478.84547  20702073.982    20702084.0544
  21987635.839    -7017444.331 9  -5452887.14147  21987635.157    21987646.5304
  22167191.677     7560685.646 8   5884736.35547  22167191.423    22167202.7584
  20676309.277    -5549979.498 9  -4314425.13848  20676308.919    20676318.7434
  22255526.458     2194243.370 8   1712340.47446  22255525.930    22255538.2644
  23007662.623    -9857064.056 8  -7661521.08546  23007662.097    23007676.7034
  24175885.835    -1269940.093 8   -978780.76745  24175885.193    24175901.4514
  24319178.367    -5842357.759 7  -3935448.38645  24319177.645    24319196.6164
  20814198.788    -6048206.605 9  -4505709.71948  20814198.970    20814207.3524
 00  1 22 18 48 30.0000000  0  9 19 02 18 27 31 08 10 07 13
  20705609.843     -519972.308 9   -401000.99647  20705609.615    20705619.7554
  21979717.872    -7059053.285 9  -5485309.69147  21979717.208    21979728.6324
  22186058.658     7659832.270 8   5961993.32347  22186058.391    22186069.7794
  20670164.619    -5582269.769 9  -4339586.38748  20670164.283    20670174.1104
  22267155.880     2255355.339 8   1759960.05246  22267155.369    22267167.6394
  22992191.814    -9938362.902 8  -7724870.76246  22992191.297    22992205.9394
  24180584.962    -1245246.762 8   -959539.34845  24180584.409    24180600.6224
  24299023.420    -5948271.070 7  -4017977.78845  24299022.727    24299041.4094
  20810571.955    -6067265.706 9  -4520560.98648  20810572.151    20810580.5484
 00  1 22 18 49  0.0000000  0  9 19 02 18 27 31 08 10 07 13
  20709195.790     -501128.365 9   -386317.45547  20709195.562    20709205.7084
  21971841.335    -7100444.738 9  -5517562.75547  21971840.681    21971852.0794
  22204975.622     7759241.271 8   6039454.74147  22204975.345    22204986.8104
  20664055.943    -5614371.100 9  -4364600.41248  20664055.612    20664065.4574
  22278883.723     2316984.839 8   1807982.89646  22278883.200    22278895.5924
  22976724.654   -10019642.895 8  -7788205.77446  22976724.135    22976738.7354
  24185364.083    -1220133.029 8   -939970.32445  24185363.491    24185379.5844
  24278876.681    -6054141.367 7  -4100473.67645  24278875.984    24278894.5274
  20807047.312    -6085787.981 9  -4534993.94448  20807047.520    20807055.8774
 00  1 22 18 49 30.0000000  0  9 19 02 18 27 31 08 10 07 13
  20712829.031     -482036.046 9   -371440.37847  20712828.787    20712838.9314
  21964007.534    -7141612.048 9  -5549641.16047  21964006.855    21964018.2234
  22223945.316     7858927.316 8   6117132.02447  22223945.023    22223956.5834
  20657986.821    -5646264.709 9  -4389452.57248  20657986.473    20657996.3514
  22290707.707     2379119.847 8   1856399.64146  22290707.224    22290719.6334
  22961261.944   -10100899.708 8  -7851522.72046  22961261.370    22961276.0064
  24190222.982    -1194600.137 8   -920074.70645  24190222.347    24190238.4134
  24258737.801    -6159970.164 7  -4182937.24945  24258737.186    24258755.6084
  20803630.619    -6103743.138 9  -4548984.99348  20803630.816    20803639.1114
 00  1 22 18 50  0.0000000  0  9 19 02 18 27 31 08 10 07 13
  20716509.329     -462696.247 9   -356370.45947  20716509.089    20716519.2684
  21956218.637    -7182542.941 9  -5581535.34247  21956217.967    21956229.2994
  22242971.379     7958909.579 8   6195040.13346  22242971.091    22242982.6934
  20651963.893    -5677915.341 9  -4414115.39748  20651963.543    20651973.4524
  22302626.970     2441755.595 8   1905206.57846  22302626.513    22302639.0174
  22945807.955   -10182110.557 8  -7914803.83346  22945807.408    22945822.1094
  24195161.834    -1168646.306 7   -899851.06245  24195161.079    24195177.4734
  24238608.728    -6265747.768 7  -4265360.95245  24238608.201    24238626.4214
  20800323.388    -6121122.980 9  -4562527.74348  20800323.596    20800331.8814
 00  1 22 18 50 30.0000000  0  9 19 02 18 27 31 08 10 07 13
  20720240.208     -443090.862 9   -341093.58447  20720239.976    20720250.1444
  21948477.696    -7223221.689 9  -5613233.04347  21948477.026    21948488.3334
  22262057.637     8059208.214 8   6273194.75646  22262057.398    22262069.0114
  20645988.690    -5709315.149 9  -4438582.77048  20645988.350    20645998.2694
  22314640.433     2504886.265 8   1954399.15546  22314639.956    22314652.5974
  22930364.973   -10263264.272 8  -7978040.44046  22930364.419    22930379.0914
  24200180.568    -1142272.629 8   -879300.27445  24200179.894    24200196.3204
  24218490.732    -6371467.221 7  -4347739.36745  24218490.209    24218508.1514
  20797124.058    -6137935.719 9  -4575628.59348  20797124.231    20797132.5184
 00  1 22 18 51  0.0000000  0  9 19 02 18 27 31 08 10 07 13
  20724023.786     -423208.340 9   -325600.77347  20724023.537    20724033.6894
  21940786.334    -7263639.952 9  -5644727.77547  21940785.680    21940796.9964
  22281203.298     8159818.741 8   6351592.41746  22281203.054    22281214.6754
  20640063.417    -5740452.675 9  -4462845.76948  20640063.102    20640072.9994
  22326747.428     2568507.977 8   2003974.36746  22326746.894    22326759.6114
  22914932.238   -10344364.305 8  -8041235.22346  22914931.653    22914946.2244
  24205281.049    -1115470.977 8   -858415.99545  24205280.223    24205296.6204
  24198385.263    -6477120.287 7  -4430066.08345  24198384.718    24198402.4874
  20794031.730    -6154185.900 9  -4588291.08248  20794031.921    20794040.2324
 00  1 22 18 51 30.0000000  0  9 19 02 18 27 31 08 10 07 13
  20727863.899     -403028.601 9   -309876.35247  20727863.649    20727873.7884
  21933145.385    -7303793.579 9  -5676016.29847  21933144.730    21933156.0384
  22300407.843     8260738.241 8   6430230.84246  22300407.579    22300419.1794
  20634190.493    -5771315.059 9  -4486894.36848  20634190.157    20634200.0564
  22338947.550     2632619.761 8   2053931.44746  22338946.989    22338959.7114
  22899509.032   -10425413.326 8  -8104390.25146  22899508.491    22899523.0844
  24210463.847    -1088235.971 7   -837194.03345  24210462.925    24210479.4454
  24178292.573    -6582706.584 7  -4512340.79245  24178292.017    24178309.6294
  20791045.025    -6169881.268 9  -4600521.24848  20791045.199    20791053.5804
 00  1 22 18 52  0.0000000  0  9 19 02 18 27 31 08 10 07 13
  20731767.181     -382517.085 9   -293893.39947  20731766.926    20731777.0324
  21925553.054    -7343691.660 9  -5707105.68947  21925552.386    21925563.6554
  22319667.845     8361949.663 8   6509096.73146  22319667.625    22319679.2004
  20628366.897    -5801918.117 9  -4510740.89748  20628366.579    20628376.4314
  22351242.562     2697230.147 8   2104277.05946  22351242.027    22351254.7814
  22884095.539   -10506411.559 8  -8167505.71246  22884094.990    22884109.5534
  24215729.814    -1060563.684 7   -815631.33245  24215728.919    24215745.3854
  24158211.913    -6688229.622 7  -4594566.22145  24158211.390    24158228.9454
  20788165.319    -6185014.166 9  -4612313.11848  20788165.493    20788173.9364
 00  1 22 18 52 30.0000000  0  9 19 02 18 27 31 08 10 07 13
  20735735.445     -361663.748 9   -277644.08747  20735735.179    20735745.3574
  21918006.764    -7383347.620 9  -5738006.41347  21918006.110    21918017.2964
  22338981.476     8463442.645 8   6588182.00346  22338981.255    22338992.8504
  20622589.662    -5832277.646 9  -4534397.66048  20622589.339    20622599.2144
  22363635.259     2762354.098 8   2155022.83946  22363634.758    22363647.5814
  22868689.789   -10587368.875 8  -8230589.28746  22868689.226    22868703.7874
  24221081.905    -1032438.748 7   -793715.92945  24221081.134    24221097.6164
  24138143.140    -6793690.156 7  -4676742.98645  24138142.653    24138159.9894
  20785394.369    -6199575.636 9  -4623659.71548  20785394.551    20785403.0134
 00  1 22 18 53  0.0000000  0  9 19 02 18 27 31 08 10 07 13
  20739764.405     -340491.236 9   -261146.07447  20739764.170    20739774.3894
  21910504.482    -7422772.387 9  -5768726.98647  21910503.814    21910514.9684
  22358343.983     8565192.789 8   6667467.66146  22358343.761    22358355.3874
  20616857.891    -5862398.240 9  -4557868.23548  20616857.566    20616867.4474
  22376128.339     2828005.266 8   2206179.42546  22376127.859    22376140.7044
  22853291.341   -10668287.394 8  -8293642.62246  22853290.816    22853305.4054
  24226522.235    -1003849.746 7   -771438.92845  24226521.349    24226538.1054
  24118084.488    -6899097.616 7  -4758878.40845  24118083.889    24118101.2944
  20782733.159    -6213560.389 9  -4634556.91948  20782733.343    20782741.7764
 00  1 22 18 53 30.0000000  0  9 19 02 18 27 31 08 10 07 13
  20743850.880     -319016.904 9   -244412.87447  20743850.641    20743860.8564
  21903045.307    -7461970.554 9  -5799270.99347  21903044.628    21903055.7564
  22377754.000     8667192.654 8   6746947.89346  22377753.773    22377765.4994
  20611167.773    -5892299.990 9  -4581168.28648  20611167.466    20611177.3224
  22388721.800     2894183.892 8   2257747.01246  22388721.300    22388734.2164
  22837899.465   -10749172.033 8  -8356669.56946  22837898.932    22837913.4764
  24232050.550     -974798.485 7   -748801.73045  24232049.591    24232066.4744
  24098033.709    -7004463.549 7  -4840981.49045  24098033.159    24098050.5274
  20780182.630    -6226963.669 9  -4645001.02448  20780182.819    20780191.2074
 00  1 22 18 54  0.0000000  0  9 19 02 18 27 31 08 10 07 13
  20747991.573     -297257.422 9   -227457.47447  20747991.344    20748001.5654
  21895628.726    -7500944.690 9  -5829640.42747  21895628.082    21895639.1764
  22397209.619     8769431.982 8   6826614.73246  22397209.365    22397221.1514
  20605515.884    -5922000.895 9  -4604311.82948  20605515.568    20605525.4054
  22401416.536     2960894.649 8   2309729.25846  22401416.052    22401428.9694
  22822513.917   -10830023.568 8  -8419670.70546  22822513.343    22822527.8794
  24237664.221     -945299.128 7   -725815.35045  24237663.274    24237680.1084
  24077991.080    -7109787.389 7  -4923051.78645  24077990.415    24078007.7904
  20777742.032    -6239788.994 9  -4654994.76748  20777742.198    20777750.5914
 00  1 22 18 54 30.0000000  0  9 19 02 18 27 31 08 10 07 13
  20752181.849     -275237.599 9   -210299.21047  20752181.614    20752191.8434
  21888256.506    -7539685.871 9  -5859828.33847  21888255.886    21888266.9634
  22416708.983     8871901.185 8   6906460.69446  22416708.705    22416720.5824
  20599901.944    -5951502.237 9  -4627299.86648  20599901.625    20599911.4664
  22414209.286     3028120.115 8   2362112.57546  22414208.766    22414221.6914
  22807135.688   -10910836.430 8  -8482641.69746  22807135.149    22807149.6484
  24243358.762     -915374.373 7   -702497.49345  24243357.802    24243374.7444
  24057956.329    -7215069.384 7  -5005089.47845  24057955.644    24057973.0434
  20775406.142    -6252064.122 9  -4664559.77948  20775406.316    20775414.7314
 00  1 22 18 55  0.0000000  0  9 19 02 18 27 31 08 10 07 13
  20756422.640     -252952.350 9   -192934.11947  20756422.408    20756432.6324
  21880930.978    -7578181.845 9  -5889825.18447  21880930.337    21880941.4314
  22436252.183     8974601.036 8   6986486.38546  22436251.976    22436263.9154
  20594326.075    -5980803.627 9  -4650132.10248  20594325.745    20594335.6044
  22427093.709     3095827.547 8   2414871.43946  22427093.216    22427106.2294
  22791766.360   -10991602.755 8  -8545576.41946  22791765.799    22791780.2474
  24249128.987     -885052.429 7   -678870.13045  24249128.098    24249144.9174
  24037929.972    -7320307.444 7  -5087092.94045  24037929.278    24037946.6274
  20773175.003    -6263788.685 9  -4673695.77648  20773175.170    20773183.6144
 00  1 22 18 55 30.0000000  0  9 19 02 18 27 31 08 10 07 13
  20760719.626     -230371.861 9   -175338.97247  20760719.403    20760729.6184
  21873652.175    -7616432.058 9  -5919630.52547  21873651.516    21873662.6424
  22455841.330     9077542.269 8   7066700.16946  22455841.114    22455853.1254
  20588790.227    -6009894.605 9  -4672800.38548  20588789.907    20588799.7684
  22440068.104     3164007.725 8   2467998.69546  22440067.614    22440080.6594
  22776405.912   -11072322.112 8  -8608474.52346  22776405.323    22776419.8004
  24254973.604     -854339.088 7   -654937.77445  24254972.672    24254989.5764
  24017913.703    -7425492.592 7  -5169055.17545  24017913.085    24017930.2524
  20771048.298    -6274964.589 9  -4682404.24948  20771048.482    20771056.8954
 00  1 22 18 56  0.0000000  0  9 19 02 18 27 31 08 10 07 13
  20765076.033     -207479.130 9   -157500.51047  20765075.797    20765086.0064
  21866419.060    -7654442.302 9  -5949248.88347  21866418.404    21866429.5634
  22475476.603     9180725.149 8   7147102.24746  22475476.321    22475488.3224
  20583299.659    -6038747.720 9  -4695283.32048  20583299.338    20583309.2274
  22453131.614     3232655.996 8   2521490.68046  22453131.140    22453144.1804
  22761055.026   -11152991.247 8  -8671333.49746  22761054.460    22761068.9704
  24260893.270     -823230.884 7   -630697.72945  24260892.463    24260909.2984
  23997909.348    -7530615.085 7  -5250968.58745  23997908.834    23997925.8374
  20769026.323    -6285589.963 9  -4690683.73548  20769026.492    20769034.9094
 00  1 22 18 56 30.0000000  0  9 19 02 18 27 31 08 10 07 13
  20769493.739     -184263.992 9   -139410.81847  20769493.489    20769503.7474
  21859230.328    -7692219.389 9  -5978685.56647  21859229.690    21859240.8834
  22495161.846     9284170.833 8   7227709.11246  22495161.534    22495173.5234
  20577858.559    -6067340.845 9  -4717563.66348  20577858.225    20577868.1234
  22466282.495     3301763.014 8   2575340.14246  22466281.976    22466294.9934
  22745713.068   -11233613.337 8  -8734155.80846  22745712.551    22745727.0614
  24266891.578     -791709.816 7   -606135.97145  24266890.821    24266907.7324
  23977919.066    -7635663.723 8  -5332824.45845  23977918.523    23977935.4754
  20767113.604    -6295641.332 9  -4698515.94148  20767113.796    20767122.1744
 00  1 22 18 57  0.0000000  0  9 19 02 18 27 31 08 10 07 13
  20773974.454     -160717.809 9   -121063.17547  20773974.217    20773984.5134
  21852082.326    -7729782.414 9  -6007955.44547  21852081.669    21852092.8764
  22514901.819     9387904.250 8   7308540.19346  22514901.498    22514913.4514
  20572468.309    -6095666.849 9  -4739635.85948  20572467.977    20572477.8664
  22479525.577     3371355.581 8   2629567.94546  22479525.078    22479538.1924
  22730377.743   -11314200.781 8  -8796951.12246  22730377.237    22730391.7364
  24272972.652     -759754.278 8   -581235.65745  24272971.961    24272988.8464
  23957944.942    -7740627.804 8  -5414614.43945  23957944.381    23957961.1484
  20765314.790    -6305094.444 9  -4705881.97348  20765314.972    20765323.3024
 00  1 22 18 57 30.0000000  0  9 19 02 18 27 31 08 10 07 13
  20778515.654     -136853.674 9   -102467.77847  20778515.413    20778525.7354
  21844972.633    -7767143.955 9  -6037068.33347  21844971.991    21844983.2344
  22534695.505     9491920.067 8   7389591.31646  22534695.205    22534707.1514
  20567128.092    -6123729.822 9  -4761503.10248  20567127.774    20567137.6164
  22492863.943     3441448.676 8   2684185.76246  22492863.454    22492876.6304
  22715047.758   -11394760.678 8  -8859724.96746  22715047.230    22715061.6774
  24279138.527     -727353.650 7   -555988.52545  24279137.753    24279154.6034
  23937987.717    -7845502.915 7  -5496335.10945  23937987.097    23938003.7664
  20763628.937    -6313953.420 9  -4712785.04448  20763629.119    20763637.4394
 00  1 22 18 58  0.0000000  0  9 19 02 18 27 31 08 10 07 13
  20783115.478     -112681.405 9    -83632.27947  20783115.249    20783125.5754
  21837902.101    -7804299.719 9  -6066020.87447  21837901.436    21837912.6694
  22554542.296     9596215.008 8   7470859.94546  22554541.995    22554553.9924
  20561835.441    -6151542.995 9  -4783175.70048  20561835.108    20561844.9114
  22506296.371     3512035.487 8   2739188.30046  22506295.865    22506309.0114
  22699722.773   -11475294.129 8  -8922478.21446  22699722.249    22699736.6004
  24285385.283     -694526.748 7   -530409.23145  24285384.548    24285401.5484
  23918046.900    -7950292.060 8  -5577988.78745  23918046.231    23918062.9744
  20762058.106    -6322208.137 9  -4719217.26948  20762058.286    20762066.6044
 00  1 22 18 58 30.0000000  0  9 19 02 18 27 31 08 10 07 13
  20787774.478      -88198.590 9    -64554.79347  20787774.233    20787784.5024
  21830870.546    -7841250.498 9  -6094813.69047  21830869.893    21830881.1504
  22574440.876     9700782.030 8   7552340.59046  22574440.590    22574452.6464
  20556587.908    -6179119.046 9  -4804663.52448  20556587.571    20556597.3654
  22519824.116     3583123.675 8   2794581.51046  22519823.610    22519836.7524
  22684404.185   -11555793.334 8  -8985204.76346  22684403.655    22684417.9904
  24291710.172     -661289.181 7   -504509.94145  24291709.479    24291726.5574
  23898122.840    -8054993.078 7  -5659573.80345  23898122.145    23898138.8994
  20760601.871    -6329860.739 9  -4725180.30948  20760602.054    20760610.3744
 00  1 22 18 59  0.0000000  0  9 19 02 18 27 31 08 10 07 13
  20792490.762      -63414.634 9    -45242.65347  20792490.518    20792500.7834
  21823880.635    -7877982.736 9  -6123436.21947  21823879.992    21823891.1704
  22594386.961     9805598.266 8   7634015.41346  22594386.631    22594398.7164
  20551383.331    -6206469.289 9  -4825975.39848  20551382.994    20551392.7764
  22533446.852     3654710.850 8   2850363.54146  22533446.349    22533459.5304
  22669094.344   -11636246.161 8  -9047895.17646  22669093.863    22669108.1144
  24298111.300     -627651.701 7   -478299.03745  24298110.588    24298127.7024
  23878214.277    -8159612.557 8  -5741095.28945  23878213.527    23878230.2234
  20759256.497    -6336930.558 9  -4730689.23848  20759256.706    20759265.0044
 00  1 22 18 59 30.0000000  0  9 19 02 18 27 31 08 10 07 13
  20797262.725      -38337.855 9    -25702.33847  20797262.495    20797272.7634
  21816935.902    -7914477.696 9  -6151873.85647  21816935.260    21816946.4204
  22614375.569     9910638.310 8   7715864.64146  22614375.233    22614387.3494
  20546221.407    -6233595.271 9  -4847112.52548  20546221.067    20546230.8094
  22547159.178     3726768.336 8   2906512.05346  22547158.646    22547171.8074
  22653795.373   -11716642.420 8  -9110541.49146  22653794.864    22653809.0854
  24304586.475     -593625.105 7   -451784.90645  24304585.635    24304602.8674
  23858320.038    -8264157.008 8  -5822558.33245  23858319.260    23858335.9254
  20758020.378    -6343426.382 9  -4735750.89848  20758020.581    20758028.8774
 00  1 22 19  0  0.0000000  0  9 19 02 18 27 31 08 10 07 13
  20802091.556      -12962.356 9     -5929.25247  20802091.332    20802101.5824
  21810039.664    -7950717.777 9  -6180112.89147  21810038.994    21810050.1854
  22634406.258    10015899.476 8   7797886.17946  22634405.946    22634418.0714
  20541103.930    -6260487.522 9  -4868067.52148  20541103.590    20541113.3894
  22560961.539     3799299.680 8   2963029.79646  22560960.991    22560974.2974
  22638506.234   -11796986.694 8  -9173147.29546  22638505.699    22638520.0164
  24311135.313     -559211.755 7   -424969.42545  24311134.472    24311151.6754
  23838440.930    -8368621.744 7  -5903959.25945  23838440.152    23838456.8014
  20756894.108    -6349345.143 9  -4740362.91048  20756894.301    20756902.5444
 00  1 22 19  0 30.0000000  0  9 19 02 18 27 31 08 10 07 13
  20806975.079       12700.406 9     14067.67447  20806974.821    20806985.0644
  21803191.870    -7986702.944 9  -6208153.29147  21803191.195    21803202.3954
  22654478.180    10121377.264 8   7880076.50746  22654477.861    22654490.0034
  20536034.492    -6287127.601 9  -4888826.03248  20536034.159    20536043.9744
  22574853.108     3872299.996 8   3019912.98246  22574852.585    22574865.9824
  22623228.211   -11877272.636 8  -9235707.66046  22623227.686    22623242.0634
  24317762.036     -524388.640 7   -397834.63545  24317761.204    24317778.4644
  23818577.955    -8473001.550 8  -5985294.02245  23818577.192    23818593.7894
  20755874.931    -6354700.804 9  -4744536.14548  20755875.117    20755883.3684
 00  1 22 19  1  0.0000000  0  9 19 02 18 27 31 08 10 07 13
  20811911.670       38642.379 9     34282.17547  20811911.423    20811921.6924
  21796393.757    -8022427.238 9  -6235990.41447  21796393.091    21796404.3234
  22674592.192    10227076.556 8   7962439.43146  22674591.876    22674604.0844
  20531013.808    -6313511.429 9  -4909384.86648  20531013.485    20531023.3204
  22588830.371     3945750.720 8   3077147.12946  22588829.869    22588843.3464
  22607960.673   -11957503.792 8  -9298225.34346  22607960.145    22607974.5274
  24324469.309     -489142.240 7   -370370.01945  24324468.471    24324485.7564
  23798730.738    -8577298.582 7  -6066564.30945  23798729.973    23798746.5414
  20754961.963    -6359498.474 9  -4748274.58248  20754962.169    20754970.4204
 00  1 22 19  1 30.0000000  0  9 19 02 18 27 31 08 10 07 13
  20816903.317       64873.416 9     54721.91847  20816903.078    20816913.3364
  21789641.121    -8057912.505 9  -6263641.27847  21789640.476    21789651.7084
  22694748.357    10332997.656 8   8044975.20446  22694748.083    22694760.3584
  20526044.561    -6339624.982 9  -4929733.10548  20526044.235    20526054.0824
  22602892.697     4019648.558 8   3134729.68046  22602892.213    22602905.8524
  22592701.227   -12037692.283 8  -9360709.78946  22592700.679    22592715.0424
  24331255.841     -453478.938 7   -342580.54145  24331255.002    24331272.3334
  23778900.147    -8681508.316 8  -6147766.58645  23778899.370    23778915.8914
  20754155.066    -6363738.792 9  -4751578.72648  20754155.267    20754163.4914
 00  1 22 19  2  0.0000000  0  9 19 02 18 27 31 08 10 07 13
  20821952.084       91404.698 9     75395.61447  20821951.823    20821962.1024
  21782930.380    -8093178.038 9  -6291120.91647  21782929.721    21782940.8914
  22714946.441    10439138.803 8   8127682.42846  22714946.160    22714958.5254
  20521130.917    -6365446.573 9  -4949853.84548  20521130.587    20521140.4104
  22617041.459     4094000.349 8   3192665.95446  22617041.008    22617054.7024
  22577450.855   -12117833.170 8  -9423157.14446  22577450.317    22577464.5644
  24338120.584     -417404.721 7   -314470.86545  24338119.811    24338137.1814
  23759087.610    -8785623.529 8  -6228895.21545  23759086.877    23759103.2764
  20753454.502    -6367420.320 9  -4754447.45748  20753454.712    20753462.9054
 00  1 22 19  2 30.0000000  0  9 19 02 18 27 31 08 10 07 13
  20827059.054      118241.973 9     96307.74747  20827058.787    20827069.1204
  21776258.897    -8128237.167 9  -6318439.71347  21776258.230    21776269.3454
  22735186.124    10545498.557 8   8210559.99646  22735185.868    22735198.3054
  20516274.000    -6390969.888 9  -4969742.16648  20516273.659    20516283.4914
  22631274.214     4168793.661 8   3250946.28046  22631273.804    22631287.5844
  22562212.471   -12197911.236 8  -9485555.53446  22562211.926    22562226.0594
  24345062.861     -380923.371 7   -286043.95645  24345062.034    24345079.4534
  23739293.942    -8889639.511 8  -6309946.54445  23739293.170    23739309.5164
  20752860.453    -6370542.163 9  -4756880.07348  20752860.654    20752868.8314
 00  1 22 19  3  0.0000000  0  9 19 02 18 27 31 08 10 07 13
  20832226.884      145398.966 9    117469.00547  20832226.639    20832237.0074
  21769626.364    -8163091.621 9  -6345599.01847  21769625.682    21769636.7574
  22755465.886    10652068.888 8   8293601.65646  22755465.619    22755478.1594
  20511472.766    -6416200.851 9  -4989402.68148  20511472.433    20511482.2274
  22645592.338     4244034.843 8   3309575.61146  22645591.903    22645605.7204
  22546985.096   -12277931.268 8  -9547908.70346  22546984.567    22546998.6544
  24352078.839     -344054.979 8   -257315.44345  24352078.047    24352095.3854
  23719522.689    -8993537.453 8  -6390905.90245  23719522.027    23719538.2684
  20752375.435    -6373091.018 9  -4758866.21148  20752375.629    20752383.7994
 00  1 22 19  3 30.0000000  0  9 19 02 18 27 31 08 10 07 13
  20837457.919      172888.247 9    138889.19647  20837457.688    20837468.0894
  21763033.308    -8197738.364 9  -6372596.47147  21763032.656    21763043.7344
  22775783.766    10758839.618 8   8376799.46946  22775783.503    22775796.1374
  20506726.410    -6441143.382 9  -5008838.44448  20506726.079    20506735.8554
  22659996.806     4319729.693 8   3368558.44346  22659996.331    22660010.2214
  22531770.435   -12357884.580 8  -9610209.87346  22531769.911    22531783.9124
  24359164.765     -306819.071 7   -228300.57745  24359163.921    24359181.3124
  23699775.807    -9097307.477 8  -6471765.59045  23699775.177    23699791.3384
  20752001.892    -6375053.996 9  -4760395.82648  20752002.078    20752010.2614
 00  1 22 19  4  0.0000000  0  9 19 02 18 27 31 08 10 07 13
  20842752.749      200712.948 9    160570.75047  20842752.513    20842762.9774
  21756484.337    -8232153.639 9  -6399413.55847  21756483.700    21756494.7574
  22796139.886    10865811.660 8   8460154.14846  22796139.681    22796152.3614
  20502031.702    -6465814.332 9  -5028062.58748  20502031.359    20502041.1484
  22674487.109     4395876.378 8   3427893.35446  22674486.639    22674500.5904
  22516571.926   -12437752.564 8  -9672444.55746  22516571.403    22516585.4124
  24366321.460     -269210.692 7   -198995.45945  24366320.637    24366338.1044
  23680054.509    -9200943.436 8  -6552520.80245  23680053.840    23680069.9714
  20751739.896    -6376430.750 9  -4761468.64748  20751740.089    20751748.2444
 00  1 22 19  4 30.0000000  0  9 19 02 18 27 31 08 10 07 13
  20848108.816      228859.150 9    182502.82747  20848108.585    20848119.0824
  21749981.317    -8266327.357 9  -6426042.41947  21749980.642    21749991.7374
  22816536.596    10972996.625 8   8543674.73646  22816536.390    22816549.1314
  20497382.997    -6490243.481 9  -5047098.31548  20497382.647    20497392.4274
  22689062.351     4472468.933 8   3487575.71446  22689061.839    22689075.7864
  22501388.930   -12517538.984 8  -9734615.67046  22501388.423    22501402.5024
  24373548.392     -231233.160 7   -169402.69045  24373547.594    24373564.9194
  23660359.046    -9304443.476 8  -6633170.09645  23660358.445    23660374.4684
  20751589.010    -6377223.749 9  -4762086.60348  20751589.194    20751597.3354
 00  1 22 19  5  0.0000000  0  9 19 02 18 27 31 08 10 07 13
  20853523.612      257313.970 9    204675.38647  20853523.376    20853533.8944
  21743522.704    -8300267.418 9  -6452489.21347  21743522.053    21743533.1914
  22836972.718    11080388.652 8   8627356.67246  22836972.472    22836985.2864
  20492777.660    -6514444.537 9  -5065956.31048  20492777.316    20492787.1094
  22703722.525     4549507.508 8   3547605.61446  22703721.980    22703735.9134
  22486220.981   -12597246.588 8  -9796725.37446  22486220.493    22486234.5684
  24380843.686     -192896.691 7   -139530.23745  24380842.843    24380860.2334
  23640686.273    -9407824.126 8  -6713726.34145  23640685.724    23640701.6544
  20751548.545    -6377436.592 9  -4762252.48748  20751548.732    20751556.8854
 00  1 22 19  5 30.0000000  0  9 19 02 18 27 31 08 10 07 13
  20858993.860      286060.262 9    227075.05947  20858993.639    20859004.1754
  21737107.990    -8333976.957 9  -6478756.37247  21737107.344    21737118.4954
  22857449.539    11187994.424 8   8711205.17046  22857449.307    22857462.1564
  20488214.676    -6538423.243 9  -5084641.04448  20488214.344    20488224.1674
  22718465.534     4626982.128 8   3607975.27946  22718465.053    22718479.0164
  22471068.375   -12676874.200 8  -9858772.76046  22471067.844    22471081.7584
  24388206.849     -154203.635 7   -109379.92945  24388205.996    24388223.5154
  23621032.275    -9511106.398 8  -6794205.90945  23621031.670    23621047.6754
  20751616.686    -6377078.712 9  -4761973.66348  20751616.865    20751624.9954
 00  1 22 19  6  0.0000000  0  9 19 02 18 27 31 08 10 07 13
  20864515.391      315075.954 9    249684.66047  20864515.187    20864525.7184
  21730735.003    -8367467.173 9  -6504852.62447  21730734.336    21730745.5054
  22877968.426    11295821.338 8   8795225.97546  22877968.142    22877981.0474
  20483696.043    -6562168.775 9  -5103144.08248  20483695.703    20483705.5704
  22733291.671     4704892.492 8   3668684.51846  22733291.170    22733305.0684
  22455927.201   -12756441.331 8  -9920772.98946  22455926.636    22455940.5094
  24395638.802     -115148.921 7    -78947.79945  24395637.912    24395655.5214
  23601395.887    -9614296.021 8  -6874613.24945  23601395.214    23601411.2914
  20751792.010    -6376157.415 9  -4761255.81148  20751792.193    20751800.3594
 00  1 22 19  6 30.0000000  0  9 19 02 18 27 31 08 10 07 13
  20870086.708      344353.171 9    272498.03947  20870086.500    20870097.0274
  21724401.379    -8400750.484 9  -6530787.65647  21724400.710    21724411.8914
  22898527.650    11403860.243 8   8879411.96646  22898527.369    22898540.3094
  20479224.632    -6585666.219 9  -5121453.81748  20479224.318    20479234.1864
  22748200.866     4783239.791 8   3729734.20646  22748200.388    22748214.2404
  22440794.173   -12835965.149 8  -9982739.47846  22440793.642    22440807.5124
  24403137.121      -75744.444 7    -48243.13945  24403136.111    24403154.1024
  23581775.910    -9717399.265 8  -6954953.25545  23581775.257    23581791.3394
  20752075.685    -6374666.830 9  -4760094.36948  20752075.867    20752084.0624
 00  1 22 19  7  0.0000000  0  9 19 02 18 27 31 08 10 07 13
  20875711.906      373913.466 9    295531.99647  20875711.695    20875722.1934
  21718106.875    -8433828.031 9  -6556562.35247  21718106.228    21718117.4104
  22919125.276    11512101.042 8   8963755.26746  22919125.050    22919138.0234
  20474805.117    -6608891.145 9  -5139551.19648  20474804.798    20474814.6544
  22763192.905     4862022.919 8   3791123.49546  22763192.460    22763206.2754
  22425669.574   -12915445.125 8 -10044671.80046  22425669.023    22425682.8284
  24410704.554      -35977.658 7    -17256.15945  24410703.641    24410721.6824
  23562173.444    -9820410.352 8  -7035221.42945  23562172.807    23562188.8714
  20752469.151    -6372599.331 9  -4758483.37848  20752469.304    20752477.5504
 00  1 22 19  7 30.0000000  0  9 19 02 18 27 31 08 10 07 13
  20881394.414      403774.818 9    318800.54047  20881394.181    20881404.6504
  21711852.766    -8466693.513 9  -6582171.80847  21711852.098    21711863.2984
  22939761.164    11620543.191 8   9048255.46346  22939760.954    22939773.9444
  20470440.728    -6631826.428 9  -5157422.88048  20470440.409    20470450.2694
  22778266.188     4941232.930 8   3852845.41946  22778265.734    22778279.6014
  22410552.653   -12994884.615 8 -10106572.58446  22410552.108    22410565.9034
  24418344.334        4169.006 7     14026.81345  24418343.442    24418361.4904
  23542592.803    -9923306.870 8  -7115400.29645  23542592.103    23542608.1714
  20752971.959    -6369957.010 9  -4756424.47848  20752972.156    20752980.4304
 00  1 22 19  8  0.0000000  0  9 19 02 18 27 31 08 10 07 13
  20887139.974      433967.744 9    342327.44847  20887139.734    20887150.1854
  21705638.406    -8499350.093 9  -6607618.49047  21705637.750    21705648.9084
  22960432.727    11729172.378 8   9132901.39346  22960432.523    22960445.5394
  20466134.719    -6654455.039 9  -5175055.60148  20466134.370    20466144.1834
  22793420.328     5020867.770 8   3914898.36146  22793419.854    22793433.7604
  22395444.171   -13074280.027 8 -10168439.02146  22395443.617    22395457.3754
  24426056.861       44698.241 7     45607.90745  24426056.063    24426074.0194
  23523036.297   -10026076.332 8  -7195480.13445  23523035.552    23523051.5954
  20753585.273    -6366734.310 9  -4753913.34448  20753585.462    20753593.7434
 00  1 22 19  8 30.0000000  0  9 19 02 18 27 31 08 10 07 13
  20892953.917      464520.084 9    366134.42847  20892953.689    20892964.1384
  21699465.242    -8531790.234 9  -6632896.51447  21699464.593    21699475.7224
  22981137.407    11837975.536 8   9217682.90146  22981137.219    22981150.2174
  20461885.739    -6676783.589 9  -5192454.49748  20461885.421    20461895.2204
  22808654.745     5100924.727 8   3977280.22746  22808654.326    22808668.2544
  22380347.299   -13153614.242 8 -10230257.75446  22380346.758    22380360.4894
  24433843.767       85618.102 7     77493.37945  24433842.962    24433860.8794
  23503507.220   -10128701.593 8  -7275447.58245  23503506.501    23503522.3744
  20754310.325    -6362924.377 9  -4750944.61848  20754310.500    20754318.8094
 00  1 22 19  9  0.0000000  0  9 19 02 18 27 31 08 10 07 13
  20898837.574      495438.595 9    390226.72447  20898837.306    20898847.7454
  21693332.492    -8564017.956 9  -6658009.02147  21693331.849    21693342.9744
  23001876.283    11946958.422 8   9302604.45646  23001876.062    23001889.0034
  20457692.954    -6698817.156 9  -5209623.53148  20457692.614    20457702.4324
  22823967.809     5181393.964 8   4039983.36546  22823967.326    22823981.2704
  22365262.866   -13232883.358 8 -10292025.76146  22365262.321    22365276.0314
  24441705.828      126933.352 7    109686.95245  24441705.110    24441722.8184
  23484008.512   -10231167.295 8  -7355290.66245  23484007.741    23484023.5744
  20755148.458    -6358520.158 9  -4747512.81348  20755148.639    20755156.9944
 00  1 22 19  9 30.0000000  0  9 19 02 18 27 31 08 10 07 13
  20904789.463      526716.083 9    414598.74947  20904789.215    20904799.6944
  21687241.403    -8596027.058 9  -6682951.17447  21687240.735    21687251.8454
  23022648.820    12056117.846 8   9387663.55946  23022648.582    23022661.4394
  20453555.850    -6720557.894 9  -5226564.38448  20453555.508    20453565.3344
  22839360.457     5262282.514 8   4103013.21546  22839359.980    22839373.9834
  22350191.606   -13312083.053 8 -10353739.66946  22350191.015    22350204.8124
  24449639.562      168625.190 7    142173.96245  24449638.857    24449656.5704
  23464541.250   -10333467.775 8  -7435004.98545  23464540.487    23464556.2544
  20756099.744    -6353521.286 9  -4743617.64148  20756099.921    20756108.3204
 00  1 22 19 10  0.0000000  0  9 19 02 18 27 31 08 10 07 13
  20910808.710      558347.274 9    439246.37947  20910808.439    20910818.9744
  21681192.527    -8627814.168 9  -6707720.34247  21681191.833    21681202.9414
  23043455.082    12165454.538 8   9472860.78446  23043454.827    23043467.6164
  20449472.438    -6742016.543 9  -5243285.42548  20449472.095    20449481.9294
  22854835.227     5343602.018 8   4166378.89146  22854834.717    22854848.7414
  22335133.921   -13391211.174 8 -10415397.81446  22335133.339    22335147.1474
  24457642.555      210679.859 7    174943.68445  24457641.806    24457659.3514
  23445103.708   -10435611.677 8  -7514597.30745  23445102.963    23445118.6104
  20757166.373    -6347916.048 9  -4739249.97648  20757166.553    20757174.9944
 00  1 22 19 10 30.0000000  0  9 19 02 18 27 31 08 10 07 13
  20916890.275      590306.039 9    464149.25647  20916890.028    20916900.5424
  21675186.185    -8659377.211 9  -6732314.90447  21675185.511    21675196.6604
  23064296.713    12274977.125 8   9558202.87346  23064296.479    23064309.2514
  20445441.711    -6763198.451 9  -5259790.82448  20445441.355    20445451.1624
  22870391.342     5425349.068 8   4230077.70246  22870390.737    22870404.8724
  22320090.832   -13470262.507 8 -10476996.13746  22320090.233    22320103.9694
  24465715.027      253100.193 7    207998.35045  24465714.238    24465731.8494
  23425695.366   -10537601.812 8  -7594069.79145  23425694.630    23425710.2804
  20758348.862    -6341702.259 9  -4734408.11148  20758349.054    20758357.4894
 00  1 22 19 11  0.0000000  0  9 19 02 18 27 31 08 10 07 13
  20923029.538      622567.649 9    489288.10647  20923029.298    20923039.7884
  21669221.168    -8690723.715 9  -6756740.74547  21669220.501    21669231.6294
  23085174.395    12384689.191 8   9643692.60346  23085174.117    23085187.0084
  20441467.147    -6784084.789 9  -5276065.91248  20441466.807    20441476.6544
  22886028.865     5507523.840 8   4294109.77946  22886028.192    22886042.4174
  22305064.117   -13549227.850 8 -10538527.45846  22305063.506    22305077.1814
  24473855.771      295879.066 7    241332.38445  24473855.013    24473872.6374
  23406313.420   -10639453.676 8  -7673434.53246  23406312.708    23406328.2104
  20759646.312    -6334884.360 9  -4729095.51448  20759646.496    20759654.9294
 00  1 22 19 11 30.0000000  0  9 19 02 18 27 31 08 10 07 13
  20929225.682      655128.254 9    514659.94747  20929225.439    20929235.9464
  21663296.570    -8721857.686 9  -6781000.97147  21663295.872    21663307.0224
  23106085.851    12494578.868 8   9729320.73446  23106085.590    23106098.5074
  20437549.134    -6804674.083 9  -5292109.52748  20437548.769    20437558.6594
  22901748.295     5590129.710 8   4358477.79346  22901747.679    22901761.9014
  22290055.829   -13628096.213 8 -10599983.20846  22290055.226    22290068.8934
  24482062.322      339004.161 7    274936.22845  24482061.561    24482079.3354
  23386956.163   -10741175.490 8  -7752697.93046  23386955.458    23386970.9034
  20761054.010    -6327487.069 9  -4723331.43448  20761054.201    20761062.6104
 00  1 22 19 12  0.0000000  0  9 19 02 18 27 31 08 10 07 13
  20935476.274      687974.914 9    540254.68547  20935476.021    20935486.5104
  21657409.813    -8752792.621 9  -6805106.10947  21657409.147    21657420.2884
  23127030.345    12604642.114 8   9815084.09946  23127030.030    23127043.0544
  20433686.803    -6824970.675 9  -5307925.05648  20433686.473    20433696.3894
  22917547.346     5673154.258 8   4423172.05346  22917546.802    22917561.1254
  22275065.318   -13706870.957 8 -10661366.01546  22275064.754    22275078.4244
  24490334.534      382474.143 7    308808.79745  24490333.734    24490351.6644
  23367622.830   -10842771.384 8  -7831863.21246  23367622.153    23367637.4704
  20762570.013    -6319520.772 9  -4717123.96848  20762570.192    20762578.5584
 00  1 22 19 12 30.0000000  0  9 19 02 18 27 31 08 10 07 13
  20941777.944      721090.110 9    566058.67247  20941777.669    20941788.1584
  21651560.721    -8783530.036 9  -6829057.34247  21651560.057    21651571.1664
  23148005.955    12714868.954 8   9900974.94246  23148005.619    23148018.7034
  20429880.371    -6844973.811 9  -5323511.91648  20429880.008    20429889.9364
  22933423.253     5756582.356 8   4488180.76046  22933422.762    22933437.1384
  22260092.734   -13785552.114 8 -10722675.89046  22260092.159    22260105.8484
  24498670.048      426276.805 7    342940.57645  24498669.224    24498687.0824
  23348316.438   -10944225.707 8  -7910918.19046  23348315.738    23348331.0144
  20764190.560    -6311005.160 9  -4710488.46348  20764190.720    20764199.0634
 00  1 22 19 13  0.0000000  0  9 19 02 18 27 31 08 10 07 13
  20948132.485      754483.360 9    592079.32547  20948132.240    20948142.7654
  21645748.566    -8814073.209 9  -6852857.21347  21645747.891    21645759.0094
  23169010.934    12825250.231 8   9986986.12546  23169010.617    23169023.8124
  20426126.793    -6864699.090 9  -5338882.26048  20426126.457    20426136.3764
  22949375.088     5840409.296 8   4553500.21746  22949374.569    22949389.0694
  22245134.151   -13864159.632 8 -10783928.39446  22245133.585    22245147.2514
  24507065.060      470392.298 7    377316.13345  24507064.162    24507082.0844
  23329039.498   -11045525.143 8  -7989852.49846  23329038.774    23329054.0804
  20765912.755    -6301955.298 9  -4703436.65848  20765912.898    20765921.2654
 00  1 22 19 13 30.0000000  0  9 19 02 18 27 31 08 10 07 13
  20954543.601      788173.687 9    618331.46547  20954543.341    20954553.9094
  21639973.809    -8844419.519 9  -6876503.67747  21639973.128    21639984.3014
  23190043.548    12935776.987 8  10073110.66546  23190043.247    23190056.5324
  20422421.233    -6884172.037 9  -5354055.97148  20422420.892    20422430.7994
  22965399.619     5924618.145 8   4619117.29646  22965399.125    22965413.6084
  22230186.046   -13942712.295 8 -10845138.15946  22230185.443    22230199.0074
  24515518.203      514812.791 7    411929.33845  24515517.370    24515535.1664
  23309793.005   -11146664.150 8  -8068661.80446  23309792.357    23309807.6204
  20767735.332    -6292377.741 9  -4695973.66148  20767735.476    20767743.8594
 00  1 22 19 14  0.0000000  0 10 19 02 18 11 27 31 08 10 07 13
  20961013.449      822173.047 9    644824.40347  20961013.183    20961023.8194
  21634239.156    -8874555.404 9  -6899986.17247  21634238.478    21634249.6754
  23211105.025    13046455.227 8  10159353.25046  23211104.806    23211118.1484
  24743718.203    -2493323.496 7  -1731844.19045  24743717.601    24743735.0774
  20418765.488    -6903382.973 9  -5369025.51848  20418765.123    20418775.0594
  22981495.209     6009200.373 8   4685025.29646  22981494.702    22981509.1744
  22215247.801   -14021212.511 8 -10906307.06546  22215247.205    22215260.6974
  24524032.998      559558.133 7    446795.67345  24524032.286    24524049.8804
  23290578.152   -11247637.180 8  -8147341.78946  23290577.539    23290592.7374
  20769664.240    -6282241.390 9  -4688075.24348  20769664.380    20769672.7524
 00  1 22 19 14 30.0000000  0 10 19 02 18 11 27 31 08 10 07 13
  20967545.571      856499.262 9    671572.03847  20967545.300    20967555.9544
  21628545.312    -8904476.878 9  -6923301.59147  21628544.620    21628555.7944
  23232194.901    13157282.163 8  10245711.69746  23232194.655    23232208.0394
  24732939.008    -2549967.644 7  -1775982.43145  24732938.463    24732955.9474
  20415158.647    -6922337.115 9  -5383794.96348  20415158.300    20415168.2054
  22997660.039     6094146.151 8   4751216.58246  22997659.502    22997673.8974
  22200319.894   -14099658.917 8 -10967434.02446  22200319.279    22200332.7354
  24532610.035      604630.600 7    481916.93545  24532609.348    24532627.1294
  23271392.439   -11348457.316 8  -8225902.65246  23271391.851    23271406.9404
  20771701.729    -6271534.360 9  -4679732.13448  20771701.860    20771710.2644
 00  1 22 19 15  0.0000000  0 10 19 02 18 11 27 31 08 10 07 13
  20974144.274      891175.454 9    698592.38047  20974144.002    20974154.6684
  21622891.720    -8934186.747 9  -6946452.12047  21622891.034    21622902.2094
  23253313.595    13268260.346 8  10332188.00446  23253313.326    23253326.7204
  24722190.675    -2606449.277 7  -1819994.05245  24722190.124    24722207.7354
  20411601.964    -6941027.817 9  -5398359.13748  20411601.582    20411611.4774
  23013893.820     6179454.491 8   4817690.39646  23013893.273    23013907.7394
  22185403.442   -14178044.771 8 -11028513.80546  22185402.836    22185416.2924
  24541253.330      650050.264 7    517308.72145  24541252.475    24541270.4614
  23252232.958   -11449140.163 8  -8304356.55546  23252232.325    23252247.3644
  20773852.286    -6260233.073 9  -4670925.97348  20773852.451    20773860.8564
 00  1 22 19 15 30.0000000  0 10 19 02 18 11 27 31 08 10 07 13
  20980810.911      926208.720 9    725890.96547  20980810.647    20980821.3404
  21617281.047    -8963670.735 9  -6969426.63947  21617280.368    21617291.5414
  23274460.348    13379386.074 8  10418779.27246  23274460.036    23274473.4544
  24711472.621    -2662772.223 7  -1863882.01645  24711472.044    24711489.6424
  20408100.367    -6959428.598 9  -5412697.39448  20408100.016    20408109.9054
  23030196.447     6265124.569 8   4884446.09046  23030195.927    23030210.4514
  22170503.982   -14256341.723 8 -11089524.33646  22170503.410    22170516.8274
  24549965.212      695831.316 7    552982.11345  24549964.283    24549982.5514
  23233097.922   -11549694.581 8  -8382710.39346  23233097.242    23233112.1544
  20776120.762    -6248312.379 9  -4661637.15248  20776120.901    20776129.3534
 00  1 22 19 16  0.0000000  0 10 19 02 18 11 27 31 08 10 07 13
  20987543.455      961588.324 9    753459.41647  20987543.196    20987553.9004
  21611716.060    -8992915.048 9  -6992214.39647  21611715.371    21611726.4924
  23295638.443    13490676.873 8  10505499.16346  23295638.135    23295651.6174
  24700787.887    -2718920.547 7  -1907633.89645  24700787.311    24700804.7144
  20404658.759    -6977514.496 9  -5426790.29748  20404658.379    20404668.2784
  23046571.944     6351177.419 8   4951500.04246  23046571.420    23046585.9374
  22155624.830   -14334532.052 8 -11150451.78046  22155624.240    22155637.6654
  24558746.041      741974.646 7    588937.81545  24558745.254    24558763.5424
  23213988.964   -11650111.945 8  -8460957.45146  23213988.270    23214003.0464
  20778509.468    -6235759.445 9  -4651855.67348  20778509.637    20778518.1384
 00  1 22 19 16 30.0000000  0 10 19 02 18 11 27 31 08 10 07 13
  20994339.572      997301.811 9    781288.03447  20994339.311    20994350.0094
  21606196.619    -9021920.038 9  -7014815.66747  21606195.922    21606206.9734
  23316849.032    13602138.293 8  10592352.00746  23316848.671    23316862.2364
  24690138.881    -2774881.715 7  -1951239.93045  24690138.143    24690155.6404
  20401278.816    -6995276.158 9  -5440630.54848  20401278.439    20401288.3354
  23063023.926     6437632.086 8   5018867.10546  23063023.421    23063037.8924
  22140766.824   -14412610.832 8 -11211292.29746  22140766.257    22140779.6834
  24567593.426      788467.447 7    625165.82445  24567592.690    24567610.9464
  23194907.255   -11750386.179 8  -8539092.98846  23194906.541    23194921.1774
  20781016.146    -6222586.957 9  -4641591.42548  20781016.312    20781024.8434
 00  1 22 19 17  0.0000000  0 10 19 02 18 11 27 31 08 10 07 13
  21001195.979     1033332.192 9    809363.58347  21001195.715    21001206.4624
  21600721.810    -9050690.313 9  -7037234.04247  21600721.102    21600732.1624
  23338089.784    13713758.409 8  10679328.49646  23338089.457    23338103.1024
  24679523.978    -2830662.666 7  -1994705.54245  24679523.381    24679540.9844
  20397963.419    -7012698.741 9  -5454206.57948  20397963.034    20397972.9304
  23079553.447     6524494.178 8   5086551.63746  23079552.927    23079567.4254
  22125929.925   -14490578.990 8 -11272046.62046  22125929.348    22125942.7904
  24576505.999      835302.635 7    661660.60545  24576505.139    24576523.6994
  23175854.597   -11850507.874 8  -8617109.67546  23175853.871    23175868.3444
  20783636.649    -6208816.315 9  -4630861.08448  20783636.798    20783645.3374
 00  1 22 19 17 30.0000000  0 10 19 02 18 11 27 31 08 10 07 13
  21008111.128     1069671.202 9    837679.62147  21008110.867    21008121.6654
  21595291.121    -9079228.500 9  -7059471.57047  21595290.442    21595301.5214
  23359360.426    13825535.705 8  10766427.46646  23359360.131    23359373.8194
  24668943.943    -2886260.162 7  -2038028.20145  24668943.336    24668960.8694
  20394712.926    -7029780.030 9  -5467516.67348  20394712.554    20394722.4744
  23096160.824     6611765.652 8   5154555.17346  23096160.310    23096174.8104
  22111112.967   -14568442.189 8 -11332719.14746  22111112.366    22111125.7984
  24585480.322      882461.757 7    698407.78245  24585479.456    24585497.7894
  23156832.304   -11950470.003 8  -8695002.03946  23156831.539    23156845.9594
  20786367.196    -6194467.214 9  -4619679.99648  20786367.337    20786375.9324
 00  1 22 19 18  0.0000000  0 10 19 02 18 11 27 31 08 10 07 13
  21015083.794     1106312.465 9    866231.18647  21015083.510    21015094.3174
  21589900.175    -9107558.041 9  -7081546.51647  21589899.484    21589910.5724
  23380660.849    13937469.922 8  10853648.70546  23380660.545    23380674.4444
  24658400.175    -2941666.017 7  -2081201.51445  24658399.765    24658417.5004
  20391524.347    -7046536.228 9  -5480573.45248  20391523.972    20391533.8434
  23112846.559     6699448.448 8   5222879.23046  23112846.009    23112860.4444
  22096313.661   -14646212.534 8 -11393319.32346  22096313.091    22096326.4854
  24594513.615      929931.630 7    735397.12845  24594512.803    24594531.0934
  23137842.908   -12050258.820 8  -8772759.36346  23137842.215    23137856.5474
  20789204.239    -6179558.594 9  -4608062.91848  20789204.393    20789213.0034
 00  1 22 19 18 30.0000000  0 10 19 02 18 11 27 31 08 10 07 13
  21022114.964     1143261.235 9    895022.37247  21022114.683    21022125.4954
  21584545.776    -9135695.523 9  -7103471.79947  21584545.090    21584556.1444
  23401985.659    14049531.756 8  10940969.38846  23401985.443    23401999.4184
  24647891.752    -2996887.073 7  -2124230.83145  24647891.559    24647909.1254
  20388395.311    -7062979.448 9  -5493386.34448  20388394.928    20388404.8074
  23129604.398     6787510.268 8   5291498.60546  23129603.858    23129618.3374
  22081530.490   -14723898.376 8 -11453853.64446  22081529.905    22081543.1794
  24603605.025      977706.853 7    772624.41045  24603604.129    24603622.4884
  23118889.321   -12149859.421 8  -8850370.02346  23118888.647    23118902.9374
  20792147.084    -6164094.142 9  -4596012.71948  20792147.226    20792155.8434
 00  1 22 19 19  0.0000000  0 10 19 02 18 11 27 31 08 10 07 13
  21029207.234     1180531.144 9    924063.79047  21029206.973    21029217.7594
  21579227.837    -9163641.462 9  -7125247.83447  21579227.152    21579238.1574
  23423331.861    14161705.896 8  11028377.56946  23423331.694    23423345.7004
  24637418.571    -3051923.482 7  -2167116.23945  24637418.180    24637435.9494
  20385323.479    -7079122.066 9  -5505965.00848  20385323.105    20385332.9864
  23146430.418     6875931.270 8   5360397.85046  23146429.970    23146444.5694
  22066762.965   -14801502.100 8 -11514323.97546  22066762.398    22066775.5464
  24612754.341     1025786.300 7    810088.73845  24612753.535    24612771.7694
  23099976.153   -12249248.049 8  -8927815.52346  23099975.470    23099989.7864
  20795196.788    -6148067.895 9  -4583524.76048  20795196.945    20795205.5454
 00  1 22 19 19 30.0000000  0 10 19 02 18 11 27 31 08 10 07 13
  21036362.402     1218131.284 9    953362.52447  21036362.129    21036372.8674
  21573945.283    -9191401.710 9  -7146879.17947  21573944.609    21573955.5424
  23444699.095    14273990.332 8  11115871.69746  23444698.882    23444712.9644
  24626983.562    -3106759.903 7  -2209845.81145  24626983.105    24627000.9534
  20382306.815    -7094974.815 9  -5518317.79748  20382306.453    20382316.3234
  23163323.292     6964702.896 8   5429570.31546  23163322.795    23163337.5884
  22052010.374   -14879027.371 8 -11574733.15746  22052009.801    22052022.8714
  24621958.917     1074156.023 7    847779.24145  24621958.193    24621976.2504
  23081106.248   -12348409.325 8  -9005083.87846  23081105.564    23081119.8244
  20798355.932    -6131466.770 9  -4570588.85148  20798356.088    20798364.6604
 00  1 22 19 20  0.0000000  0 10 19 02 18 11 27 31 08 10 07 13
  21043580.151     1256060.484 9    982917.66947  21043579.883    21043590.5774
  21568699.082    -9218970.726 9  -7168361.51047  21568698.401    21568709.3354
  23466085.533    14386375.585 8  11203444.37646  23466085.287    23466099.3294
  24616585.822    -3161400.601 7  -2252422.87545  24616585.253    24616603.0114
  20379346.305    -7110532.323 9  -5530440.52748  20379345.932    20379355.7994
  23180282.242     7053821.889 8   5499013.46146  23180281.785    23180296.6534
  22037272.588   -14956474.877 8 -11635081.76446  22037272.044    22037284.9524
  24631218.811     1122816.771 7    885696.52945  24631218.033    24631236.2024
  23062280.901   -12447336.563 8  -9082169.86646  23062280.246    23062294.4704
  20801625.732    -6114283.833 9  -4557199.57948  20801625.894    20801634.4224
 00  1 22 19 20 30.0000000  0 10 19 02 18 11 27 31 08 10 07 13
  21050861.264     1294322.525 9   1012732.17247  21050861.002    21050871.6614
  21563492.101    -9246333.607 9  -7189683.21747  21563491.406    21563502.3404
  23487492.045    14498866.080 8  11291099.06946  23487491.777    23487505.8624
  24606223.418    -3215855.459 7  -2294855.13545  24606222.856    24606240.6924
  20376444.774    -7125780.020 9  -5542321.84448  20376444.411    20376454.2634
  23197307.370     7143288.420 8   5568727.41846  23197306.908    23197321.8594
  22022551.458   -15033835.004 8 -11695362.28346  22022550.855    22022563.7164
  24640537.293     1171785.110 7    923853.50245  24640536.372    24640554.7744
  23043498.573   -12546037.574 8  -9159079.57546  23043497.969    23043512.1064
  20805006.835    -6096516.140 9  -4543354.65048  20805007.013    20805015.5454
 00  1 22 19 21  0.0000000  0 10 19 02 18 11 27 31 08 10 07 13
  21058204.988     1332913.641 9   1042803.09147  21058204.738    21058215.3954
  21558323.641    -9273494.100 9  -7210847.22948  21558322.954    21558333.8424
  23508922.796    14611484.376 8  11378853.34346  23508922.531    23508936.5844
  24595896.410    -3270124.692 7  -2337142.74045  24595895.885    24595913.6174
  20373602.473    -7140716.120 9  -5553960.35948  20373602.109    20373611.9684
  23214402.598     7233123.422 8   5638728.47146  23214402.094    23214417.1984
  22007849.880   -15111091.871 8 -11755562.33246  22007849.303    22007862.2094
  24649912.744     1221052.770 7    962243.71145  24649911.930    24649930.2534
  23024754.794   -12644536.489 8  -9235831.80846  23024754.144    23024768.2454
  20808496.857    -6078175.906 9  -4529063.59248  20808497.027    20808505.5954
 00  1 22 19 21 30.0000000  0 10 19 02 18 11 27 31 08 10 07 13
  21065608.633     1371819.964 9   1073119.63147  21065608.383    21065619.0684
  21553192.312    -9300459.435 9  -7231859.16548  21553191.626    21553202.5414
  23530380.171    14724242.558 8  11466716.61746  23530379.917    23530393.9754
  24585604.611    -3324208.163 7  -2379285.59445  24585603.941    24585621.8374
  20370819.792    -7155339.128 9  -5565354.90448  20370819.445    20370829.3024
  23231567.400     7323324.384 8   5709014.68346  23231566.951    23231582.1564
  21993169.333   -15188238.125 8 -11815676.19246  21993168.757    21993181.6844
  24659344.016     1270613.089 7   1000861.95445  24659343.082    24659361.4144
  23006042.961   -12742867.383 8  -9312453.11546  23006042.279    23006056.3294
  20812094.808    -6059268.889 9  -4514330.88348  20812094.976    20812103.5444
 00  1 22 19 22  0.0000000  0 10 19 02 18 11 27 31 08 10 07 13
  21073070.780     1411033.363 9   1103675.45247  21073070.507    21073081.2094
  21548099.166    -9327224.006 9  -7252714.66348  21548098.482    21548109.4174
  23551864.993    14837144.994 8  11554692.28446  23551864.703    23551878.7904
  24575347.358    -3378109.579 7  -2421286.61545  24575346.741    24575364.6424
  20368095.452    -7169655.692 9  -5576510.66348  20368095.091    20368104.9554
  23248798.952     7413875.964 8   5779574.08746  23248798.511    23248813.7874
  21978509.666   -15265274.664 8 -11875704.55146  21978509.085    21978522.0614
  24668832.819     1320476.377 7   1039716.27945  24668831.953    24668850.4394
  22987360.244   -12841044.844 8  -9388954.87246  22987359.582    22987373.5904
  20815799.615    -6039800.128 9  -4499160.45148  20815799.782    20815808.3304
 00  1 22 19 22 30.0000000  0 10 19 02 18 11 27 31 08 10 07 13
  21080590.855     1450551.535 9   1134468.76047  21080590.601    21080601.3394
  21543042.381    -9353797.387 9  -7273421.18448  21543041.712    21543052.6864
  23573377.521    14950192.992 8  11642781.37346  23573377.200    23573391.3324
  24565129.461    -3431805.308 7  -2463127.34445  24565128.965    24565146.6854
  20365427.407    -7183676.280 9  -5587435.78848  20365427.038    20365436.9104
  23266095.245     7504767.596 8   5850398.47246  23266094.807    23266110.1774
  21963871.849   -15342196.530 8 -11935643.56046  21963871.269    21963884.2234
  24678376.877     1370630.474 7   1078797.21845  24678375.975    24678394.6274
  22968706.494   -12939070.169 8  -9465338.09946  22968705.866    22968719.8814
  20819611.643    -6019768.104 9  -4483551.11648  20819611.803    20819620.3534
 00  1 22 19 23  0.0000000  0 10 19 02 18 11 27 31 08 10 07 13
  21088169.316     1490376.221 9   1165500.91047  21088169.034    21088179.8174
  21538022.417    -9380177.622 9  -7293977.19948  21538021.748    21538032.7134
  23594913.174    15063362.312 8  11730964.99746  23594912.821    23594927.0394
  24554952.923    -3485283.339 7  -2504798.44745  24554952.570    24554970.0094
  20362815.006    -7197404.745 9  -5598133.29048  20362814.647    20362824.4914
  23283453.059     7595982.361 8   5921474.64146  23283452.561    23283468.0624
  21949254.064   -15419012.668 8 -11995500.18146  21949253.488    21949266.4334
  24687972.196     1421052.694 7   1118087.08245  24687971.272    24687989.9784
  22950081.757   -13036942.774 8  -9541602.32246  22950081.150    22950095.1834
  20823530.942    -5999172.056 9  -4467502.28148  20823531.109    20823539.6734
 00  1 22 19 23 30.0000000  0 10 19 02 18 11 27 31 08 10 07 13
  21095808.283     1530519.200 9   1196781.08447  21095808.046    21095818.8914
  21533042.943    -9406344.878 9  -7314367.26348  21533042.265    21533053.2294
  23616467.633    15176630.572 8  11819225.72046  23616467.270    23616481.5264
  24544819.052    -3538537.250 7  -2546294.92545  24544818.696    24544836.0014
  20360260.445    -7210829.092 9  -5608593.81948  20360260.095    20360269.9064
  23300870.317     7687509.665 8   5992794.36646  23300869.793    23300885.4144
  21934654.097   -15495735.618 8 -12055284.19246  21934653.526    21934666.4504
  24697622.034     1471762.121 7   1157600.72845  24697621.342    24697639.7704
  22931489.548   -13134644.846 8  -9617733.67846  22931488.951    22931502.9854
  20827561.183    -5977992.986 9  -4450999.14348  20827561.359    20827569.9424
 00  1 22 19 24  0.0000000  0 10 19 02 18 11 27 31 08 10 07 13
  21103511.648     1571000.376 9   1228324.79247  21103511.393    21103522.2774
  21528104.792    -9432295.075 9  -7334588.18648  21528104.104    21528115.0654
  23638038.440    15289984.921 8  11907553.53245  23638038.146    23638052.3944
  24534729.377    -3591559.341 7  -2587610.76545  24534729.000    24534746.2284
  20357767.021    -7223932.304 9  -5618804.11548  20357766.651    20357776.4594
  23318348.737     7779358.402 8   6064364.51846  23318348.173    23318363.9254
  21920072.745   -15572360.931 8 -12114992.12346  21920072.170    21920085.0444
  24707326.545     1522759.149 7   1197338.50445  24707325.784    24707344.2674
  22912935.779   -13232145.030 8  -9693707.70946  22912935.125    22912949.1614
  20831704.636    -5956219.160 9  -4434032.55548  20831704.811    20831713.4144
 00  1 22 19 24 30.0000000  0 10 19 02 18 11 27 31 08 10 07 13
  21111281.238     1611829.743 9   1260139.82047  21111281.004    21111291.9254
  21523206.873    -9458033.613 9  -7354644.18548  21523206.184    21523217.1674
  23659623.363    15403413.804 8  11995939.42345  23659623.093    23659637.4124
  24524682.973    -3644354.315 7  -2628749.62145  24524682.405    24524699.7044
  20355340.023    -7236686.263 9  -5628742.26648  20355339.672    20355349.4654
  23335891.869     7871547.221 8   6136199.66846  23335891.308    23335907.1644
  21905513.365   -15648870.478 8 -12174609.84246  21905512.789    21905525.6954
  24717084.356     1574035.880 7   1237294.23445  24717083.518    24717102.0464
  22894423.816   -13329425.666 8  -9769510.67846  22894423.091    22894437.0654
  20835962.811    -5933842.612 9  -4416596.31048  20835962.993    20835971.6324
 00  1 22 19 25  0.0000000  0 10 19 02 18 11 27 31 08 10 07 13
  21119120.538     1653025.008 9   1292239.96047  21119120.277    21119131.2044
  21518349.368    -9483559.878 9  -7374534.77748  21518348.687    21518359.6514
  23681223.800    15516924.456 8  12084389.01145  23681223.620    23681238.0424
  24514678.533    -3696927.922 7  -2669716.03045  24514678.032    24514695.1174
  20352982.260    -7249076.576 9  -5638397.05448  20352981.904    20352991.6754
  23353501.607     7964085.692 8   6208307.29845  23353500.997    23353516.9864
  21890976.570   -15725261.450 8 -12234135.16946  21890975.983    21890988.9034
  24726898.541     1625609.373 7   1277481.22745  24726897.685    24726916.3874
  22875956.287   -13426472.537 8  -9845131.49946  22875955.526    22875969.4724
  20840336.754    -5910857.617 9  -4398685.95748  20840336.925    20840345.5654
 00  1 22 19 25 30.0000000  0 10 19 02 18 11 27 31 08 10 07 13
  21127028.770     1694582.845 9   1324622.62747  21127028.522    21127039.4934
  21513529.260    -9508889.628 9  -7394272.24048  21513528.574    21513539.5884
  23702842.549    15630531.277 8  12172913.54345  23702842.433    23702856.9654
  24504717.933    -3749270.581 7  -2710502.47545  24504717.418    24504734.3904
  20350694.004    -7261101.639 9  -5647767.23048  20350693.628    20350703.3714
  23371180.005     8056984.890 8   6280695.99845  23371179.429    23371195.4324
  21876462.449   -15801533.146 8 -12293567.56246  21876461.891    21876474.7714
  24736769.583     1677481.329 7   1317900.77845  24736768.611    24736787.5294
  22857538.169   -13523259.551 8  -9920549.83046  22857537.417    22857551.3204
  20844827.935    -5887256.809 9  -4380295.74348  20844828.066    20844836.7074
 00  1 22 19 26  0.0000000  0 10 19 02 18 11 27 31 08 10 07 13
  21135004.621     1736495.772 9   1357281.98547  21135004.371    21135015.3554
  21508742.413    -9534044.517 9  -7413873.44548  21508741.728    21508752.7604
  23724481.695    15744245.272 8  12261521.59145  23724481.673    23724496.2384
  24494802.485    -3801375.831 7  -2751103.92745  24494801.841    24494819.1084
  20348475.890    -7272757.775 9  -5656849.93148  20348475.533    20348485.2904
  23388926.907     8150244.469 8   6353365.52045  23388926.333    23388942.3894
  21861972.711   -15877676.791 8 -12352900.17746  21861972.152    21861985.0164
  24746693.460     1729631.158 7   1358536.83645  24746692.601    24746711.4874
  22839170.096   -13619783.781 8  -9995763.41746  22839169.303    22839183.2164
  20849432.451    -5863059.970 9  -4361441.08848  20849432.598    20849441.2764
 00  1 22 19 26 30.0000000  0 10 19 02 18 11 27 31 08 10 07 13
  21143044.705     1778746.448 9   1390204.52647  21143044.455    21143055.4444
  21503989.841    -9559019.564 9  -7433334.51548  21503989.148    21504000.1874
  23746142.936    15858075.011 8  12350219.80745  23746142.907    23746157.5734
  24484932.878    -3853241.078 7  -2791518.37345  24484932.184    24484949.4674
  20346326.606    -7284052.507 9  -5665651.02148  20346326.251    20346335.9964
  23406739.598     8243850.144 8   6426304.74045  23406739.081    23406755.1734
  21847505.476   -15953702.330 8 -12412140.76446  21847504.887    21847517.6684
  24756670.754     1782061.309 7   1399391.34245  24756669.854    24756688.8964
  22820850.281   -13716054.098 8 -10070779.15446  22820849.516    22820863.4044
  20854146.087    -5838289.584 9  -4342139.51448  20854146.245    20854154.9594
 00  1 22 19 27  0.0000000  0 11 19 02 18 11 27 26 31 08 10 07 13
  21151144.610     1821311.297 9   1423371.87947  21151144.347    21151155.3334
  21499273.790    -9583802.309 9  -7452645.73648  21499273.103    21499284.1394
  23767826.007    15972019.268 8  12439007.26145  23767826.016    23767840.6884
  24475110.486    -3904857.399 7  -2831738.82545  24475109.914    24475127.1924
  20344241.841    -7295007.763 9  -5674187.57948  20344241.485    20344251.2984
  24352480.441     -446408.11744                  24352481.028    24352499.1954
  23424615.699     8337788.447 8   6499503.16245  23424615.116    23424631.2444
  21833058.492   -16029621.508 8 -12471298.47446  21833057.889    21833070.5794
  24766700.904     1834769.126 7   1440462.20145  24766700.080    24766718.9954
  22802577.004   -13812079.701 8 -10145604.20146  22802576.305    22802590.2044
  20858965.356    -5812964.033 9  -4322405.34148  20858965.519    20858974.2304
 00  1 22 19 27 30.0000000  0 11 19 02 18 11 27 26 31 08 10 07 13
  21159298.683     1864160.904 9   1456761.12347  21159298.412    21159309.3854
  21494596.341    -9608382.295 9  -7471798.96048  21494595.641    21494606.7104
  23789526.743    16086055.874 8  12527866.68045  23789526.583    23789541.4234
  24465333.804    -3956234.011 7  -2871772.50745  24465333.172    24465350.4434
  20342220.992    -7305627.145 9  -5682462.41748  20342220.644    20342230.4814
  24335647.450     -682608.00317   -515335.81345  24335647.262    24335666.9034
  23442552.130     8432043.836 8   6572948.62945  23442551.568    23442567.7174
  21818632.090   -16105432.180 8 -12530371.62446  21818631.496    21818644.1814
  24776780.417     1887736.622 7   1481735.43345  24776779.662    24776798.6154
  22784345.921   -13907883.922 8 -10220256.75346  22784345.246    22784359.1284
  20863886.386    -5787103.738 9  -4302254.48248  20863886.552    20863895.2784
 00  1 22 19 28  0.0000000  0 11 19 02 18 11 27 26 31 08 10 07 13
  21167507.197     1907296.543 9   1490373.24547  21167506.920    21167517.8894
  21489958.070    -9632756.557 9  -7490791.88648  21489957.392    21489968.4684
  23811242.955    16200173.827 8  12616789.47245  23811242.769    23811257.6204
  24455600.926    -4007380.587 7  -2911626.93845  24455600.320    24455617.5504
  20340261.472    -7315924.579 9  -5690486.38948  20340261.100    20340270.9424
  24318862.260     -770816.326 7   -584069.43445  24318863.381    24318881.3974
  23460546.051     8526601.276 8   6646629.49045  23460545.482    23460561.5524
  21804227.372   -16181128.930 8 -12589356.02546  21804226.788    21804239.5124
  24786908.979     1940961.559 7   1523209.24645  24786908.240    24786927.1674
  22766150.557   -14003500.740 8 -10294763.28746  22766149.933    22766163.7384
  20868905.841    -5760726.386 9  -4281700.72648  20868906.017    20868914.7484
 00  1 22 19 28 30.0000000  0 10 19 02 18 11 27 26 31 08 07 13
  21175774.150     1950739.421 9   1524224.78547  21175773.897    21175784.9044
  21485362.706    -9656905.353 9  -7509609.12348  21485362.023    21485373.0824
  23832975.070    16314375.362 8  12705777.39845  23832974.834    23832989.7104
  24445914.022    -4058285.381 7  -2951292.97845  24445913.486    24445930.6294
  20338362.817    -7325901.936 9  -5698260.94648  20338362.465    20338372.3224
  24302128.078     -858755.918 7   -652593.64945  24302129.097    24302146.7434
  23478599.304     8621470.660 8   6720553.41545  23478598.683    23478614.8384
  21789847.250   -16256696.708 8 -12648239.93947  21789846.673    21789859.3774
  22747994.677   -14098910.469 8 -10369108.45046  22747994.041    22748007.7334
  20874030.635    -5733795.565 9  -4260715.69248  20874030.799    20874039.5254
 00  1 22 19 29  0.0000000  0 10 19 02 18 11 27 26 31 08 07 13
  21184100.606     1994495.025 9   1558320.00847  21184100.333    21184111.3634
  21480804.408    -9680859.572 9  -7528274.74248  21480803.729    21480814.8004
  23854718.628    16428636.767 8  12794811.97145  23854718.302    23854733.2484
  24436270.868    -4108960.004 7  -2990779.66145  24436270.373    24436287.5824
  20336520.937    -7335581.073 9  -5705803.12948  20336520.570    20336530.4484
  24285441.645     -946443.436 7   -720921.44045  24285442.019    24285460.2704
  23496710.756     8716645.874 8   6794715.66145  23496710.126    23496726.3914
  21775492.172   -16332132.688 8 -12707021.15247  21775491.601    21775504.2824
  22729876.333   -14194123.133 8 -10443300.06846  22729875.714    22729889.2874
  20879261.320    -5706308.030 9  -4239296.85448  20879261.498    20879270.2354
 00  1 22 19 29 30.0000000  0 10 19 02 18 11 27 26 31 08 07 13
  21192491.269     2038587.951 9   1592678.08247  21192490.994    21192502.0254
  21476277.466    -9704648.714 9  -7546811.73348  21476276.803    21476287.8514
  23876473.723    16542959.081 8  12883894.02445  23876473.351    23876488.3804
  24426671.743    -4159403.218 7  -3030086.02245  24426671.258    24426688.4664
  20334735.073    -7344965.928 9  -5713116.00548  20334734.716    20334744.5734
  24268799.804    -1033896.449 7   -789066.49345  24268800.050    24268818.3544
  23514877.611     8812112.323 8   6869104.85245  23514876.999    23514893.3844
  21761160.910   -16407443.419 8 -12765704.76746  21761160.342    21761173.0314
  22711796.499   -14289133.260 8 -10517333.85246  22711795.871    22711809.3914
  20884600.985    -5678248.087 9  -4217431.98648  20884601.171    20884609.8974
 00  1 22 19 30  0.0000000  0 10 19 02 18 11 27 26 31 08 07 13
  21200949.937     2083038.342 9   1627314.69547  21200949.648    21200960.6934
  21471779.637    -9728285.274 9  -7565229.82948  21471778.967    21471789.9234
  23898243.073    16657356.880 8  12973034.87145  23898242.620    23898257.8374
  24417118.874    -4209603.193 7  -3069202.86845  24417118.511    24417135.7334
  20333005.126    -7354056.949 9  -5720199.92448  20333004.754    20333014.6094
  24252205.279    -1121100.908 7   -857017.87345  24252205.388    24252223.6934
  23533100.212     8907871.898 8   6943722.44045  23533099.644    23533116.0354
  21746850.692   -16482643.444 8 -12824302.11446  21746850.149    21746862.8394
  22693760.434   -14383913.925 8 -10591188.85246  22693759.767    22693773.2134
  20890052.891    -5649598.354 9  -4195107.53648  20890053.067    20890061.8044
 00  1 22 19 30 30.0000000  0 10 19 02 18 11 27 26 31 08 07 13
  21209473.894     2127831.789 9   1662218.62947  21209473.607    21209484.6614
  21467310.273    -9751772.156 9  -7583531.29848  21467309.591    21467320.5154
  23920027.865    16771836.260 8  13062239.31545  23920027.489    23920042.8274
  24407612.115    -4259561.844 7  -3108131.66345  24407611.812    24407628.9314
  20331334.386    -7362836.564 9  -5727041.19648  20331334.030    20331343.8624
  24235661.707    -1208037.312 7   -924760.38745  24235661.751    24235680.0874
  23551377.932     9003921.477 8   7018565.96845  23551377.370    23551393.8614
  21732559.345   -16557744.410 8 -12882822.27446  21732558.813    21732571.4934
  22675770.556   -14478451.795 8 -10664854.64846  22675769.821    22675783.2304
  20895617.075    -5620358.556 9  -4172323.30148  20895617.245    20895625.9744
 00  1 22 19 31  0.0000000  0 10 19 02 18 11 27 26 31 08 07 13
  21218061.862     2172962.052 9   1697385.01847  21218061.612    21218072.6914
  21462873.174    -9775089.159 9  -7601700.38948  21462872.493    21462883.3884
  23941829.301    16886402.970 8  13151511.80245  23941828.946    23941844.4784
  24398154.136    -4309264.819 7  -3146861.21945  24398153.610    24398170.8524
  20329726.895    -7371284.110 9  -5733623.70748  20329726.543    20329736.3194
  24219167.714    -1294713.229 7   -992299.92445  24219167.879    24219186.1224
  23569709.183     9100251.807 8   7093628.26345  23569708.669    23569725.1974
  21718286.967   -16632746.015 8 -12941265.00947  21718286.433    21718299.0874
  22657825.798   -14572752.295 8 -10738335.49246  22657825.054    22657838.4654
  20901290.834    -5590542.927 9  -4149090.36548  20901291.007    20901299.7234
 00  1 22 19 31 30.0000000  0 10 19 02 18 11 27 26 31 08 07 13
  21226711.819     2218417.487 9   1732804.79247  21226711.543    21226722.6074
  21458473.699    -9798208.780 9  -7619715.67348  21458472.988    21458483.8724
  23963647.766    17001059.079 7  13240853.93645  23963647.452    23963663.0594
  24388746.532    -4358701.647 7  -3185383.39445  24388746.132    24388763.2694
  20328187.914    -7379371.635 9  -5739925.68148  20328187.569    20328197.3234
  24202727.329    -1381107.638 7  -1059620.09645  24202727.291    24202745.8524
  23588093.146     9196858.821 8   7168906.14345  23588092.613    23588109.0894
  21704032.833   -16707651.764 8 -12999633.04947  21704032.271    21704044.9494
  22639927.421   -14666808.746 8 -10811626.16446  22639926.665    22639940.1004
  20907073.133    -5560156.676 9  -4125412.78548  20907073.304    20907082.0524
 00  1 22 19 32  0.0000000  0 10 19 02 18 11 27 26 31 08 07 13
  21235422.204     2264190.334 9   1768471.89147  21235421.903    21235432.9484
  21454114.109    -9821118.616 9  -7637567.49248  21454113.416    21454124.2984
  23985482.653    17115801.671 7  13330263.46645  23985482.266    23985498.1014
  24379388.628    -4407877.631 7  -3223702.30045  24379388.301    24379405.2574
  20326720.786    -7387081.639 9  -5745933.48548  20326720.404    20326730.1394
  24186344.384    -1467199.407 7  -1126704.42845  24186344.452    24186363.0324
  23606531.689     9293752.787 8   7244407.61145  23606531.108    23606547.6034
  21689801.204   -16782439.306 8 -13057908.98747  21689800.653    21689813.2574
  22622073.399   -14760631.609 8 -10884734.82346  22622072.665    22622086.1244
  20912959.651    -5529222.885 9  -4101308.55948  20912959.829    20912968.5884
 00  1 22 19 32 30.0000000  0 10 19 02 18 11 27 26 31 08 07 13
  21244193.224     2310282.226 9   1804387.59747  21244192.931    21244204.0344
  21449796.190    -9843809.406 9  -7655248.61948  21449795.496    21449806.3784
  24007332.096    17230620.692 7  13419732.54645  24007331.760    24007347.7754
  24370082.388    -4456781.800 7  -3261809.40245  24370082.004    24370099.0874
  20325327.128    -7394405.186 9  -5751640.15648  20325326.789    20325336.5254
  24170018.838    -1552989.576 7  -1193553.76445  24170018.915    24170037.6284
  23625025.239     9390935.641 8   7320134.18045  23625024.635    23625041.2304
  21675599.270   -16857070.804 8 -13116063.31447  21675598.705    21675611.3044
  22604263.366   -14854223.621 8 -10957663.60246  22604262.645    22604276.0964
  20918949.061    -5497748.463 9  -4076783.05848  20918949.223    20918958.0134
 00  1 22 19 33  0.0000000  0 10 19 02 18 11 27 26 31 08 07 13
  21253027.634     2356707.530 9   1840563.09947  21253027.375    21253038.5244
  21445518.552    -9866288.204 9  -7672764.54848  21445517.867    21445528.8094
  24029192.000    17345494.468 7  13509244.29545  24029191.717    24029207.8454
  24360829.386    -4505405.844 7  -3299698.21545  24360829.009    24360846.2224
  20324003.615    -7401360.417 9  -5757059.83148  20324003.265    20324013.0364
  24153748.592    -1638488.972 7  -1260176.54545  24153748.579    24153767.4994
  23643573.143     9488404.196 8   7396083.38745  23643572.534    23643589.2644
  21661430.452   -16931528.356 8 -13174082.10347  21661429.864    21661442.4504
  22586497.881   -14947581.120 8 -11030409.63546  22586497.194    22586510.6344
  20925040.563    -5465737.471 9  -4051839.45047  20925040.716    20925049.5344
 00  1 22 19 33 30.0000000  0 10 19 02 18 11 27 26 31 08 07 13
  21261927.291     2403475.257 9   1877005.42447  21261927.014    21261938.2114
  21441276.806    -9888578.536 9  -7690133.62748  21441276.123    21441287.0854
  24051060.238    17460412.282 7  13598790.34645  24051059.958    24051076.3214
  24351626.499    -4553766.518 7  -3337381.81545  24351626.171    24351643.5194
  20322747.568    -7407960.952 9  -5762203.12048  20322747.205    20322757.0044
  24137536.589    -1723683.004 7  -1326561.36345  24137536.651    24137555.4544
  23662177.427     9586168.711 8   7472263.17945  23662176.795    23662193.6414
  21647293.515   -17005818.080 8 -13231970.11247  21647292.971    21647305.5514
  22568777.608   -15040701.377 8 -11102970.81146  22568776.951    22568790.3574
  20931234.756    -5433186.468 9  -4026475.05047  20931234.918    20931243.7954
 00  1 22 19 34  0.0000000  0 10 19 02 18 11 27 26 31 08 07 13
  21270893.686     2450593.908 9   1913721.20147  21270893.417    21270904.6444
  21437067.716    -9910697.275 9  -7707368.99148  21437067.017    21437077.9704
  24072934.967    17575364.218 7  13688362.99645  24072934.823    24072951.2154
  24342472.646    -4601870.281 7  -3374865.18945  24342472.287    24342489.5084
  20321554.697    -7414229.226 9  -5767087.49548  20321554.351    20321564.1704
  24121379.822    -1808586.996 7  -1392720.16945  24121379.926    24121398.6524
  23680837.371     9684226.080 8   7548671.14545  23680836.778    23680853.6554
  21633188.496   -17079940.416 8 -13289727.68447  21633187.946    21633200.4754
  22551103.774   -15133577.450 8 -11175341.72446  22551103.107    22551116.5044
  20937532.643    -5400091.012 9  -4000686.40547  20937532.818    20937541.7064
 00  1 22 19 34 30.0000000  0 10 19 02 18 11 27 26 31 08 07 13
  21279925.951     2498058.629 9   1950706.63847  21279925.694    21279936.9454
  21432890.330    -9932649.526 9  -7724474.62548  21432889.639    21432900.5964
  24094812.451    17690330.304 7  13777946.66545  24094812.348    24094828.9914
  24333369.768    -4649706.964 7  -3412140.45345  24333369.299    24333386.3904
  20320421.060    -7420186.582 9  -5771729.59448  20320420.706    20320430.5234
  24105278.304    -1893200.360 7  -1458652.49845  24105278.424    24105296.9594
  23699550.680     9782564.290 8   7625297.91745  23699550.143    23699567.1214
  21619110.196   -17153922.185 8 -13347375.72647  21619109.632    21619122.1264
  22533479.651   -15226192.342 8 -11247509.11446  22533479.037    22533492.3904
  20943936.039    -5366440.987 9  -3974465.62647  20943936.225    20943945.1204
 00  1 22 19 35  0.0000000  0 10 19 02 18 11 27 26 31 08 07 13
  21289022.458     2545860.630 9   1987954.88647  21289022.196    21289033.4304
  21428744.756    -9954434.523 9  -7741449.93348  21428744.069    21428755.0394
  24116692.271    17805308.472 7  13867539.74145  24116692.201    24116708.8394
  24324316.747    -4697280.674 7  -3449210.79645  24324316.187    24324333.3994
  20319346.693    -7425832.485 9  -5776129.00748  20319346.339    20319356.1444
  24089233.159    -1977517.474 7  -1524353.96145  24089233.162    24089251.7994
  23718317.400     9881182.656 8   7702143.06845  23718316.840    23718333.9024
  21605052.927   -17227793.014 8 -13404937.31947  21605052.364    21605064.8874
  22515904.313   -15318551.240 8 -11319477.02946  22515903.664    22515917.0124
  20950445.613    -5332233.311 9  -3947810.32248  20950445.788    20950454.6654
 00  1 22 19 35 30.0000000  0 10 19 02 18 11 27 26 31 08 07 13
  21298181.345     2593990.439 9   2025458.56747  21298181.066    21298192.3024
  21424632.496    -9976044.312 9  -7758288.71348  21424631.816    21424642.8504
  24138575.084    17920302.046 7  13957144.84045  24138574.892    24138591.7124
  24315312.630    -4744597.123 7  -3486080.68045  24315312.180    24315329.2754
  20318335.547    -7431146.111 9  -5780269.50148  20318335.199    20318345.0084
  24073247.230    -2061522.851 7  -1589812.52345  24073247.248    24073265.9634
  23737136.352     9980075.393 8   7779201.99345  23737135.793    23737152.8594
  21591014.326   -17301566.014 8 -13462422.69147  21591013.782    21591026.3124
  22498378.267   -15410651.274 8 -11391243.23546  22498377.587    22498390.8864
  20957062.427    -5297461.791 9  -3920715.65447  20957062.587    20957071.4994
 00  1 22 19 36  0.0000000  0 10 19 02 18 11 27 26 31 08 07 13
  21307400.659     2642437.753 9   2063209.65247  21307400.373    21307411.6234
  21420554.429    -9997474.358 9  -7774987.43348  21420553.759    21420564.8064
  24160462.425    18035319.245 7  14046768.33445  24160462.110    24160479.0004
  24306362.881    -4791628.261 7  -3522728.22545  24306362.406    24306379.4934
  20317391.482    -7436107.355 9  -5784135.40948  20317391.123    20317400.8964
  24057319.131    -2145224.570 7  -1655034.47245  24057319.125    24057338.0124
  23756006.392    10079236.743 8   7856470.20045  23756005.789    23756022.9844
  21576997.811   -17375223.133 8 -13519817.75647  21576997.246    21577009.7414
  22480902.937   -15502484.636 8 -11462801.63946  22480902.255    22480915.5284
  20963786.647    -5262125.699 9  -3893181.06447  20963786.832    20963795.7504
 00  1 22 19 36 30.0000000  0 10 19 02 18 11 27 26 31 08 07 13
  21316679.685     2691199.151 9   2101205.47147  21316679.420    21316690.6734
  21416514.534   -10018703.999 9  -7791529.99748  21416513.856    21416524.9384
  24182356.450    18150371.094 7  14136418.82345  24182356.142    24182372.9654
  24297469.380    -4838363.598 7  -3559145.26845  24297468.863    24297485.8534
  20316518.775    -7440693.574 9  -5787709.09348  20316518.407    20316528.1804
  24041448.985    -2228621.853 7  -1720019.18545  24041448.911    24041467.8224
  23774926.633    10178662.324 8   7933944.30045  23774926.131    23774943.4704
  21563004.240   -17448759.219 8 -13577118.52047  21563003.673    21563016.2024
  22463475.842   -15594064.600 8 -11534162.59946  22463475.150    22463488.4424
  20970618.402    -5226224.874 9  -3865206.42747  20970618.573    20970627.4874
 00  1 22 19 37  0.0000000  0 10 19 02 18 11 27 26 31 08 07 13
  21326020.998     2740287.718 9   2139456.23247  21326020.723    21326032.0064
  21412515.974   -10039716.580 9  -7807903.41948  21412515.324    21412526.3944
  24204258.950    18265467.633 7  14226104.14445  24204258.580    24204275.4034
  24288630.944    -4884809.510 7  -3595336.79745  24288630.271    24288647.4034
  20315722.706    -7444876.897 9  -5790968.82848  20315722.358    20315732.1264
  24025636.259    -2311717.828 7  -1784769.10345  24025636.278    24025655.0234
  23793900.158    10278367.750 7   8011636.47245  23793899.775    23793917.0824
  21549038.235   -17522150.834 8 -13634306.71547  21549037.662    21549050.1134
  22446096.646   -15685392.463 8 -11605327.11046  22446096.001    22446109.3504
  20977558.451    -5189754.851 9  -3836788.25447  20977558.618    20977567.5224
 00  1 22 19 37 30.0000000  0 10 19 02 18 11 27 26 31 08 07 13
  21335427.127     2789717.149 9   2177972.59647  21335426.851    21335438.1624
  21408558.488   -10060513.643 9  -7824108.91048  21408557.794    21408568.8224
  24226172.082    18380620.195 7  14315833.10545  24226171.699    24226188.5494
  24279848.912    -4930959.349 7  -3631297.61845  24279848.381    24279865.2254
  20315004.787    -7448649.628 9  -5793908.62148  20315004.415    20315014.2084
  24009883.542    -2394499.003 7  -1849273.72145  24009883.563    24009902.0254
  23812928.709    10378362.184 8   8089553.87145  23812928.332    23812945.5654
  21535102.771   -17595381.470 8 -13691369.46847  21535102.209    21535114.6904
  22428770.382   -15776442.419 8 -11676275.06846  22428769.756    22428783.0714
  20984608.455    -5152707.211 9  -3807919.99347  20984608.618    20984617.4834
 00  1 22 19 38  0.0000000  0 10 19 02 18 11 27 26 31 08 07 13
  21344900.261     2839498.598 9   2216763.26547  21344899.983    21344911.2914
  21404640.645   -10081101.835 9  -7840151.63848  21404639.976    21404651.0254
  24248096.911    18495834.081 7  14405609.86045  24248096.401    24248113.3474
  24271124.665    -4976805.757 7  -3667022.01445  24271124.130    24271140.8934
  20314363.777    -7452017.867 9  -5796533.22648  20314363.429    20314373.2674
  23994189.422    -2476971.811 7  -1913538.03045  23994189.458    23994207.7684
  23832013.777    10478653.130 7   8167702.32345  23832013.400    23832030.6504
  21521200.084   -17668440.189 8 -13748298.26447  21521199.534    21521212.0134
  22411497.301   -15867213.306 8 -11747005.55246  22411496.564    22411509.9134
  20991766.717    -5115090.528 9  -3778608.32347  20991766.882    20991775.7384
 00  1 22 19 38 30.0000000  0 10 19 02 18 11 27 26 31 08 07 13
  21354442.210     2889641.916 9   2255835.89647  21354441.937    21354453.2864
  21400762.999   -10101479.080 9  -7856029.99748  21400762.321    21400773.3884
  24270032.966    18611107.375 7  14495432.89445  24270032.466    24270049.3104
  24262454.806    -5022365.913 7  -3702523.36345  24262454.382    24262471.0074
  20313799.030    -7454985.731 9  -5798845.85148  20313798.690    20313808.5574
  23978557.276    -2559118.681 7  -1977548.35045  23978557.290    23978575.4404
  23851154.863    10579237.996 7   8246079.78345  23851154.339    23851171.6544
  21507327.939   -17741338.685 8 -13805102.22747  21507327.357    21507339.8224
  22394278.063   -15957700.669 8 -11817515.10646  22394277.355    22394290.7404
  20999031.054    -5076916.227 9  -3748862.14747  20999031.223    20999040.0834
 00  1 22 19 39  0.0000000  0 10 19 02 18 11 27 26 31 08 07 13
  21364053.871     2940151.279 9   2295193.76347  21364053.633    21364064.9974
  21396918.364   -10121682.805 9  -7871773.14648  21396917.692    21396928.7284
  24291978.201    18726428.896 7  14585293.50145  24291977.673    24291994.6244
  24253840.660    -5067633.581 8  -3737796.80345  24253840.246    24253856.7894
  20313309.399    -7457558.884 9  -5800850.91248  20313309.039    20313318.9244
  23962990.292    -2640923.691 7  -2041292.30145  23962990.337    23963008.3134
  23870349.810    10680106.320 7   8324678.15745  23870349.231    23870366.6034
  21493487.545   -17814070.098 8 -13861775.99247  21493486.969    21493499.4294
  22377115.511   -16047889.706 8 -11887792.19046  22377114.866    22377128.2754
  21006399.457    -5038194.919 9  -3718689.73247  21006399.642    21006408.4934
 00  1 22 19 39 30.0000000  0 10 19 02 18 11 27 26 31 08 07 13
  21373731.926     2991009.301 9   2334823.31347  21373731.663    21373743.0224
  21393104.730   -10141723.639 9  -7887389.36548  21393104.062    21393115.1004
  24313933.751    18841804.761 7  14675196.46145  24313933.313    24313950.1544
  24245284.774    -5112595.158 7  -3772831.74045  24245284.269    24245300.8184
  20312891.883    -7459753.072 9  -5802560.67548  20312891.528    20312901.4394
  23947488.288    -2722386.835 7  -2104769.85945  23947488.359    23947506.2074
  23889592.653    10781226.467 8   8403472.71645  23889592.119    23889609.5394
  21479678.072   -17886638.946 8 -13918323.07747  21479677.499    21479690.0094
  22360007.918   -16137790.351 8 -11957844.53446  22360007.279    22360020.6744
  21013867.288    -4998951.372 9  -3688110.37447  21013867.472    21013876.3464
 00  1 22 19 40  0.0000000  0 10 19 02 18 11 27 26 31 08 07 13
  21383474.072     3042204.487 8   2374715.59247  21383473.829    21383485.1974
  21389321.309   -10161605.673 9  -7902881.84248  21389320.632    21389331.6644
  24335898.063    18957226.754 7  14765135.36145  24335897.629    24335914.4754
  24236788.258    -5157243.877 7  -3807622.89645  24236787.921    24236804.4694
  20312545.615    -7461572.804 9  -5803978.65548  20312545.267    20312555.1894
  23932049.132    -2803518.874 7  -2167989.40845  23932049.128    23932067.1364
  23908878.323    10882571.647 8   8482442.67545  23908877.807    23908895.2374
  21465898.817   -17959049.276 8 -13974746.64247  21465898.268    21465910.7344
  22342952.071   -16227419.061 8 -12027684.98546  22342951.427    22342964.7824
  21021431.687    -4959200.447 9  -3657135.65747  21021431.866    21021440.7114
 00  1 22 19 40 30.0000000  0 10 19 02 18 11 27 26 31 08 07 13
  21393277.814     3093723.272 9   2414860.02047  21393277.572    21393288.9424
  21385568.378   -10181327.061 9  -7918249.13948  21385567.730    21385578.7784
  24357867.850    19072677.688 7  14855096.80945  24357867.529    24357884.3454
  24228352.249    -5201574.889 8  -3842166.48245  24228351.911    24228368.4804
  20312268.428    -7463029.511 9  -5805113.75248  20312268.069    20312277.9814
  23916672.606    -2884322.226 7  -2230952.82345  23916672.633    23916690.6344
  23928203.257    10984123.430 8   8561573.64045  23928202.729    23928220.1754
  21452149.730   -18031301.290 8 -14031046.84747  21452149.166    21452161.6134
  22325948.899   -16316771.069 8 -12097309.79746  22325948.228    22325961.5484
  21029093.533    -4918937.484 9  -3625761.94247  21029093.691    21029102.5344
 00  1 22 19 41  0.0000000  0 10 19 02 18 11 27 26 31 08 07 13
  21403141.224     3145555.606 9   2455248.77447  21403140.984    21403152.3194
  21381847.428   -10200880.859 9  -7933485.85348  21381846.766    21381857.8074
  24379841.266    19188147.861 7  14945073.25045  24379841.036    24379857.8764
  24219978.470    -5245579.628 8  -3876455.82845  24219978.008    24219994.5554
  20312058.558    -7464132.510 9  -5805973.23148  20312058.205    20312068.1164
  23901355.613    -2964812.444 7  -2293672.25145  23901355.666    23901373.7354
  23947568.239    11085885.971 8   8640868.78845  23947567.753    23947585.3734
  21438432.756   -18103384.417 8 -14087215.44847  21438432.202    21438444.6054
  22308997.048   -16405853.703 8 -12166724.69346  22308996.313    22309009.6124
  21036854.321    -4878154.450 9  -3593982.97847  21036854.469    21036863.3294
 00  1 22 19 41 30.0000000  0 10 19 02 18 11 27 26 31 08 07 13
  21413060.758     3197682.549 9   2495867.09547  21413060.507    21413071.8064
  21378161.683   -10220249.653 9  -7948578.41448  21378161.017    21378172.0374
  24401817.240    19303631.194 7  15035059.95145  24401816.993    24401833.9014
  24211664.862    -5289267.502 7  -3910498.28845  24211664.454    24211680.9644
  20311913.488    -7464894.957 9  -5806567.35448  20311913.115    20311923.0224
  23886096.503    -3044998.189 7  -2356154.40045  23886096.550    23886114.6624
  23966975.080    11187867.935 8   8720334.95845  23966974.538    23966992.2234
  21424746.198   -18175307.935 8 -14143259.67847  21424745.647    21424757.9464
  22292097.391   -16494661.673 8 -12235925.56046  22292096.643    22292109.8994
  21044716.105    -4836840.477 9  -3561790.29847  21044716.266    21044725.1424
 00  1 22 19 42  0.0000000  0 10 19 02 18 11 27 26 31 08 07 13
  21423037.462     3250110.030 9   2536719.59847  21423037.180    21423048.4784
  21374509.952   -10239439.566 9  -7963531.58448  21374509.285    21374520.2584
  24423790.277    19419099.024 7  15125034.55345  24423789.981    24423807.1084
  24203409.728    -5332647.676 8  -3944300.99445  24203409.389    24203426.0024
  20311831.732    -7465324.761 9  -5806902.27048  20311831.382    20311841.2584
  23870897.138    -3124869.726 7  -2418391.73145  23870897.202    23870915.4834
  23986425.317    11290077.713 7   8799978.62645  23986424.693    23986442.4024
  21411088.709   -18247078.488 8 -14199184.69747  21411088.142    21411100.3814
  22275251.065   -16583188.967 8 -12304907.71546  22275250.405    22275263.5844
  21052684.332    -4794967.062 9  -3529161.68647  21052684.490    21052693.4474
 00  1 22 19 42 30.0000000  0 10 19 02 18 11 27 26 31 08 07 13
  21433072.354     3302843.292 9   2577810.36747  21433072.093    21433083.4154
  21370892.896   -10258447.415 9  -7978342.88848  21370892.209    21370903.2054
  24445758.534    19534541.703 7  15214989.56645  24445758.313    24445775.3994
  24195210.935    -5375732.163 8  -3977873.28245  24195210.654    24195227.1664
  20311812.470    -7465426.121 9  -5806981.26148  20311812.115    20311821.9634
  23855760.668    -3204411.749 7  -2480372.32045  23855760.710    23855778.9324
  24005920.192    11392522.616 7   8879805.53545  24005919.618    24005937.3564
  21397461.922   -18318687.571 8 -14254983.89347  21397461.356    21397473.5544
  22258457.548   -16671439.098 8 -12373673.87646  22258456.861    22258470.0114
  21060759.267    -4752532.707 9  -3496095.98347  21060759.460    21060768.4624
 00  1 22 19 43  0.0000000  0 10 19 02 18 11 27 26 31 08 07 13
  21443166.743     3355888.995 9   2619144.60047  21443166.445    21443177.7874
  21367309.487   -10277278.159 9  -7993016.19448  21367308.810    21367319.7904
  24467724.072    19649970.286 7  15304933.57645  24467723.986    24467741.0924
  24187067.187    -5418527.861 7  -4011220.51945  24187066.832    24187083.3744
  20311857.800    -7465187.866 9  -5806795.61948  20311857.454    20311867.2834
  23840690.579    -3283605.473 8  -2542081.50545  23840690.714    23840708.6944
  24025459.028    11495198.953 7   8959812.75345  24025458.521    24025476.3094
  21383864.622   -18390141.321 8 -14310662.05347  21383864.069    21383876.2414
  22241715.065   -16759420.941 8 -12442230.98646  22241714.372    22241727.4574
  21068939.789    -4709543.952 9  -3462598.28347  21068939.976    21068948.9514
 00  1 22 19 43 30.0000000  0 10 19 02 18 11 27 26 31 08 07 13
  21453321.687     3409253.305 9   2660727.09547  21453321.414    21453332.7844
  21363758.203   -10295940.532 9  -8007558.30348  21363757.528    21363768.4284
  24489686.691    19765383.038 7  15394865.26345  24489686.493    24489703.6864
  24178979.446    -5461028.380 7  -4044337.73945  24178979.161    24178995.7194
  20311968.884    -7464604.190 9  -5806340.81948  20311968.517    20311978.3464
  23825690.758    -3362429.840 8  -2603502.88645  23825690.808    23825708.8024
  24045037.231    11598082.334 7   9039981.25145  24045036.648    24045054.7504
  21370295.050   -18461449.562 8 -14366226.81847  21370294.503    21370306.6804
  22225025.297   -16847125.565 8 -12510572.07646  22225024.606    22225037.6594
  21077225.197    -4666003.877 9  -3428670.98047  21077225.361    21077234.3664
 00  1 22 19 44  0.0000000  0 10 19 02 18 11 27 26 31 08 07 13
  21463540.733     3462954.482 9   2702572.08447  21463540.490    21463551.9164
  21360238.989   -10314434.284 9  -8021969.02448  21360238.295    21360249.1784
  24511647.518    19880786.124 7  15484789.41545  24511647.279    24511664.5364
  24170948.707    -5503230.325 7  -4077222.29145  24170948.331    24170964.9504
  20312149.541    -7463654.780 9  -5805601.03248  20312149.182    20312159.0084
  23810761.192    -3440884.945 8  -2664636.54245  23810761.243    23810779.0614
  24064652.354    11701159.636 7   9120300.86545  24064651.797    24064669.9494
  21356755.085   -18532602.172 8 -14421670.32847  21356754.557    21356766.6754
  22208386.530   -16934562.344 8 -12578704.44846  22208385.845    22208398.8714
  21085611.964    -4621931.266 9  -3394328.71947  21085612.144    21085621.1774
 00  1 22 19 44 30.0000000  0 10 19 02 18 11 27 26 31 08 07 13
  21473825.497     3517001.230 9   2744686.35447  21473825.270    21473836.7544
  21356752.473   -10332756.006 9  -8036245.69348  21356751.788    21356762.6644
  24533610.442    19996200.506 7  15574722.37545  24533610.114    24533627.5104
  24162976.111    -5545126.072 7  -4109868.26645  24162975.710    24162992.4344
  20312405.006    -7462312.334 9  -5804554.98648  20312404.635    20312414.4464
  23795899.138    -3518985.143 8  -2725493.65045  23795899.182    23795916.8174
  24084305.344    11804435.743 7   9200775.46745  24084304.852    24084323.0374
  21343247.727   -18603583.263 8 -14476980.17247  21343247.178    21343259.3014
  22191801.097   -17021718.808 8 -12646618.39846  22191800.406    22191813.3914
  21094096.921    -4577342.632 9  -3359584.35847  21094097.090    21094106.1564
 00  1 22 19 45  0.0000000  0 10 19 02 18 11 27 26 31 08 07 13
  21484176.618     3571396.305 8   2787072.04947  21484176.354    21484187.8894
  21353299.543   -10350901.217 9  -8050384.81948  21353298.859    21353309.7484
  24555575.656    20111626.794 7  15664664.61145  24555575.268    24555592.7354
  24155067.202    -5586687.757 7  -4142253.92545  24155066.805    24155083.2854
  20312737.532    -7460564.833 9  -5803193.31548  20312737.175    20312747.0014
  23781101.362    -3596747.525 8  -2786087.51745  23781101.406    23781118.9234
  24103997.948    11907919.907 7   9281412.19245  24103997.231    24104015.8014
  21329773.719   -18674389.406 8 -14532153.69547  21329773.165    21329785.3014
  22175272.631   -17108575.796 8 -12714298.98747  22175271.939    22175284.8674
  21102680.927    -4532233.613 9  -3324434.50247  21102681.088    21102690.1894
 00  1 22 19 45 30.0000000  0 10 19 02 18 11 27 26 31 08 07 13
  21494594.920     3626144.472 8   2829732.86947  21494594.652    21494606.2334
  21349880.697   -10368867.569 9  -8064384.58448  21349880.006    21349890.8894
  24577542.630    20227062.481 7  15754614.15045  24577542.271    24577559.7444
  24147222.955    -5627909.543 7  -4174374.72045  24147222.516    24147239.0544
  20313148.747    -7458404.006 9  -5801509.57948  20313148.380    20313158.2274
  23766366.143    -3674180.633 8  -2846424.79945  23766366.247    23766383.6294
  24123733.417    12011630.098 7   9362225.03245  24123732.767    24123751.5644
  21316335.214   -18745009.038 8 -14587181.89647  21316334.649    21316346.7404
  22158804.676   -17195114.367 8 -12781731.46847  22158804.029    22158816.8814
  21111362.968    -4486609.275 9  -3288883.10147  21111363.137    21111372.2794
 00  1 22 19 46  0.0000000  0 10 19 02 18 11 27 26 31 08 07 13
  21505081.269     3681250.380 8   2872672.45247  21505081.042    21505092.7014
  21346493.748   -10386666.111 9  -8078253.58348  21346493.030    21346503.9394
  24599510.836    20342504.623 7  15844568.72345  24599510.463    24599527.9964
  24139441.338    -5668801.985 7  -4206238.87745  24139440.873    24139457.2564
  20313639.720    -7455823.992 9  -5799499.20348  20313639.360    20313649.1884
  23751693.377    -3751285.855 8  -2906506.59145  23751693.505    23751710.7694
  24143516.788    12115591.985 7   9443234.01345  24143516.181    24143535.2524
  21302934.719   -18815428.720 8 -14642054.29047  21302934.166    21302946.2124
  22142398.153   -17281330.218 8 -12848912.48047  22142397.518    22142410.3154
  21120142.869    -4440470.536 9  -3252930.86647  21120143.049    21120152.2074
 00  1 22 19 46 30.0000000  0 10 19 02 18 11 27 26 31 08 07 13
  21515633.972     3736704.867 8   2915883.65247  21515633.727    21515645.4154
  21343137.127   -10404305.226 9  -8091998.35448  21343136.444    21343147.3114
  24621478.334    20457943.194 7  15934520.52345  24621477.935    24621495.5224
  24131723.083    -5709361.048 7  -4237843.23245  24131722.766    24131739.0624
  20314207.987    -7452837.714 9  -5797172.25748  20314207.637    20314217.4514
  23737085.773    -3828048.382 8  -2966321.36345  23737085.878    23737103.1344
  24163350.743    12219819.343 7   9524449.88245  24163350.081    24163369.3634
  21289570.168   -18885659.455 8 -14696779.45547  21289569.598    21289581.6024
  22126055.559   -17367210.514 8 -12915832.01647  22126054.881    22126067.6314
  21129020.959    -4393816.186 9  -3216576.85947  21129021.113    21129030.2934
 00  1 22 19 47  0.0000000  0 10 19 02 18 11 27 26 31 08 07 13
  21526249.477     3792489.503 8   2959352.11947  21526249.228    21526260.9574
  21339810.613   -10421786.477 9  -8105620.10748  21339809.907    21339820.7374
  24643443.939    20573371.620 7  16024464.40445  24643443.508    24643461.0724
  24124066.657    -5749595.443 7  -4269194.62245  24124066.356    24124082.6964
  20314849.918    -7449464.340 9  -5794543.67848  20314849.562    20314859.3834
  23722546.675    -3904450.311 8  -3025855.13545  23722546.724    23722564.1134
  24183232.528    12324297.900 7   9605861.40245  24183231.876    24183251.1844
  21276238.792   -18955716.027 8 -14751368.91547  21276238.257    21276250.1824
  22109774.201   -17452768.984 8 -12982500.78747  22109773.523    22109786.2594
  21137996.424    -4346649.684 9  -3179823.77147  21137996.599    21138005.7824
 00  1 22 19 47 30.0000000  0 10 19 02 18 11 27 26 31 08 07 13
  21536927.531     3848602.520 8   3003076.46047  21536927.285    21536938.9954
  21336511.011   -10439125.933 9  -8119131.37248  21336510.331    21336521.1394
  24665407.599    20688790.017 7  16114400.47245  24665407.173    24665424.8044
  24116467.050    -5789530.974 7  -4300313.12145  24116466.728    24116483.0754
  20315564.713    -7445708.206 9  -5791616.84748  20315564.357    20315574.2064
  23708078.874    -3980477.572 7  -3085096.96445  23708078.929    23708096.3754
  24203156.979    12429000.831 7   9687447.75945  24203156.373    24203175.8834
  21262939.365   -19025604.896 8 -14805827.70047  21262938.794    21262950.6884
  22093553.169   -17538010.383 8 -13048922.49347  22093552.512    22093565.2224
  21147068.279    -4298976.910 9  -3142676.18947  21147068.469    21147077.6234
 00  1 22 19 48  0.0000000  0 10 19 02 18 11 27 26 31 08 07 13
  21547666.544     3905036.199 8   3047050.66447  21547666.311    21547678.0114
  21333239.601   -10456317.234 9  -8132527.19048  21333238.916    21333249.6774
  24687366.966    20804186.220 7  16204319.25145  24687366.631    24687384.3554
  24108926.493    -5829155.457 7  -4331189.26245  24108926.308    24108942.7294
  20316350.593    -7441578.474 9  -5788398.90448  20316350.253    20316360.1014
  23693680.056    -4056142.394 8  -3144056.37645  23693680.157    23693697.6074
  24223120.743    12533910.729 7   9769195.40645  24223120.212    24223139.8014
  21249672.185   -19095324.381 9 -14860154.50347  21249671.619    21249683.4374
  22077389.599   -17622950.017 8 -13115109.06147  22077388.932    22077401.6064
  21156238.790    -4250785.961 9  -3105124.83547  21156238.950    21156248.0614
 00  1 22 19 48 30.0000000  0 10 19 02 18 11 27 26 31 08 07 13
  21558465.393     3961784.225 8   3091269.81947  21558465.175    21558476.8594
  21330001.998   -10473330.990 9  -8145784.65448  21330001.327    21330012.0614
  24709323.984    20919569.913 7  16294228.28445  24709323.661    24709341.4814
  24101449.880    -5868444.996 7  -4361804.38745  24101449.624    24101466.1154
  20317209.119    -7437067.194 9  -5784883.65048  20317208.769    20317218.6154
  23679348.694    -4131453.397 8  -3202740.08645  23679348.838    23679366.2784
  24243119.339    12639002.741 7   9851085.02745  24243118.808    24243138.5874
  21236436.453   -19164878.411 9 -14914352.37547  21236435.862    21236447.6734
  22061281.777   -17707596.440 8 -13181067.15047  22061281.133    22061293.7414
  21165509.558    -4202067.977 9  -3067162.80347  21165509.703    21165518.8264
 00  1 22 19 49  0.0000000  0 10 19 02 18 11 27 26 31 08 07 13
  21569328.097     4018867.673 8   3135750.33447  21569327.865    21569339.5604
  21326800.421   -10490155.485 9  -8158894.64448  21326799.744    21326810.4744
  24731278.292    21034939.307 7  16384126.17045  24731277.912    24731295.8464
  24094040.748    -5907379.906 7  -4392143.18345  24094040.394    24094056.8194
  20318144.083    -7432153.980 9  -5781055.20148  20318143.732    20318153.5884
  23665083.794    -4206415.490 8  -3261151.93045  23665083.874    23665101.4304
  24263149.909    12744262.915 7   9933105.60945  24263149.511    24263169.1104
  21223235.375   -19234250.218 9 -14968408.26047  21223234.791    21223246.5544
  22045230.809   -17791944.354 8 -13246792.63647  22045230.145    22045242.7414
  21174884.220    -4152803.793 9  -3028775.16147  21174884.393    21174893.5174
 00  1 22 19 49 30.0000000  0 10 19 02 18 11 27 26 31 08 07 13
  21580257.666     4076302.402 8   3180504.58447  21580257.409    21580269.0844
  21323635.032   -10506789.589 9  -8171856.27548  21323634.325    21323645.1174
  24753227.044    21150279.523 7  16474001.31145  24753226.677    24753244.6704
  24086704.449    -5945931.375 7  -4422183.19645  24086704.132    24086720.7424
  20319157.281    -7426829.520 9  -5776906.30448  20319156.950    20319166.8264
  23650887.680    -4281016.067 8  -3319282.06745  23650887.761    23650905.1784
  24283215.159    12849705.308 7  10015268.19645  24283214.790    24283234.4694
  21210072.223   -19303422.704 9 -15022308.83147  21210071.643    21210083.3754
  22029240.581   -17875973.099 8 -13312269.40947  22029239.915    22029252.4734
  21184363.921    -4102987.848 9  -2989957.57347  21184364.070    21184373.1764
 00  1 22 19 50  0.0000000  0  9 19 02 11 27 26 31 08 07 13
  21591254.691     4134091.794 8   3225535.19747  21591254.415    21591266.0894
  21320511.066   -10523205.954 9  -8184648.24548  21320510.388    21320521.1804
  24079447.498    -5984066.587 7  -4451898.84145  24079447.226    24079463.7694
  20320250.482    -7421085.069 9  -5772430.14548  20320250.124    20320259.9944
  23636764.228    -4355235.190 8  -3377114.97345  23636764.299    23636781.5454
  24303318.819    12955349.515 7  10097588.01045  24303318.313    24303338.1924
  21196949.986   -19372380.389 9 -15076042.02147  21196949.397    21196961.0984
  22013312.105   -17959676.940 8 -13377493.01847  22013311.422    22013324.0204
  21193950.749    -4052608.653 9  -2950701.08947  21193950.903    21193960.0294
 00  1 22 19 50 30.0000000  0  9 19 02 11 27 26 31 08 07 13
  21602319.576     4192237.788 8   3270843.68047  21602319.285    21602330.9794
  21317426.158   -10539417.385 9  -8197280.52048  21317425.493    21317436.2594
  24072267.833    -6021795.384 7  -4481297.82345  24072267.536    24072284.1934
  20321422.985    -7414923.571 9  -5767629.00948  20321422.642    20321432.5324
  23622718.547    -4429045.771 8  -3434629.49845  23622718.552    23622735.7724
  24323459.776    13061189.975 7  10180060.68845  24323459.309    24323479.3654
  21183867.580   -19441128.328 9 -15129611.76747  21183867.004    21183878.7054
  21997447.063   -18043047.262 8 -13442456.74047  21997446.465    21997459.0574
  21203640.981    -4001686.349 9  -2911021.41047  21203641.155    21203650.2754
 00  1 22 19 51  0.0000000  0  9 19 02 11 27 26 31 08 07 13
  21613447.968     4250717.606 8   3316412.28647  21613447.661    21613459.4264
  21314368.608   -10555484.979 9  -8209800.71948  21314367.940    21314378.7294
  24065158.025    -6059157.673 7  -4510411.19945  24065157.649    24065174.2954
  20322664.873    -7408397.513 9  -5762543.80248  20322664.542    20322674.4094
  23608747.178    -4502465.094 8  -3491839.14845  23608747.174    23608764.2484
  24343633.455    13167201.729 7  10262666.85645  24343632.943    24343652.9394
  21170821.903   -19509683.648 9 -15183031.42347  21170821.335    21170833.0054
  21981642.630   -18126099.501 8 -13507172.60947  21981642.006    21981654.5934
  21213426.660    -3950262.656 9  -2870951.04147  21213426.810    21213435.8734
 00  1 22 19 51 30.0000000  0  9 19 02 11 27 26 31 08 07 13
  21624634.652     4309503.741 8   3362219.58347  21624634.367    21624646.1124
  21311336.667   -10571418.015 9  -8222216.06148  21311335.989    21311346.7744
  24058112.203    -6096182.741 7  -4539261.83145  24058111.756    24058128.6284
  20323971.670    -7401530.593 9  -5757192.98248  20323971.327    20323981.1734
  23594849.629    -4575496.109 8  -3548746.21345  23594849.656    23594866.6754
  24363838.781    13273379.717 7  10345402.58645  24363838.345    24363858.3564
  21157810.383   -19578059.131 9 -15236310.93547  21157809.813    21157821.4964
  21965895.288   -18208851.734 8 -13571654.70547  21965894.658    21965907.2164
  21223300.506    -3898375.317 9  -2830519.39047  21223300.655    21223309.7104
 00  1 22 19 52  0.0000000  0  9 19 02 11 27 26 31 08 07 13
  21635878.884     4368592.302 8   3408262.52747  21635878.603    21635890.3094
  21308331.541   -10587210.001 9  -8234521.50348  21308330.869    21308341.6844
  24051126.640    -6132892.151 8  -4567866.48245  24051126.231    24051143.0644
  20325345.619    -7394310.580 9  -5751567.03248  20325345.286    20325355.1254
  23581021.907    -4648160.887 8  -3605367.89445  23581021.908    23581038.8614
  24384074.333    13379716.440 7  10428262.02045  24384073.876    24384093.7834
  21144833.391   -19646253.157 9 -15289449.05747  21144832.847    21144844.5074
  21950204.260   -18291307.967 8 -13635906.16047  21950203.620    21950216.1304
  21233260.973    -3846032.694 9  -2789732.97647  21233261.129    21233270.2004
 00  1 22 19 52 30.0000000  0  9 19 02 11 27 26 31 08 07 13
  21647181.277     4427986.480 8   3454543.61547  21647181.018    21647192.7274
  21305351.192   -10602871.823 9  -8246725.51948  21305350.523    21305361.3764
  24044200.464    -6169290.054 8  -4596228.37945  24044200.027    24044216.7494
  20326789.694    -7386722.111 9  -5745653.97548  20326789.346    20326799.1694
  23567262.591    -4720465.946 8  -3661709.26945  23567262.594    23567279.4054
  24404342.134    13486222.826 7  10511253.68345  24404341.705    24404361.5124
  21131892.681   -19714256.646 9 -15342438.70647  21131892.146    21131903.8004
  21934574.932   -18373440.077 8 -13699905.05647  21934574.280    21934586.7364
  21243309.800    -3793225.915 9  -2748584.88047  21243309.942    21243319.0504
 00  1 22 19 53  0.0000000  0  9 19 02 11 27 26 31 08 07 13
  21658541.261     4487682.914 8   3501060.23447  21658540.994    21658552.6984
  21302397.675   -10618392.565 9  -8258819.59648  21302396.997    21302407.8914
  24037334.318    -6205371.638 8  -4624343.82345  24037333.870    24037350.6584
  20328308.985    -7378738.419 9  -5739432.94748  20328308.635    20328318.4554
  23553569.101    -4792424.282 8  -3717780.47845  23553569.194    23553585.9084
  24424643.063    13592903.855 7  10594381.44745  24424642.552    24424662.7174
  21118989.258   -19782064.260 9 -15395275.72247  21118988.719    21119000.3664
  21919009.593   -18455235.863 8 -13763641.88047  21919008.926    21919021.3264
  21253449.253    -3739942.546 9  -2707065.41647  21253449.413    21253458.5474
 00  1 22 19 53 30.0000000  0  9 19 02 11 27 26 31 08 07 13
  21669959.670     4547686.540 8   3547816.22547  21669959.409    21669971.0904
  21299477.781   -10633736.807 9  -8270776.14548  21299477.109    21299488.0204
  24030532.265    -6241116.747 8  -4652197.06445  24030531.879    24030548.5374
  20329912.552    -7370311.488 9  -5732866.54148  20329912.225    20329922.0874
  23539945.146    -4864017.519 8  -3773567.18945  23539945.266    23539961.9364
  24444981.070    13699779.889 7  10677661.18745  24444980.472    24445000.9254
  21106125.311   -19849664.491 9 -15447951.14747  21106124.774    21106136.4394
  21903511.506   -18536678.409 8 -13827103.46447  21903510.815    21903523.1524
  21263682.153    -3686168.525 9  -2665163.62947  21263682.309    21263691.4564
 00  1 22 19 54  0.0000000  0  9 19 02 11 27 26 31 08 07 13
  21681438.801     4608009.561 8   3594821.09847  21681438.582    21681450.2934
  21296593.303   -10648894.898 9  -8282587.64248  21296592.626    21296603.5564
  24023799.878    -6276495.736 8  -4679765.03045  24023799.569    24023816.0834
  20331603.300    -7361426.690 9  -5725943.34848  20331602.964    20331612.8514
  23526393.541    -4935231.136 8  -3829058.11045  23526393.627    23526410.1934
  24465359.245    13806866.364 7  10761104.87045  24465358.644    24465379.1704
  21093303.256   -19917044.409 9 -15500454.89447  21093302.721    21093314.4354
  21888085.548   -18617741.611 8 -13890269.45847  21888084.894    21888097.1584
  21274016.503    -3631861.432 9  -2622846.45947  21274016.665    21274025.8034
 00  1 22 19 54 30.0000000  0  9 19 02 11 27 26 31 08 07 13
  21692981.373     4668665.938 8   3642085.72347  21692981.142    21692992.8754
  21293744.147   -10663867.297 9  -8294254.44848  21293743.468    21293754.4094
  24017140.568    -6311490.762 8  -4707033.79845  24017140.240    24017156.5864
  20333380.330    -7352088.259 9  -5718666.67748  20333379.994    20333389.8984
  23512917.561    -5006047.406 8  -3884239.40445  23512917.676    23512934.0734
  24485775.700    13914153.519 7  10844704.89645  24485775.120    24485795.2834
  21080523.157   -19984203.979 9 -15552786.95447  21080522.638    21080534.3464
  21872730.390   -18698433.027 8 -13953145.75747  21872729.745    21872741.9344
  21284453.946    -3577012.546 9  -2580107.11747  21284454.109    21284463.2334
 00  1 22 19 55  0.0000000  0  9 19 02 11 27 26 31 08 07 13
  21704591.646     4729677.719 8   3689627.28147  21704591.364    21704603.1424
  21290933.215   -10678638.596 9  -8305764.55548  21290932.534    21290943.5024
  24010558.165    -6346080.973 8  -4733987.12445  24010557.857    24010574.1974
  20335242.208    -7342304.078 9  -5711042.66848  20335241.875    20335251.7914
  23499520.355    -5076449.662 8  -3939098.10445  23499520.441    23499536.7574
  24506228.532    14021631.884 7  10928453.88845  24506227.990    24506248.0144
  21067786.709   -20051134.301 9 -15604940.37847  21067786.165    21067797.8684
  21857442.137   -18778773.045 8 -14015748.24147  21857441.438    21857453.5854
  21294991.844    -3521635.871 9  -2536956.50947  21294992.004    21295001.1044
 00  1 22 19 55 30.0000000  0  9 19 02 11 27 26 31 08 07 13
  21716269.617     4791045.938 8   3737446.59047  21716269.359    21716281.2774
  21288158.986   -10693217.180 9  -8317124.49948  21288158.305    21288169.2774
  24004054.006    -6380260.748 8  -4760620.62245  24004053.690    24004069.9594
  20337181.292    -7332114.138 9  -5703102.48648  20337180.973    20337190.8764
  23486205.003    -5146421.604 8  -3993621.48445  23486205.069    23486221.4254
  24526714.686    14129285.772 7  11012339.78845  24526714.228    24526734.1334
  21055093.386   -20117837.777 9 -15656917.04347  21055092.833    21055104.5314
  21842218.143   -18858775.100 8 -14078087.38647  21842217.478    21842229.5904
  21305628.369    -3465740.894 9  -2493402.02847  21305628.540    21305637.6204
 00  1 22 19 56  0.0000000  0  8 19 02 11 27 26 08 07 13
  21728019.130     4852790.084 8   3785558.82847  21728018.876    21728030.9224
  21285419.633   -10707612.370 9  -8328341.53848  21285418.951    21285429.9484
  23997629.555    -6414021.055 8  -4786927.27445  23997629.167    23997645.4444
  20339194.243    -7321536.148 9  -5694859.92748  20339193.909    20339203.8424
  23472971.380    -5215963.732 8  -4047809.94545  23472971.460    23472987.7634
  21042444.768   -20184306.446 9 -15708710.74547  21042444.219    21042455.9334
  21827057.984   -18938441.797 8 -14140165.22047  21827057.333    21827069.3834
  21316363.391    -3409328.024 9  -2449443.99347  21316363.568    21316372.6974
 00  1 22 19 56 30.0000000  0  8 19 02 11 27 26 08 07 13
  21739835.086     4914882.978 8   3833942.82047  21739834.795    21739846.8904
  21282708.430   -10721859.759 9  -8339443.40248  21282707.748    21282718.7544
  23991280.573    -6447385.276 8  -4812925.30445  23991280.163    23991296.4184
  20341277.372    -7310589.395 9  -5686330.01448  20341277.047    20341286.9754
  23459814.615    -5285102.201 8  -4101683.86345  23459814.739    23459831.0244
  21029837.003   -20250560.543 9 -15760337.24647  21029836.457    21029848.1574
  21811956.579   -19017799.597 8 -14202002.36347  21811955.947    21811967.9184
  21327186.365    -3352453.181 9  -2405125.98747  21327186.536    21327195.6784
 00  1 22 19 57  0.0000000  0  8 19 02 11 27 26 08 07 13
  21751709.672     4977284.137 8   3882567.01747  21751709.405    21751721.5194
  21280018.744   -10735993.975 9  -8350457.08548  21280018.090    21280029.0984
  23985002.571    -6480376.300 8  -4838632.52345  23985002.119    23985018.3474
  20343424.502    -7299306.311 9  -5677538.02648  20343424.170    20343434.1194
  23446731.533    -5353853.331 8  -4155255.96445  23446731.676    23446747.9334
  21017264.078   -20316631.338 9 -15811820.92047  21017263.511    21017275.2044
  21796912.136   -19096858.433 8 -14263606.55647  21796911.502    21796923.3824
  21338091.097    -3295148.746 9  -2360473.23447  21338091.277    21338100.4254
 00  1 22 19 57 30.0000000  0  8 19 02 11 27 26 08 07 13
  21763637.718     5039966.321 8   3931410.19747  21763637.487    21763649.6194
  21277348.097   -10750028.523 9  -8361393.10748  21277347.429    21277358.4264
  23978790.595    -6513020.232 8  -4864069.29945  23978790.119    23978806.3854
  20345635.276    -7287688.656 9  -5668485.33248  20345634.950    20345644.9174
  23433719.495    -5422230.611 8  -4208536.76645  23433719.624    23433735.9254
  21004722.387   -20382538.196 9 -15863176.85647  21004721.844    21004733.4404
  21781924.414   -19175619.071 8 -14324978.38947  21781923.768    21781935.5804
  21349076.714    -3237419.133 9  -2315489.17847  21349076.902    21349086.0464
 00  1 22 19 58  0.0000000  0  8 19 02 11 27 26 08 07 13
  21775620.792     5102937.179 8   3980478.30947  21775620.561    21775632.6524
  21274697.028   -10763960.137 9  -8372248.92848  21274696.354    21274707.3584
  23972644.595    -6545317.903 8  -4889236.26345  23972644.034    23972660.2414
  20347917.542    -7275695.421 9  -5659139.97548  20347917.200    20347927.1544
  23420776.407    -5490246.162 8  -4261535.70845  23420776.474    23420792.8484
  20992214.164   -20448269.042 9 -15914395.64047  20992213.603    20992225.1864
  21766996.039   -19254067.839 8 -14386107.21247  21766995.373    21767007.1344
  21360145.251    -3179254.115 9  -2270165.85047  21360145.409    21360154.5454
 00  1 22 19 58 30.0000000  0  8 19 02 11 27 26 08 07 13
  21787660.174     5166204.133 8   4029777.15247  21787659.967    21787672.0054
  21272070.716   -10777761.537 9  -8383003.28348  21272070.062    21272081.0214
  23966566.217    -6577259.652 8  -4914125.90845  23966565.662    23966581.9254
  20350276.307    -7263300.141 9  -5649481.34048  20350275.967    20350285.9134
  23407907.076    -5557873.869 8  -4314232.45445  23407907.153    23407923.4674
  20979742.208   -20513809.309 9 -15965465.91647  20979741.657    20979753.2724
  21752132.518   -19332175.402 8 -14446970.16547  21752131.863    21752143.6294
  21371302.566    -3120622.368 9  -2224478.83747  21371302.705    21371311.8844
 00  1 22 19 59  0.0000000  0  8 19 02 11 27 26 08 07 13
  21799758.820     5229782.393 8   4079318.57147  21799758.601    21799770.6004
  21269472.380   -10791416.244 9  -8393643.33448  21269471.711    21269482.6784
  23960555.293    -6608846.627 8  -4938739.10845  23960554.863    23960571.1064
  20352714.361    -7250488.255 9  -5639498.07548  20352714.019    20352723.9774
  23395115.133    -5625095.093 8  -4366612.45846  23395115.259    23395131.3964
  20967308.852   -20579146.477 9 -16016377.92947  20967308.315    20967319.9494
  21737335.845   -19409932.093 8 -14507559.71347  21737335.176    21737346.9934
  21382552.672    -3061502.538 9  -2178411.49847  21382552.827    21382562.0514
 00  1 22 19 59 30.0000000  0  8 19 02 11 27 26 08 07 13
  21811919.790     5293688.013 8   4129115.07747  21811919.552    21811931.4884
  21266904.709   -10804909.526 9  -8404157.60348  21266904.029    21266914.9914
  23954613.851    -6640069.275 8  -4963068.42145  23954613.376    23954629.5754
  20355238.111    -7237225.847 9  -5629163.76048  20355237.802    20355247.7584
  23382401.695    -5691904.339 8  -4418671.43546  23382401.780    23382417.8494
  20954918.759   -20644256.371 9 -16067112.84447  20954918.232    20954929.8624
  21722608.608   -19487323.678 8 -14567864.76847  21722607.962    21722619.8154
  21393898.970    -3001877.235 9  -2131950.28247  21393899.132    21393908.4084
 00  1 22 20  0  0.0000000  0  8 19 02 11 27 26 08 07 13
  21824146.715     5357940.639 8   4179181.97547  21824146.498    21824158.4074
  21264368.604   -10818236.859 9  -8414542.55748  21264367.934    21264378.8764
  23948746.204    -6670904.263 8  -4987095.67545  23948745.689    23948761.8324
  20357850.824    -7223496.412 9  -5618465.53048  20357850.483    20357860.3994
  23369770.226    -5758282.479 8  -4470394.47046  23369770.275    23369786.3254
  20942575.343   -20709121.201 9 -16117656.80247  20942574.817    20942586.4094
  21707955.973   -19564323.479 8 -14627864.53847  21707955.345    21707967.2154
  21405344.508    -2941730.678 9  -2085082.89647  21405344.668    21405353.9904
 00  1 22 20  0 30.0000000  0  8 19 02 11 27 26 08 07 13
  21836438.856     5422536.123 8   4229516.03947  21836438.638    21836450.5464
  21261863.589   -10831400.876 9  -8424800.25148  21261862.918    21261873.8334
  23942955.617    -6701333.731 8  -5010806.94845  23942955.207    23942971.1644
  20360548.585    -7209319.866 9  -5607418.90248  20360548.266    20360558.1704
  23357223.435    -5824215.519 8  -4521770.69046  23357223.511    23357239.5864
  20930277.281   -20773747.817 9 -16168015.13847  20930276.741    20930288.2704
  21693376.632   -19640938.045 8 -14687564.13047  21693376.008    21693387.8704
  21416886.725    -2881075.993 9  -2037819.57347  21416886.908    21416896.2714
 00  1 22 20  1  0.0000000  0  8 19 02 11 27 26 08 07 13
  21848795.841     5487472.348 8   4280115.60347  21848795.653    21848807.5784
  21259386.714   -10844417.230 9  -8434942.88348  21259386.043    21259396.9284
  23937242.775    -6731355.071 8  -5034200.20245  23937242.253    23937258.3194
  20363331.062    -7194698.109 9  -5596025.36348  20363330.729    20363340.6314
  23344760.185    -5889709.549 8  -4572804.81446  23344760.300    23344776.3344
  20918023.542   -20838141.218 9 -16218191.73847  20918022.994    20918034.5854
  21678866.896   -19717187.168 8 -14746978.96347  21678866.253    21678878.0834
  21428519.613    -2819945.082 9  -1990185.16447  21428519.784    21428529.1684
 00  1 22 20  1 30.0000000  0  8 19 02 11 27 26 08 07 13
  21861216.392     5552742.077 8   4330975.03647  21861216.145    21861228.0844
  21256937.220   -10857289.489 9  -8444973.23548  21256936.529    21256947.3864
  23931608.769    -6760961.396 8  -5057270.07545  23931608.292    23931624.3884
  20366192.892    -7179659.095 9  -5584306.69048  20366192.558    20366202.4714
  23332378.328    -5954775.477 8  -4623505.36646  23332378.451    23332394.4064
  20905814.032   -20902302.341 9 -16268187.34747  20905813.506    20905825.0644
  21664425.463   -19793077.620 9 -14806114.31747  21664424.791    21664436.5454
  21440240.445    -2758351.848 9  -1942190.51247  21440240.620    21440250.0524
 00  1 22 20  2  0.0000000  0  8 19 02 11 27 26 08 07 13
  21873698.122     5618333.762 8   4382085.34447  21873697.844    21873709.8144
  21254515.137   -10870017.833 9  -8454891.44948  21254514.466    21254525.3064
  23926051.912    -6790162.116 8  -5080023.89745  23926051.530    23926067.6984
  20369125.734    -7164247.040 9  -5572297.33748  20369125.388    20369135.3544
  23320075.772    -6019425.076 8  -4673881.51146  23320075.968    23320091.7724
  20893647.769   -20966236.293 9 -16318005.93847  20893647.219    20893658.7914
  21650049.386   -19868624.375 9 -14864981.85747  21650048.713    21650060.4094
  21452043.814    -2696325.029 9  -1893858.00247  21452043.989    21452053.4754
 00  1 22 20  2 30.0000000  0  8 19 02 11 27 26 08 07 13
  21886238.175     5684232.476 8   4433434.89547  21886237.943    21886250.0534
  21252120.843   -10882599.909 9  -8464695.68148  21252120.183    21252131.0384
  23920569.592    -6818971.398 8  -5102472.69745  23920569.145    23920585.5924
  20372126.780    -7148476.125 9  -5560008.34848  20372126.460    20372136.4824
  23307848.640    -6083678.363 8  -4723948.82746  23307848.802    23307864.5664
  20881525.020   -21029941.457 9 -16367646.25047  20881524.501    20881536.0554
  21635736.214   -19943840.319 9 -14923591.62247  21635735.562    21635747.2224
  21463924.861    -2633889.834 9  -1845207.27047  21463925.044    21463934.5644
 00  1 22 20  3  0.0000000  0  8 19 02 11 27 26 08 07 13
  21898836.400     5750436.469 8   4485022.32647  21898836.171    21898848.4004
  21249755.585   -10895029.326 9  -8474380.95948  21249754.921    21249765.7674
  23915158.484    -6847405.891 8  -5124629.46245  23915158.111    23915174.6874
  20375198.643    -7132333.587 9  -5547429.78648  20375198.324    20375208.3434
  23295696.111    -6147539.089 8  -4773710.25146  23295696.286    23295712.0454
  20869448.612   -21093403.022 9 -16417096.73647  20869448.082    20869459.6284
  21621489.072   -20018709.220 9 -14981930.96647  21621488.395    21621500.0654
  21475885.473    -2571036.407 9  -1796230.64447  21475885.684    21475895.2454
 00  1 22 20  3 30.0000000  0  8 19 02 11 27 26 08 07 13
  21911492.341     5816943.581 8   4536845.94547  21911492.119    21911504.4344
  21247422.959   -10907287.350 9  -8483932.68448  21247422.286    21247433.1534
  23909820.536    -6875456.683 8  -5146487.23945  23909820.166    23909836.7484
  20378341.412    -7115818.221 9  -5534560.71148  20378341.088    20378351.1494
  23283619.258    -6211002.643 8  -4823162.19746  23283619.366    23283635.1604
  20857421.965   -21156603.335 9 -16466343.65247  20857421.467    20857432.9524
  21607310.311   -20093218.538 8 -15039990.11547  21607309.671    21607321.3834
  21487929.649    -2507744.353 9  -1746912.23447  21487929.845    21487939.3894
 00  1 22 20  4  0.0000000  0  8 19 02 11 27 26 08 07 13
  21924206.683     5883757.651 8   4588908.74647  21924206.477    21924218.8414
  21245124.586   -10919365.180 9  -8493344.00548  21245123.917    21245134.8094
  23904557.316    -6903115.377 8  -5168039.45245  23904556.899    23904573.4514
  20381562.613    -7098890.856 9  -5521370.59648  20381562.298    20381572.3554
  23271620.298    -6274057.050 8  -4872295.32746  23271620.353    23271636.1124
  20845445.426   -21219540.219 9 -16515385.30447  20845444.909    20845456.3274
  21593205.040   -20167341.880 9 -15097748.51047  21593204.406    21593216.1204
  21500059.313    -2444002.897 9  -1697243.65847  21500059.508    21500069.0204
 00  1 22 20  4 30.0000000  0  8 19 02 11 27 26 08 07 13
  21936981.542     5950889.462 8   4641219.14547  21936981.343    21936993.7274
  21242860.326   -10931263.854 9  -8502615.70648  21242859.664    21242870.6004
  23899371.231    -6930368.240 8  -5189275.44245  23899370.840    23899387.4524
  20384870.763    -7081506.499 9  -5507824.37248  20384870.448    20384880.5064
  23259702.117    -6336686.943 8  -4921097.66246  23259702.214    23259717.9194
  20833521.068   -21282203.026 9 -16564213.37047  20833520.574    20833531.9614
  21579175.265   -20241068.628 9 -15155197.85047  21579174.608    21579186.3204
  21512279.760    -2379784.424 9  -1647203.35947  21512279.978    21512289.4484
 00  1 22 20  5  0.0000000  0  8 19 02 11 27 26 08 07 13
  21949819.809     6018354.478 8   4693789.17947  21949819.606    21949831.9654
  21240631.738   -10942975.150 9  -8511741.40948  21240631.087    21240642.0724
  23894267.880    -6957185.928 8  -5210172.33745  23894267.493    23894284.1224
  20388269.473    -7063646.488 9  -5493907.52048  20388269.135    20388279.1874
  23247871.994    -6398853.487 8  -4969538.95946  23247872.103    23247887.8134
  20821649.521   -21344588.227 9 -16612825.12447  20821648.993    20821660.3634
  21565222.456   -20314390.747 9 -15212331.90147  21565221.808    21565233.4934
  21524596.514    -2315060.171 9  -1596768.95547  21524596.702    21524606.1184
 00  1 22 20  5 30.0000000  0  8 19 02 11 27 26 08 07 13
  21962721.535     6086153.160 8   4746619.21946  21962721.374    21962733.7134
  21238438.882   -10954498.888 9  -8520720.96248  21238438.225    21238449.2194
  23889249.388    -6983558.297 8  -5230722.22145  23889249.017    23889265.5104
  20391756.287    -7045323.241 9  -5479629.69648  20391755.951    20391766.0254
  23236131.154    -6460551.251 8  -5017614.97546  23236131.252    23236146.9564
  20809827.366   -21406713.639 9 -16661234.44947  20809826.837    20809838.1604
  21551344.903   -20387317.415 9 -15269157.81047  21551344.245    21551355.9364
  21537006.766    -2249844.121 9  -1545951.32647  21537006.950    21537016.4074
 00  1 22 20  6  0.0000000  0  8 19 02 11 27 26 08 07 13
  21975686.722     6154284.936 8   4799708.81246  21975686.538    21975698.8464
  21236279.262   -10965847.868 9  -8529564.33048  21236278.600    21236289.6164
  23884313.664    -7009495.853 8  -5250933.27645  23884313.294    23884329.6984
  20395332.891    -7026528.446 9  -5464984.43648  20395332.555    20395342.6104
  23224480.158    -6521776.842 8  -5065323.06446  23224480.207    23224495.9664
  20798051.634   -21468595.161 9 -16709453.73347  20798051.109    20798062.3864
  21537542.407   -20459849.635 9 -15325676.36247  21537541.770    21537553.4574
  21549508.404    -2184147.875 9  -1494759.52547  21549508.586    21549518.1104
 00  1 22 20  6 30.0000000  0  8 19 02 11 27 26 08 07 13
  21988716.381     6222755.692 8   4853062.54346  21988716.189    21988728.5564
  21234151.891   -10977027.105 9  -8538275.42348  21234151.233    21234162.2754
  23879460.944    -7034996.885 8  -5270804.20945  23879460.593    23879476.9284
  20398996.454    -7007276.397 9  -5449982.87048  20398996.129    20399006.2054
  23212920.983    -6582520.365 8  -5112655.52346  23212921.009    23212936.6654
  20786322.525   -21530231.567 9 -16757482.02047  20786322.009    20786333.2814
  21523810.042   -20532013.333 9 -15381907.75047  21523809.427    21523821.0434
  21562100.359    -2117976.845 9  -1443197.76247  21562100.528    21562110.1274
 00  1 22 20  7  0.0000000  0  8 19 02 11 27 26 08 07 13
  22001809.167     6291558.476 8   4906674.99646  22001808.965    22001821.3914
  21232054.001   -10988051.603 9  -8546865.94148  21232053.355    21232064.4274
  23874690.838    -7060063.720 8  -5290336.79245  23874690.536    23874706.7294
  20402742.336    -6987591.602 9  -5434644.10048  20402742.036    20402752.1364
  23201452.668    -6642786.408 8  -5159615.92246  23201452.728    23201468.2504
  20774635.952   -21591644.589 9 -16805336.24047  20774635.429    20774646.7164
  21510146.892   -20603813.470 9 -15437855.85147  21510146.256    21510157.8444
  21574776.438    -2051363.678 9  -1391291.48247  21574776.613    21574786.2754
 00  1 22 20  7 30.0000000  0  8 19 02 11 27 26 08 07 13
  22014965.510     6360694.966 8   4960547.47446  22014965.277    22014977.7334
  21229981.446   -10998942.992 9  -8555352.73248  21229980.800    21229991.9104
  23869999.212    -7084719.109 8  -5309548.76345  23869998.884    23870014.8934
  20406569.976    -6967477.582 9  -5418970.87248  20406569.656    20406579.7444
  23190070.237    -6702600.828 8  -5206224.39946  23190070.249    23190085.8104
  20762992.300   -21652832.319 9 -16853014.91647  20762991.770    20763003.0414
  21496553.088   -20675248.922 9 -15493519.78247  21496552.476    21496564.0494
  21587530.961    -1984338.346 9  -1339064.03747  21587531.153    21587540.8074
 00  1 22 20  8  0.0000000  0  8 19 02 11 27 26 08 07 13
  22028185.034     6430163.831 8   5014678.94346  22028184.775    22028197.2694
  21227930.267   -11009722.093 9  -8563752.02648  21227929.630    21227940.7294
  23865384.563    -7108969.570 8  -5328445.20145  23865384.168    23865400.1554
  20410479.960    -6946930.562 9  -5402960.24048  20410479.639    20410489.7144
  23178772.547    -6761970.248 8  -5252486.13046  23178772.639    23178788.0424
  20751396.089   -21713770.510 9 -16900499.14847  20751395.558    20751406.7974
  21483029.451   -20746316.075 9 -15548896.72747  21483028.849    21483040.4224
  21600363.912    -1916901.349 9  -1286515.81247  21600364.089    21600373.7554
 00  1 22 20  8 30.0000000  0  8 19 02 11 27 26 08 07 13
  22041467.667     6499964.573 8   5069069.02546  22041467.459    22041479.9994
  21225897.722   -11020403.382 9  -8572075.09948  21225897.077    21225908.1704
  23860848.341    -7132807.628 8  -5347020.29545  23860847.988    23860863.9064
  20414468.083    -6925972.935 9  -5386629.65948  20414467.768    20414477.8604
  23167557.345    -6820906.303 8  -5298410.17346  23167557.463    23167572.7514
  20739848.130   -21774454.891 9 -16947785.60847  20739847.622    20739858.8464
  21469576.993   -20817009.054 9 -15603982.10947  21469576.362    21469587.9124
  21613273.375    -1849062.160 9  -1233654.18547  21613273.532    21613283.2344
 00  1 22 20  9  0.0000000  0  8 19 02 11 27 26 08 07 13
  22054811.101     6570084.438 8   5123707.77946  22054810.932    22054823.4814
  21223881.826   -11030996.911 9  -8580329.78748  21223881.183    21223892.3084
  23856387.797    -7156247.595 8  -5365285.18345  23856387.427    23856403.3944
  20418533.631    -6904608.480 9  -5369982.07448  20418533.313    20418543.4244
  23156420.418    -6879430.621 8  -5344013.37646  23156420.524    23156435.7664
  20728347.768   -21834889.720 9 -16994877.61447  20728347.264    20728358.4034
  21456198.867   -20887311.453 9 -15658763.14347  21456198.253    21456209.7734
  21626257.556    -1780829.661 9  -1180486.08247  21626257.743    21626267.4784
 00  1 22 20  9 30.0000000  0  8 19 02 11 27 26 08 07 13
  22068214.134     6640517.454 8   5178590.55246  22068213.953    22068226.5634
  21221886.756   -11041481.020 9  -8588499.20948  21221886.124    21221897.1984
  23852003.159    -7179288.918 8  -5383239.45645  23852002.882    23852018.7524
  20422677.734    -6882831.048 9  -5353012.67948  20422677.415    20422687.5734
  23145360.170    -6937552.079 8  -5389302.67246  23145360.270    23145375.4104
  20716899.519   -21895050.786 9 -17041756.30247  20716898.989    20716910.1024
  21442896.695   -20957214.714 9 -15713233.16147  21442896.072    21442907.5984
  21639319.315    -1712190.025 9  -1127000.72547  21639319.501    21639329.2314
 00  1 22 20 10  0.0000000  0  8 19 02 11 27 26 08 07 13
  22081675.662     6711258.009 8   5233712.95546  22081675.524    22081688.1574
  21219919.859   -11051817.368 9  -8596553.49048  21219919.205    21219930.2304
  23847700.230    -7201900.958 8  -5400859.21645  23847699.981    23847715.8944
  20426901.023    -6860637.791 9  -5335719.26548  20426900.711    20426910.8794
  23134379.806    -6995253.395 8  -5434264.57546  23134379.942    23134395.0204
  20705505.364   -21954927.313 9 -17088413.27247  20705504.827    20705515.9364
  21429672.172   -21026710.227 9 -15767385.45247  21429671.537    21429683.0184
  21652461.821    -1643126.138 9  -1073184.79247  21652461.992    21652471.7424
 00  1 22 20 10 30.0000000  0  8 19 02 11 27 26 08 07 13
  22095196.033     6782307.344 8   5289075.96346  22095195.874    22095208.4874
  21217986.352   -11061978.146 9  -8604470.96548  21217985.704    21217996.6904
  23843483.224    -7224062.142 8  -5418127.65445  23843482.910    23843498.8164
  20431205.257    -6838018.974 9  -5318094.24748  20431204.941    20431215.1304
  23123482.471    -7052518.566 8  -5478886.63446  23123482.606    23123497.6694
  20694162.304   -22014535.306 9 -17134860.99947  20694161.770    20694172.8654
  21416525.606   -21095795.675 9 -15821218.21447  21416524.938    21416536.4244
  21665685.210    -1573636.931 9  -1019037.43947  21665685.408    21665695.1934
 00  1 22 20 11  0.0000000  0  8 19 02 11 27 26 08 07 13
  22108775.305     6853665.998 8   5344679.99746  22108775.093    22108787.6764
  21216090.037   -11071943.367 9  -8612236.05248  21216089.387    21216100.3464
  23839353.493    -7245764.291 8  -5435038.40545  23839353.169    23839369.0764
  20435593.951    -6814956.299 9  -5300123.36248  20435593.653    20435603.8914
  23112670.797    -7109333.366 8  -5523157.74346  23112670.931    23112686.0224
  20682872.593   -22073862.690 9 -17181090.06647  20682872.066    20682883.1514
  21403456.414   -21164474.216 9 -15874733.90647  21403455.796    21403467.2544
  21678992.286    -1503708.329 9   -964547.70447  21678992.486    21679002.2514
 00  1 22 20 11 30.0000000  0  8 19 02 11 27 26 08 07 13
  22122413.849     6925336.440 8   5400526.99046  22122413.612    22122426.1594
  21214231.748   -11081708.871 9  -8619845.51748  21214231.103    21214242.0234
  23835313.672    -7266994.236 8  -5451581.19245  23835313.246    23835329.1374
  20440066.969    -6791450.578 9  -5281807.24848  20440066.656    20440076.9094
  23101948.888    -7165677.212 8  -5567061.87746  23101948.963    23101964.0024
  20671639.142   -22132894.488 9 -17227088.81347  20671638.612    20671649.6604
  21390462.675   -21232756.435 9 -15927940.77647  21390462.051    21390473.5134
  21692385.087    -1433329.055 9   -909706.79247  21692385.284    21692395.0804
 00  1 22 20 12  0.0000000  0  8 19 02 11 27 26 08 07 13
  22136111.710     6997318.644 8   5456616.91246  22136111.468    22136124.0444
  21212404.869   -11091309.041 9  -8627326.15148  21212404.208    21212415.1284
  23831360.666    -7287767.144 8  -5467767.87145  23831360.213    23831376.2604
  20444623.071    -6767508.304 9  -5263150.96248  20444622.742    20444632.9994
  23091320.651    -7221528.791 8  -5610582.43246  23091320.702    23091335.7154
  20660458.981   -22191646.578 9 -17272869.61347  20660458.452    20660469.4654
  21377541.607   -21300656.775 9 -15980850.08647  21377540.996    21377552.5094
  21705863.201    -1362501.316 9   -854516.43147  21705863.393    21705873.2404
 00  1 22 20 12 30.0000000  0  8 19 02 11 27 26 08 07 13
  22149866.702     7069601.568 8   5512941.16546  22149866.526    22149879.0924
  21210602.289   -11100781.398 9  -8634707.19648  21210601.646    21210612.5524
  23827488.200    -7308116.767 8  -5483624.69045  23827487.783    23827503.8594
  20449261.150    -6743135.075 9  -5244158.87248  20449260.841    20449271.0934
  23080782.911    -7276904.098 8  -5653731.87746  23080782.986    23080797.9164
  20649329.929   -22250129.929 9 -17318441.00847  20649329.397    20649340.3894
  21364691.353   -21368184.949 9 -16033469.39547  21364690.722    21364702.2644
  21719425.528    -1291231.214 9   -798981.37747  21719425.724    21719435.6174
 00  1 22 20 13  0.0000000  0  8 19 02 11 27 26 08 07 13
  22163680.087     7142191.300 8   5569504.47946  22163679.933    22163692.5264
  21208819.441   -11110150.364 9  -8642007.67948  21208818.800    21208829.6924
  23823691.756    -7328066.804 8  -5499170.14145  23823691.371    23823707.5214
  20453979.822    -6718338.343 9  -5224836.77548  20453979.495    20453989.7724
  23070333.617    -7331815.203 8  -5696519.60846  23070333.671    23070348.5284
  20638255.319   -22308326.927 9 -17363789.26747  20638254.794    20638265.7944
  21351912.475   -21435337.910 9 -16085796.33247  21351911.859    21351923.4174
  21733070.909    -1219524.384 9   -743106.01147  21733071.088    21733081.0144
 00  1 22 20 13 30.0000000  0  8 19 02 11 27 26 08 07 13
  22177551.268     7215084.535 8   5626304.30346  22177551.131    22177563.7354
  21207056.288   -11119415.919 9  -8649227.58548  21207055.611    21207066.4904
  23819970.343    -7347622.469 8  -5514408.28745  23819969.998    23819986.1804
  20458778.257    -6693122.401 9  -5205188.02248  20458777.953    20458788.1924
  23059973.647    -7386256.382 8  -5738941.15146  23059973.733    23059988.6044
  20627233.847   -22366244.970 9 -17408920.16247  20627233.324    20627244.3134
  21339204.898   -21502116.251 9 -16137831.35547  21339204.296    21339215.8134
  21746795.134    -1147403.256 9   -686907.81147  21746795.337    21746805.3144
 00  1 22 20 14  0.0000000  0  8 19 02 11 27 26 08 07 13
  22191479.460     7288277.482 8   5683337.65246  22191479.328    22191491.9084
  21205313.456   -11128574.513 9  -8656364.15148  21205312.797    21205323.6864
  23816326.167    -7366772.461 8  -5529330.32345  23816325.781    23816342.1094
  20463657.207    -6667483.694 9  -5185209.84447  20463656.875    20463667.1044
  23049702.652    -7440230.532 8  -5780998.78946  23049702.733    23049717.5994
  20616263.892   -22423892.420 9 -17453840.20947  20616263.378    20616274.3434
  21326570.981   -21568507.953 9 -16189565.10147  21326570.343    21326581.8364
  21760593.731    -1074891.584 9   -630405.29847  21760593.924    21760603.8854
 00  1 22 20 14 30.0000000  0  8 19 02 11 27 26 08 07 13
  22205464.862     7361770.870 8   5740605.11346  22205464.716    22205477.3034
  21203594.563   -11137607.263 9  -8663402.66048  21203593.898    21203604.7644
  23812763.609    -7385493.553 8  -5543918.14045  23812763.207    23812779.6334
  20468618.135    -6641413.893 9  -5164895.75147  20468617.831    20468628.0404
  23039518.815    -7493746.647 8  -5822699.50346  23039518.853    23039533.7384
  20605347.628   -22481257.387 9 -17498540.13747  20605347.105    20605358.0384
  21314013.285   -21634499.072 9 -16240986.70047  21314012.636    21314024.1164
  21774464.435    -1002001.163 9   -573607.65447  21774464.611    21774474.5424
 00  1 22 20 15  0.0000000  0  8 19 02 11 27 26 08 07 13
  22219508.101     7435567.565 8   5798108.90846  22219507.915    22219520.5114
  21201902.423   -11146499.491 9  -8670331.68048  21201901.749    21201912.6284
  23809287.220    -7403762.054 8  -5558153.28745  23809286.823    23809303.2324
  20473660.693    -6614915.526 9  -5144247.71347  20473660.370    20473670.5614
  23029426.469    -7546781.750 8  -5864025.42246  23029426.490    23029441.2724
  20594485.964   -22538335.415 9 -17543016.47547  20594485.454    20594496.3734
  21301530.827   -21700094.319 9 -16292099.83247  21301530.208    21301541.6654
  21788404.368     -928747.071 9   -516526.64447  21788404.521    21788414.4224
 00  1 22 20 15 30.0000000  0  8 19 02 11 27 26 08 07 13
  22233604.147     7509642.141 8   5855829.23846  22233603.936    22233616.6504
  21200239.274   -11155239.423 9  -8677142.03548  21200238.590    21200249.4724
  23805899.503    -7421564.579 8  -5572025.32345  23805899.219    23805915.5384
  20478786.356    -6587979.968 9  -5123259.00547  20478786.022    20478796.1974
  23019426.497    -7599331.755 8  -5904973.35046  23019426.523    23019441.2364
  20583677.670   -22595133.426 9 -17587274.62447  20583677.147    20583688.0174
  21289124.649   -21765289.200 9 -16342900.99147  21289124.036    21289135.4644
  21802411.777     -855137.836 9   -459168.88847  21802411.954    21802421.8634
 00  1 22 20 16  0.0000000  0  8 19 02 11 27 26 08 07 13
  22247755.159     7584005.827 8   5913774.83746  22247754.949    22247767.7604
  21198604.517   -11163830.188 9  -8683836.15548  21198603.852    21198614.6984
  23802600.414    -7438901.228 8  -5585534.35645  23802600.123    23802616.3714
  20483997.658    -6560594.560 9  -5101919.76347  20483997.334    20484007.5094
  23009517.060    -7651405.061 8  -5945549.80546  23009517.124    23009531.8814
  20572925.351   -22651637.214 9 -17631303.50547  20572924.830    20572935.6894
  21276797.836   -21830067.247 9 -16393377.34047  21276797.190    21276808.5894
  21816489.493     -781159.355 9   -401523.41647  21816489.678    21816499.5644
 00  1 22 20 16 30.0000000  0  8 19 02 11 27 26 08 07 13
  22261965.247     7658679.876 8   5971962.28546  22261965.002    22261977.8754
  21197001.565   -11172253.745 9  -8690399.98548  21197000.892    21197011.7434
  23799389.666    -7455773.715 8  -5598681.69545  23799389.415    23799405.5764
  20489296.053    -6532751.431 9  -5080223.86247  20489295.726    20489305.9254
  22999698.058    -7703003.452 8  -5985756.20246  22999698.131    22999712.8214
  20562229.997   -22707841.398 9 -17675098.92047  20562229.455    20562240.3064
  21264551.882   -21894420.187 9 -16443522.43547  21264551.228    21264562.6524
  21830642.542     -706785.104 9   -343569.54747  21830642.710    21830652.6054
 00  1 22 20 17  0.0000000  0  8 19 02 11 27 26 08 07 13
  22276236.510     7733675.628 8   6030400.40446  22276236.263    22276249.1724
  21195433.623   -11180493.554 9  -8696820.63648  21195432.927    21195443.7664
  23796266.513    -7472186.236 8  -5611470.61945  23796266.228    23796282.3254
  20494681.447    -6504451.251 9  -5058171.82247  20494681.107    20494691.3234
  22989970.151    -7754123.644 8  -6025589.98546  22989970.215    22989984.7904
  20551593.546   -22763736.205 9 -17718653.27147  20551593.018    20551603.8464
  21252388.708   -21958338.044 9 -16493328.50947  21252388.068    21252399.4724
  21844873.122     -632002.988 9   -285297.86547  21844873.329    21844883.2884
 00  1 22 20 17 30.0000000  0  8 19 02 11 27 26 08 07 13
  22290572.984     7809014.046 8   6089105.53346  22290572.747    22290585.7214
  21193901.853   -11188542.874 9  -8703092.85448  21193901.178    21193912.0574
  23793231.267    -7488136.696 8  -5623899.50245  23793230.959    23793246.9944
  20500155.749    -6475683.763 9  -5035755.64447  20500155.408    20500165.6524
  22980332.065    -7804771.618 8  -6065055.80046  22980332.147    22980346.6494
  20541017.305   -22819314.711 9 -17761961.15047  20541016.760    20541027.6204
  21240311.299   -22021805.163 9 -16542783.34947  21240310.649    21240322.0554
  21859185.959     -556788.921 9   -226689.59447  21859186.150    21859196.1634
 00  1 22 20 18  0.0000000  0  8 19 02 11 27 26 08 07 13
  22304977.590     7884710.266 8   6148089.47046  22304977.346    22304990.3874
  21192404.778   -11196410.006 9  -8709223.11148  21192404.094    21192415.0224
  23790283.374    -7503628.230 8  -5635970.78045  23790282.980    23790298.9624
  20505716.777    -6446460.459 9  -5012984.28347  20505716.448    20505726.7264
  22970786.573    -7854933.242 8  -6104142.64846  22970786.616    22970801.0274
  20530499.564   -22874585.674 9 -17805029.38948  20530499.041    20530509.9064
  21228316.556   -22084837.376 9 -16591899.30847  21228315.943    21228327.3454
  21873583.156     -481131.716 9   -167736.02547  21873583.333    21873593.3834
 00  1 22 20 18 30.0000000  0  8 19 02 11 27 26 08 07 13
  22319445.843     7960740.637 8   6207333.77646  22319445.589    22319458.6794
  21190939.028   -11204112.603 9  -8715225.16248  21190938.359    21190949.2894
  23787422.787    -7518660.647 8  -5647684.29945  23787422.360    23787438.3204
  20511362.045    -6416794.436 9  -4989867.94647  20511361.710    20511371.9984
  22961334.815    -7904602.032 8  -6142845.46846  22961334.879    22961349.1984
  20520038.554   -22929558.619 9 -17847865.40248  20520037.993    20520048.8804
  21216401.184   -22147452.709 9 -16640690.42447  21216400.572    21216411.9714
  21888060.447     -405053.280 9   -108454.22947  21888060.621    21888070.7364
 00  1 22 20 19  0.0000000  0  8 19 02 11 27 26 08 07 13
  22333973.990     8037086.142 8   6266823.65246  22333973.771    22333986.8424
  21189497.557   -11211687.695 9  -8721127.85348  21189496.877    21189507.8104
  23784647.198    -7533245.982 8  -5659049.46845  23784646.812    23784662.7594
  20517091.198    -6386687.857 9  -4966408.31647  20517090.873    20517101.1404
  22951978.481    -7953769.200 8  -6181157.40746  22951978.557    22951992.8364
  20509633.231   -22984238.264 9 -17890472.86748  20509632.697    20509643.5814
  21204562.012   -22209667.479 9 -16689169.41147  21204561.398    21204572.7834
  21902611.820     -328585.698 9    -48869.20147  21902611.977    21902622.1614
 00  1 22 20 19 30.0000000  0  8 19 02 11 27 26 08 07 13
  22348559.246     8113731.448 8   6326547.12746  22348559.044    22348572.0774
  21188074.668   -11219164.922 9  -8726954.28548  21188073.992    21188084.9434
  23781957.015    -7547382.842 8  -5670065.17445  23781956.664    23781972.6534
  20522903.966    -6356141.838 9  -4942606.27147  20522903.639    20522913.8944
  22942716.892    -8002438.624 8  -6219081.50546  22942716.978    22942731.2194
  20499279.781   -23038645.983 9 -17932868.44048  20499279.234    20499290.0964
  21192796.299   -22271496.552 9 -16737347.86147  21192795.693    21192807.0144
  21917232.849     -251752.150 8     11000.98147  21917233.005    21917243.2234
 00  1 22 20 20  0.0000000  0  8 19 02 11 27 26 08 07 13
  22363197.372     8190654.226 8   6386486.81746  22363197.150    22363210.1414
  21186667.041   -11226561.901 9  -8732718.18848  21186666.366    21186677.3544
  23779352.330    -7561069.894 8  -5680730.39445  23779352.018    23779368.0624
  20528798.440    -6325166.359 9  -4918469.58447  20528798.099    20528808.3444
  22933547.762    -8050622.105 8  -6256626.93546  22933547.835    22933562.0794
  20488976.612   -23092789.370 9 -17975058.03848  20488976.057    20488986.8994
  21181104.237   -22332938.845 9 -16785224.92147  21181103.607    21181114.8704
  21931916.949     -174586.742 8     71129.76547  21931917.120    21931927.4064
 00  1 22 20 20 30.0000000  0  8 19 02 11 27 26 08 07 13
  22377889.566     8267861.394 8   6446648.10946  22377889.329    22377902.3214
  21185275.595   -11233874.262 9  -8738416.15448  21185274.919    21185285.9104
  23776834.964    -7574298.697 8  -5691038.54445  23776834.620    23776850.6734
  20534775.283    -6293758.217 9  -4893995.75647  20534774.931    20534785.1684
  22924466.727    -8098342.473 8  -6293811.50546  22924466.782    22924481.0204
  20478726.831   -23146652.078 9 -18017028.92548  20478726.273    20478737.0984
  21169488.263   -22393981.068 9 -16832790.24247  21169487.599    21169498.8414
  21946661.155      -97105.532 8    131504.61647  21946661.322    21946671.6644
 00  1 22 20 21  0.0000000  0  8 19 02 11 27 26 08 07 13
  22392637.777     8345363.103 8   6507038.91146  22392637.529    22392650.5714
  21183903.422   -11241085.217 9  -8744035.10148  21183902.739    21183913.7164
  23774406.021    -7587063.144 8  -5700984.86345  23774405.621    23774421.6674
  20540832.896    -6261925.148 9  -4869190.81747  20540832.558    20540842.8324
  22915472.335    -8145607.408 8  -6330641.18946  22915472.389    22915486.6124
  20468532.230   -23200224.753 9 -18058773.81648  20468531.681    20468542.5254
  21157950.847   -22454609.930 9 -16880033.46047  21157950.216    21157961.4394
  21961469.601      -19286.739 8    192142.53247  21961469.791    21961480.1654
 00  1 22 20 21 30.0000000  0  8 19 02 11 27 26 08 07 13
  22407440.234     8423149.936 8   6567651.88846  22407440.002    22407453.0774
  21182555.947   -11248166.518 9  -8749553.01448  21182555.262    21182566.2504
  23772067.591    -7599351.831 8  -5710560.46045  23772067.161    23772083.2544
  20546970.852    -6229670.347 9  -4844057.25947  20546970.498    20546980.8074
  22906563.687    -8192422.183 8  -6367120.11646  22906563.796    22906577.9234
  20458395.678   -23253492.363 9 -18100280.99548  20458395.138    20458405.9824
  21146494.376   -22514813.773 9 -16926945.49947  21146493.767    21146504.9664
  21976344.876       58882.986 8    253053.89747  21976345.043    21976355.4284
 00  1 22 20 22  0.0000000  0  8 19 02 11 27 26 08 07 13
  22422297.950     8501227.187 8   6628491.16646  22422297.697    22422310.8464
  21181237.219   -11255096.408 9  -8754952.94848  21181236.545    21181247.5674
  23769818.901    -7611168.615 8  -5719768.36145  23769818.457    23769834.7364
  20553190.617    -6196985.327 9  -4818588.46147  20553190.292    20553200.6384
  22897743.011    -8238774.432 8  -6403238.63046  22897743.093    22897757.2874
  20448320.870   -23306435.729 9 -18141535.51648  20448320.332    20448331.1824
  21135120.627   -22574583.240 9 -16973519.06047  21135120.001    21135131.1644
  21991290.991      137425.165 8    314255.49147  21991291.176    21991301.5364
 00  1 22 20 22 30.0000000  0  8 19 02 11 27 26 08 07 13
  22437212.114     8579601.449 8   6689561.87646  22437211.911    22437225.1274
  21179950.614   -11261857.779 9  -8760221.56748  21179949.936    21179960.9534
  23767659.721    -7622514.590 8  -5728609.40745  23767659.362    23767675.6234
  20559494.274    -6163859.513 9  -4792776.19547  20559493.938    20559504.3044
  22889014.672    -8284641.331 8  -6438978.96046  22889014.805    22889029.0094
  20438310.272   -23359041.526 9 -18182527.00748  20438309.713    20438320.5614
  21123828.744   -22633922.618 9 -17019757.49147  21123828.108    21123839.2364
  22006312.647      216363.873 8    375766.06147  22006312.807    22006323.1564
 00  1 22 20 23  0.0000000  0  8 19 02 11 27 26 08 07 13
  22452180.743     8658261.674 8   6750855.41246  22452180.559    22452193.8524
  21178695.665   -11268452.465 9  -8765360.30548  21178694.985    21178706.0244
  23765589.394    -7633394.453 8  -5737087.24945  23765589.005    23765605.2064
  20565882.045    -6130291.775 9  -4766619.57247  20565881.706    20565892.0584
  22880382.662    -8330002.711 8  -6474325.38046  22880382.771    22880396.9604
  20428361.926   -23411319.940 9 -18223263.39648  20428361.400    20428372.2474
  21112617.290   -22692839.310 9 -17065666.55747  21112616.650    21112627.7434
  22021410.826      295704.822 8    437590.07147  22021411.004    22021421.3164
 00  1 22 20 23 30.0000000  0  8 19 02 11 27 26 08 07 13
  22467205.082     8737214.504 8   6812376.95546  22467204.868    22467218.2314
  21177470.874   -11274888.614 9  -8770375.50548  21177470.212    21177481.2554
  23763607.583    -7643808.493 8  -5745202.13045  23763607.257    23763623.4174
  20572356.837    -6096266.601 9  -4740106.50247  20572356.494    20572366.8904
  22871849.057    -8374846.677 8  -6509268.63846  22871849.128    22871863.3204
  20418473.801   -23463282.405 9 -18263753.59148  20418473.265    20418484.1284
  21101484.157   -22751344.445 9 -17111254.92747  21101483.507    21101494.5714
  22036580.514      375421.727 8    499707.02547  22036580.713    22036591.0444
 00  1 22 20 24  0.0000000  0  8 19 02 11 27 26 08 07 13
  22482286.941     8816469.614 8   6874134.03846  22482286.676    22482300.1074
  21176272.436   -11281186.749 9  -8775283.16748  21176271.762    21176282.7764
  23761712.933    -7653764.810 8  -5752960.34445  23761712.559    23761728.8224
  20578918.120    -6061786.734 9  -4713239.12747  20578917.822    20578928.2414
  22863413.963    -8419172.912 8  -6543808.48146  22863414.028    22863428.1894
  20408644.565   -23514935.003 9 -18304002.33548  20408644.030    20408654.8674
  21090426.481   -22809452.846 9 -17156534.16347  21090425.812    21090436.8854
  22051819.031      455499.966 8    562105.53747  22051819.223    22051829.5394
 00  1 22 20 24 30.0000000  0  8 19 02 11 27 26 08 07 13
  22497425.905     8896024.925 8   6936125.04246  22497425.616    22497439.1084
  21175096.822   -11287364.932 9  -8780097.35148  21175096.146    21175107.1434
  23759906.181    -7663259.444 8  -5760358.79245  23759905.859    23759922.0304
  20585564.363    -6026860.956 9  -4686024.28647  20585564.050    20585574.4554
  22855075.196    -8462992.853 8  -6577953.80146  22855075.281    22855089.3934
  20398875.256   -23566272.637 9 -18344005.64848  20398874.733    20398885.5624
  21079442.329   -22867174.466 9 -17201512.00447  21079441.676    21079452.7854
  22067121.038      535911.682 8    624763.90347  22067121.199    22067131.5354
 00  1 22 20 25  0.0000000  0  8 19 02 11 27 26 08 07 13
  22512621.104     8975875.586 8   6998346.18046  22512620.827    22512634.3314
  21173943.729   -11293424.524 9  -8784819.13348  21173943.064    21173954.0574
  23758185.802    -7672300.731 8  -5767403.97445  23758185.431    23758201.4474
  20592295.145    -5991490.950 9  -4658463.29947  20592294.811    20592305.2264
  22846831.434    -8506313.634 8  -6611710.18646  22846831.528    22846845.6234
  20389165.639   -23617297.303 9 -18383765.10048  20389165.105    20389175.8614
  21068532.363   -22924506.683 9 -17246186.42047  21068531.709    21068542.8184
  22082483.529      616641.518 8    687670.15247  22082483.684    22082494.0484
 00  1 22 20 25 30.0000000  0  8 19 02 11 27 26 08 07 13
  22527872.660     9056022.460 8   7060798.14346  22527872.388    22527885.9374
  21172813.917   -11299361.889 9  -8789445.67348  21172813.236    21172824.1824
  23756552.613    -7680882.780 8  -5774091.34345  23756552.221    23756568.2844
  20599111.779    -5955669.663 9  -4630550.66747  20599111.442    20599121.8464
  22838682.347    -8549136.786 8  -6645078.78746  22838682.439    22838696.5904
  20379518.113   -23667995.337 9 -18423270.03048  20379517.564    20379528.3174
  21057699.259   -22981434.929 9 -17290546.05147  21057698.579    21057709.6724
  22097906.132      697687.392 8    750822.66747  22097906.288    22097916.7054
 00  1 22 20 26  0.0000000  0  8 19 02 11 27 26 08 07 13
  22543178.264     9136453.426 8   7123471.47146  22543178.023    22543191.5594
  21171706.924   -11305179.018 9  -8793978.52748  21171706.253    21171717.2174
  23755007.731    -7689001.502 8  -5780417.66845  23755007.340    23755023.3624
  20606013.802    -5919399.853 9  -4602288.53147  20606013.444    20606023.8044
  22830627.246    -8591466.158 8  -6678062.63946  22830627.356    22830641.5034
  20369937.408   -23718342.367 9 -18462501.45348  20369936.876    20369947.6044
  21046946.976   -23037938.421 9 -17334574.70747  21046946.322    21046957.3574
  22113392.431      779068.319 8    814236.26547  22113392.627    22113403.1154
 00  1 22 20 26 30.0000000  0  8 19 02 11 27 26 08 07 13
  22558536.731     9217162.348 8   7186361.38546  22558536.510    22558550.1044
  21170624.399   -11310867.886 9  -8798411.44048  21170623.722    21170634.6884
  23753553.303    -7696645.598 8  -5786374.16045  23753552.857    23753568.8624
  20613000.337    -5882685.448 9  -4573679.96447  20612999.987    20613010.3314
  22822667.234    -8633296.081 8  -6710657.31546  22822667.316    22822681.4684
  20360424.094   -23768335.002 9 -18501456.72848  20360423.572    20360434.2534
  21036281.348   -23093986.793 9 -17378248.72347  21036280.676    21036291.6374
  22128944.968      860796.937 8    877920.77947  22128945.170    22128955.6764
 00  1 22 20 27  0.0000000  0  8 19 02 11 27 26 08 07 13
  22573947.023     9298143.942 8   7249463.77046  22573946.832    22573960.4654
  21169567.941   -11316419.879 9  -8802737.69148  21169567.254    21169578.2144
  23752189.275    -7703813.896 8  -5791959.89145  23752188.882    23752204.8204
  20620071.567    -5845525.973 9  -4544724.58347  20620071.232    20620081.5924
  22814803.035    -8674622.717 8  -6742859.81246  22814803.100    22814817.1834
  20350977.251   -23817978.356 9 -18540139.82948  20350976.722    20350987.4134
  21025704.655   -23149567.413 9 -17421558.26047  21025703.978    21025714.9384
  22144565.866      942884.620 8    941885.08347  22144566.046    22144576.5574
 00  1 22 20 27 30.0000000  0  8 19 02 11 27 26 08 07 13
  22589409.575     9379400.107 8   7312780.09646  22589409.437    22589423.0814
  21168534.824   -11321848.814 9  -8806968.05748  21168534.139    21168545.0984
  23750919.077    -7710489.130 8  -5797161.41745  23750918.671    23750934.6164
  20627228.992    -5807913.640 9  -4515416.32547  20627228.647    20627239.0384
  22807035.329    -8715442.330 8  -6774667.23046  22807035.388    22807049.3904
  20341599.094   -23867260.889 9 -18578541.77148  20341598.584    20341609.2684
  21015219.330   -23204667.986 9 -17464493.73847  21015218.667    21015229.6314
  22160254.419     1025328.302 8   1006126.80347  22160254.635    22160265.1714
 00  1 22 20 28  0.0000000  0  8 19 02 11 27 26 08 07 13
  22604925.796     9460938.342 8   7376316.22746  22604925.676    22604939.4354
  21167526.139   -11327149.608 9  -8811098.57348  21167525.477    21167536.4254
  23749741.429    -7716677.559 8  -5801983.62245  23749741.067    23749757.0574
  20634472.248    -5769850.514 9  -4485756.79747  20634471.882    20634482.2664
  22799364.506    -8755752.596 8  -6806077.74246  22799364.569    22799378.4954
  20332290.396   -23916178.159 9 -18616659.09048  20332289.859    20332300.5254
  21004824.781   -23259291.503 9 -17507057.48347  21004824.103    21004835.0824
  22176009.890     1108123.614 8   1070642.51147  22176010.097    22176020.6684
 00  1 22 20 28 30.0000000  0  8 19 02 11 27 26 08 07 13
  22620497.439     9542767.395 8   7440078.95746  22620497.275    22620511.1314
  21166545.052   -11332305.679 9  -8815116.31648  21166544.376    21166555.3164
  23748655.390    -7722384.695 8  -5806430.78845  23748655.008    23748671.1444
  20641801.744    -5731333.849 9  -4455743.85947  20641801.378    20641811.7874
  22791793.816    -8795536.748 8  -6837078.30546  22791793.870    22791807.6724
  20323048.767   -23964742.769 9 -18654501.61148  20323048.257    20323058.9374
  20994518.234   -23313452.231 9 -17549260.61547  20994517.588    20994528.5744
  22191830.108     1191258.737 8   1135423.01647  22191830.275    22191840.8734
 00  1 22 20 29  0.0000000  0  8 19 02 11 27 26 08 07 13
  22636125.451     9624892.467 8   7504072.36246  22636125.276    22636139.1224
  21165592.019   -11337313.996 9  -8819018.92848  21165591.336    21165602.2654
  23747659.790    -7727617.324 8  -5810508.20445  23747659.297    23747675.4334
  20649219.973    -5692350.715 9  -4425367.43847  20649219.603    20649230.1144
  22784323.359    -8834793.757 8  -6867668.11046  22784323.451    22784337.1484
  20313873.688   -24012958.140 9 -18692072.00348  20313873.158    20313883.8204
  20984297.091   -23367164.645 9 -17591114.41647  20984296.434    20984307.4074
  22207712.691     1274721.843 8   1200459.07347  22207712.840    22207723.4524
 00  1 22 20 29 30.0000000  0  8 19 02 11 27 26 08 07 13
  22651811.343     9707322.135 8   7568303.10446  22651811.207    22651825.1354
  21164666.775   -11342176.375 9  -8822807.82248  21164666.087    21164677.0344
  23746753.892    -7732377.064 8  -5814217.15945  23746753.434    23746769.6174
  20656726.644    -5652902.664 9  -4394628.74747  20656726.306    20656736.8634
  22776955.114    -8873514.170 8  -6897839.78646  22776955.192    22776968.8134
  20304764.949   -24060824.608 9 -18729370.52148  20304764.414    20304775.1094
  20974161.774   -23420426.326 9 -17632616.99448  20974161.090    20974172.0634
  22223656.840     1358508.248 8   1265747.05547  22223657.002    22223667.5484
 00  1 22 20 30  0.0000000  0  8 19 02 11 27 26 08 07 13
  22667555.001     9790054.402 8   7632769.63246  22667554.828    22667568.7874
  21163770.763   -11346885.058 9  -8826476.95448  21163770.097    21163781.0574
  23745935.859    -7736676.103 8  -5817567.11845  23745935.461    23745951.5894
  20664319.943    -5612999.982 9  -4363535.80647  20664319.599    20664330.1784
  22769689.329    -8911695.990 8  -6927591.77646  22769689.373    22769702.9804
  20295720.485   -24108353.716 9 -18766406.16548  20295719.936    20295730.6084
  20964108.646   -23473255.759 9 -17673782.75148  20964107.960    20964118.9194
  22239661.375     1442611.881 8   1331282.22547  22239661.502    22239672.0304
 00  1 22 20 30 30.0000000  0  8 19 02 11 27 26 08 07 13
  22683354.246     9873079.084 8   7697464.03046  22683354.050    22683367.9844
  21162902.374   -11351448.666 9  -8830033.04148  21162901.698    21162912.6254
  23745207.588    -7740504.370 8  -5820550.22445  23745207.105    23745223.1154
  20671999.736    -5572642.633 9  -4332088.57147  20671999.413    20672010.0094
  22762524.703    -8949346.275 8  -6956929.59046  22762524.752    22762538.3594
  20286739.384   -24155549.499 9 -18803182.06748  20286738.833    20286749.5054
  20954137.683   -23525652.981 9 -17714611.72748  20954137.013    20954147.9644
  22255724.023     1527020.840 8   1397055.30947  22255724.143    22255734.6534
 00  1 22 20 31  0.0000000  0  8 19 02 11 27 26 08 07 13
  22699209.499     9956398.214 8   7762387.86146  22699209.344    22699223.2714
  21162059.619   -11355877.769 9  -8833484.31748  21162058.941    21162069.8764
  23744571.464    -7743847.035 8  -5823154.96345  23744571.055    23744587.1524
  20679764.885    -5531836.622 9  -4300291.73147  20679764.567    20679775.1984
  22755457.476    -8986484.497 8  -6985868.38746  22755457.564    22755471.1194
  20277822.640   -24202407.205 9 -18839694.53048  20277822.086    20277832.7674
  20944251.558   -23577604.718 9 -17755093.56948  20944250.897    20944261.8524
  22271844.293     1611732.885 8   1463064.56447  22271844.413    22271854.9624
 00  1 22 20 31 30.0000000  0  8 19 02 11 27 26 08 07 13
  22715119.617    10040005.182 8   7827535.97146  22715119.419    22715133.3134
  21161241.633   -11360176.302 9  -8836833.85448  21161240.958    21161251.9004
  23744030.093    -7746692.189 8  -5825372.01945  23744029.710    23744045.7484
  20687614.485    -5490587.110 9  -4268149.31147  20687614.153    20687624.7714
  22748487.421    -9023112.464 8  -7014409.58546  22748487.480    22748500.9734
  20268973.808   -24248907.681 9 -18875928.64348  20268973.282    20268983.9274
  20934448.788   -23629118.479 9 -17795234.13448  20934448.133    20934459.0844
  22288021.570     1696744.463 8   1529307.22147  22288021.673    22288032.2674
 00  1 22 20 32  0.0000000  0  8 19 02 11 27 26 08 07 13
  22731082.612    10123890.032 8   7892900.60546  22731082.389    22731096.2344
  21160449.361   -11364339.921 9  -8840078.26348  21160448.686    21160459.6294
  23743583.945    -7749036.862 8  -5827199.11145  23743583.569    23743599.6384
  20695547.995    -5448896.638 9  -4235663.28647  20695547.640    20695558.2464
  22741612.920    -9059238.032 8  -7042559.29846  22741612.969    22741626.4644
  20260194.530   -24295043.228 9 -18911878.39448  20260193.990    20260204.5914
  20924728.678   -23680197.992 9 -17835036.32148  20924728.012    20924738.9604
  22304255.762     1782055.075 8   1595782.89147  22304255.885    22304266.5254
 00  1 22 20 32 30.0000000  0  8 19 02 11 27 26 08 07 13
  22747098.873    10208055.333 8   7958483.79346  22747098.631    22747112.5354
  21159682.515   -11368369.806 9  -8843218.46648  21159681.847    21159692.8064
  23743236.142    -7750864.403 8  -5828623.24145  23743235.820    23743252.0774
  20703564.346    -5406770.565 9  -4202837.83147  20703563.991    20703574.6034
  22734833.981    -9094861.387 8  -7070317.68346  22734834.012    22734847.4564
  20251485.899   -24340807.523 9 -18947538.85048  20251485.358    20251495.9894
  20915094.373   -23730826.679 9 -17874487.21648  20915093.712    20915104.6154
  22320548.225     1867672.256 8   1662497.44646  22320548.396    22320559.1384
 00  1 22 20 33  0.0000000  0  8 19 02 11 27 26 08 07 13
  22763165.689    10292486.707 8   8024274.30846  22763165.499    22763179.5094
  21158938.876   -11372277.663 9  -8846263.57548  21158938.192    21158949.1944
  23742984.453    -7752187.475 8  -5829654.27145  23742984.064    23743000.4074
  20711662.611    -5364214.053 9  -4169676.96947  20711662.255    20711672.9034
  22728152.552    -9129971.951 8  -7097676.48746  22728152.597    22728165.9674
  20242848.712   -24386196.257 9 -18982906.66148  20242848.158    20242858.7764
  20905542.632   -23781021.277 9 -17913599.85848  20905541.974    20905552.8664
  22336898.592     1953593.319 8   1729448.78946  22336898.737    22336909.5544
 00  1 22 20 33 30.0000000  0  8 19 02 11 27 26 08 07 13
  22779279.875    10377166.810 8   8090258.64046  22779279.663    22779293.7244
  21158219.309   -11376059.157 9  -8849210.21848  21158218.610    21158229.6494
  23742825.695    -7753022.234 8  -5830304.79945  23742825.314    23742841.6214
  20719842.589    -5321228.346 9  -4136181.67247  20719842.232    20719852.9004
  22721570.917    -9164558.410 8  -7124626.90446  22721570.964    22721584.3014
  20234282.787   -24431210.362 9 -19017982.55248  20234282.218    20234292.8184
  20896070.380   -23830798.032 9 -17952386.90948  20896069.722    20896080.6024
  22353306.799     2039818.167 8   1796636.84946  22353306.867    22353317.8054
 00  1 22 20 34  0.0000000  0  8 19 02 11 27 26 08 07 13
  22795442.694    10462102.261 8   8156441.92546  22795442.473    22795456.5614
  21157522.487   -11379720.875 9  -8852063.53648  21157521.802    21157532.8394
  23742758.559    -7753375.253 8  -5830579.95845  23742758.200    23742774.5384
  20728103.732    -5277815.916 9  -4102353.86847  20728103.383    20728114.0494
  22715088.571    -9198623.080 8  -7151170.72946  22715088.612    22715101.9244
  20225783.168   -24475876.247 9 -19052787.11048  20225782.602    20225793.1484
  20886677.587   -23880157.161 9 -17990848.54148  20886676.925    20886687.8074
  22369771.983     2126342.919 8   1864058.59446  22369772.069    22369783.0404
 00  1 22 20 34 30.0000000  0  8 19 02 11 27 26 08 07 13
  22811654.462    10547293.968 8   8222824.89646  22811654.130    22811668.1824
  21156845.812   -11383276.934 9  -8854834.51448  21156845.131    21156856.1734
  23742781.978    -7753252.547 8  -5830484.42745  23742781.584    23742797.9454
  20736447.154    -5233971.109 9  -4068189.14047  20736446.827    20736457.4964
  22708704.967    -9232169.126 8  -7177310.42946  22708704.981    22708718.2784
  20217346.765   -24520209.652 9 -19087332.57848  20217346.202    20217356.7534
  20877362.155   -23929109.703 9 -18028993.34748  20877361.523    20877372.4014
  22386291.906     2213155.476 8   1931704.60446  22386292.023    22386303.0314
 00  1 22 20 35  0.0000000  0  8 19 02 11 27 26 08 07 13
  22827913.914    10632736.979 8   8289403.69246  22827913.594    22827927.6744
  21156188.964   -11386729.068 9  -8857524.51348  21156188.276    21156199.3144
  23742893.660    -7752665.867 8  -5830027.35645  23742893.277    23742909.5694
  20744873.028    -5189693.038 9  -4033686.80847  20744872.693    20744883.3844
  22702418.637    -9265203.504 8  -7203051.42446  22702418.683    22702432.0094
  20208971.662   -24564221.099 9 -19121627.18048  20208971.110    20208981.6084
  20868123.452   -23977659.668 9 -18066824.46348  20868122.809    20868133.6624
  22402864.532     2300244.808 8   1999566.27946  22402864.639    22402875.6694
 00  1 22 20 35 30.0000000  0  8 19 02 11 27 26 08 07 13
  22844225.871    10718455.884 8   8356197.46546  22844225.551    22844239.6904
  21155552.651   -11390073.015 9  -8860130.21748  21155551.946    21155562.9754
  23743094.512    -7751610.413 8  -5829205.01145  23743094.098    23743110.4424
  20753379.958    -5144989.091 9  -3998852.62747  20753379.614    20753390.3034
  22696227.465    -9297738.367 8  -7228403.19446  22696227.459    22696240.7664
  20200656.113   -24607919.477 9 -19155677.82848  20200655.547    20200666.0704
  20858964.464   -24025790.868 9 -18104329.26648  20858963.790    20858974.5714
  22419489.585     2387609.774 8   2067642.73446  22419489.710    22419500.7434
 00  1 22 20 36  0.0000000  0  8 19 02 11 27 26 08 07 13
  22860591.858    10804458.679 8   8423212.45046  22860591.522    22860605.6714
  21154933.313   -11393327.732 9  -8862666.38848  21154932.625    21154943.6714
  23743386.797    -7750074.375 8  -5828008.17945  23743386.405    23743402.8544
  20761968.561    -5099856.211 9  -3963684.20947  20761968.179    20761978.8684
  22690130.383    -9329778.216 8  -7253369.22446  22690130.380    22690143.6704
  20192400.654   -24651301.914 9 -19189482.29648  20192400.082    20192410.6144
  20849887.504   -24073490.695 9 -18141497.93848  20849886.844    20849897.5744
  22436163.388     2475230.891 8   2135918.78346  22436163.517    22436174.5764
 00  1 22 20 36 30.0000000  0  8 19 02 11 27 26 08 07 13
  22877008.515    10890727.829 8   8490434.97346  22877008.166    22877022.3314
  21154331.688   -11396489.409 9  -8865130.05948  21154330.971    21154342.0574
  23743769.800    -7748062.526 8  -5826440.59345  23743769.370    23743785.7704
  20770638.480    -5054295.776 9  -3928182.62747  20770638.106    20770648.8114
  22684128.727    -9361316.678 8  -7277944.56846  22684128.735    22684142.0664
  20184210.588   -24694340.761 9 -19223019.02948  20184210.042    20184220.5874
  20840893.370   -24120755.134 9 -18178327.34448  20840892.690    20840903.4424
  22452885.266     2563104.291 8   2204391.41446  22452885.401    22452896.4644
 00  1 22 20 37  0.0000000  0  8 19 02 11 27 26 08 07 13
  22893473.893    10977252.803 8   8557856.84146  22893473.538    22893487.6984
  21153751.857   -11399536.432 9  -8867504.39148  21153751.163    21153762.2944
  23744243.377    -7745574.127 8  -5824501.68345  23744242.913    23744259.3364
  20779389.496    -5008309.086 9  -3892348.90447  20779389.118    20779399.8344
  22678223.395    -9392349.018 8  -7302125.52946  22678223.413    22678236.7484
  20176092.572   -24737001.106 9 -19256260.83048  20176092.002    20176102.5244
  20831984.207   -24167572.911 9 -18214808.71048  20831983.538    20831994.3244
  22469657.357     2651241.313 8   2273069.45946  22469657.460    22469668.5114
 00  1 22 20 37 30.0000000  0  8 19 02 11 27 26 08 07 13
  22909989.146    11064040.750 8   8625483.61446  22909988.814    22910003.0064
  21153197.598   -11402449.262 9  -8869774.15948  21153196.887    21153208.0644
  23744809.963    -7742596.816 8  -5822181.81045  23744809.500    23744825.9074
  20788225.866    -4961873.825 9  -3856165.64947  20788225.491    20788236.1974
  22672416.795    -9422862.620 8  -7325902.28246  22672416.792    22672430.1764
  20168052.225   -24779253.112 9 -19289184.44648  20168051.678    20168062.1724
  20823160.976   -24213939.181 9 -18250938.25348  20823160.296    20823171.1414
  22486481.395     2739651.583 8   2341960.43046  22486481.503    22486492.5574
 00  1 22 20 38  0.0000000  0  8 19 02 11 27 26 08 07 13
  22926551.737    11151077.578 8   8693304.34146  22926551.418    22926565.7644
  21152672.454   -11405208.826 9  -8871924.49248  21152671.750    21152682.9674
  23745470.669    -7739125.213 8  -5819476.75145  23745470.183    23745486.7004
  20797151.591    -4914969.154 9  -3819616.61747  20797151.212    20797161.9294
  22666711.969    -9452841.317 8  -7349262.21746  22666711.962    22666725.3804
  20160093.199   -24821078.288 9 -19321775.46448  20160092.638    20160103.1204
  20814425.210   -24259845.649 9 -18286709.50748  20814424.544    20814435.3914
  22503360.391     2828350.654 8   2411076.44546  22503360.517    22503371.5714
 00  1 22 20 38 30.0000000  0  8 19 02 11 27 26 08 07 13
  22943162.484    11238367.295 8   8761322.10546  22943162.218    22943176.6704
  21152183.153   -11407780.195 9  -8873928.18548  21152182.449    21152193.6784
  23746224.317    -7735164.746 8  -5816390.78445  23746223.941    23746240.4814
  20806166.088    -4867597.884 9  -3782704.00147  20806165.711    20806176.4464
  22661111.714    -9482270.461 8  -7372193.94046  22661111.709    22661125.1254
  20152219.229   -24862456.177 9 -19354017.94948  20152218.649    20152229.1594
  20805781.214   -24305270.282 9 -18322105.31248  20805780.558    20805791.3684
  22520297.322     2917354.191 8   2480429.70046  22520297.462    22520308.5414
 00  1 22 20 39  0.0000000  0  8 19 02 11 27 26 08 07 13
  22959826.211    11325934.953 8   8829556.45946  22959825.913    22959840.3914
  21151732.160   -11410150.182 9  -8875774.95048  21151731.441    21151742.6914
  23747074.438    -7730698.251 8  -5812910.49145  23747074.042    23747090.4734
  20815271.474    -4819749.014 9  -3745419.23247  20815271.098    20815281.8994
  22655616.654    -9511146.475 8  -7394694.63546  22655616.653    22655630.1214
  20144429.888   -24903389.299 9 -19385913.86148  20144429.312    20144439.7824
  20797232.868   -24350192.152 9 -18357109.35048  20797232.196    20797243.0034
  22537294.626     3006675.175 8   2550030.31146  22537294.755    22537305.9224
 00  1 22 20 39 30.0000000  0  8 19 02 11 27 26 08 07 13
  22976546.896    11413801.952 8   8898024.05246  22976546.567    22976561.0874
  21151315.616   -11412339.037 9  -8877480.57448  21151314.919    21151326.1714
  23748021.555    -7725721.707 8  -5809032.77545  23748021.197    23748037.5624
  20824469.136    -4771415.080 9  -3707756.48647  20824468.770    20824479.6024
  22650229.904    -9539453.643 8  -7416752.08446  22650229.952    22650243.3974
  20136721.474   -24943897.290 9 -19417478.50148  20136720.908    20136731.3414
  20788780.422   -24394609.856 9 -18391720.53648  20788779.747    20788790.5544
  22554351.324     3096308.239 8   2619874.10646  22554351.447    22554362.7024
 00  1 22 20 40  0.0000000  0  8 19 02 11 27 26 08 07 13
  22993323.444    11501962.711 8   8966720.55446  22993323.123    22993337.6704
  21150928.053   -11414375.905 9  -8879067.76648  21150927.348    21150938.5654
  23749063.543    -7720247.059 8  -5804766.92645  23749063.105    23749079.5584
  20833754.358    -4722621.146 9  -3669735.30447  20833753.992    20833764.8274
  22644951.503    -9567191.807 8  -7438366.15846  22644951.556    22644964.9314
  20129091.219   -24983994.736 9 -19448723.23748  20129090.631    20129101.0554
  20780423.520   -24438525.552 9 -18425940.54648  20780422.863    20780433.6864
  22571464.145     3186236.149 8   2689947.64746  22571464.280    22571475.6014
 00  1 22 20 40 30.0000000  0  8 19 02 11 27 26 08 07 13
  23010156.022    11590418.053 8   9035646.61346  23010155.721    23010170.3244
  21150566.304   -11416277.230 9  -8880549.33748  21150565.588    21150576.7574
  23750201.106    -7714269.702 8  -5800109.34845  23750200.638    23750217.1074
  20843125.959    -4673373.554 9  -3631360.62447  20843125.574    20843136.4184
  22639778.762    -9594374.493 8  -7459547.39546  22639778.807    22639792.1534
  20121534.530   -25023705.149 9 -19479666.38348  20121533.962    20121544.3984
  20772158.890   -24481956.403 9 -18459782.75648  20772158.204    20772169.0394
  22588628.695     3276435.678 8   2760232.83846  22588628.807    22588640.2114
 00  1 22 20 41  0.0000000  0  8 19 02 11 27 26 08 07 13
  23027043.128    11679160.094 8   9104796.05546  23027042.820    23027057.5344
  21150224.949   -11418071.177 9  -8881947.23448  21150224.234    21150235.3954
  23751435.305    -7707784.484 8  -5795056.02145  23751434.834    23751451.2004
  20852586.513    -4623658.199 9  -3592621.45147  20852586.135    20852596.9974
  22634708.880    -9621016.258 8  -7480307.12246  22634708.957    22634722.2884
  20114046.390   -25063055.600 9 -19510329.04048  20114045.806    20114056.2384
  20763979.068   -24524941.367 9 -18493277.52448  20763978.377    20763989.2194
  22605843.441     3366899.083 8   2830723.64946  22605843.570    22605855.0144
 00  1 22 20 41 30.0000000  0  8 19 02 11 27 26 08 07 13
  23043979.292    11768159.398 8   9174145.97946  23043978.945    23043993.7504
  21149900.289   -11419777.245 9  -8883276.65248  21149899.579    21149910.7484
  23752765.542    -7700794.460 8  -5789609.33245  23752765.083    23752781.4884
  20862132.668    -4573493.084 9  -3553531.82247  20862132.286    20862143.1484
  22629739.361    -9647131.114 8  -7500656.28146  22629739.408    22629752.7384
  20106624.426   -25102058.205 9 -19540720.64948  20106623.834    20106634.2474
  20755878.596   -24567509.515 9 -18526447.49748  20755877.925    20755888.7494
  22623101.977     3457592.606 8   2901393.77146  22623102.162    22623113.6264
 00  1 22 20 42  0.0000000  0  8 19 02 11 27 26 08 07 13
  23060959.034    11857387.914 8   9243674.49746  23060958.661    23060973.5114
  21149594.572   -11421384.012 9  -8884528.69448  21149593.861    21149605.0164
  23754193.594    -7693289.975 8  -5783761.74945  23754193.174    23754209.5534
  20871763.921    -4522881.109 9  -3514093.98447  20871763.539    20871774.3404
  22624865.041    -9672745.161 8  -7520615.19046  22624865.102    22624878.4874
  20099268.768   -25140712.184 9 -19570840.60048  20099268.216    20099278.6004
  20747858.148   -24609657.440 9 -18559290.02748  20747857.467    20747868.2634
  22640401.341     3548500.647 8   2972231.05246  22640401.496    22640413.0314
 00  1 22 20 42 30.0000000  0  8 19 02 11 27 26 08 07 13
  23077980.527    11946835.630 8   9313373.82246  23077980.196    23077995.0484
  21149311.396   -11422872.289 9  -8885688.40248  21149310.687    21149321.8174
  23755720.870    -7685264.223 8  -5777507.96645  23755720.387    23755736.9114
  20881483.991    -4471801.929 9  -3474292.08747  20881483.610    20881494.4594
  22620085.622    -9697860.624 8  -7540185.60246  22620085.681    22620099.0424
  20091981.922   -25179004.933 9 -19600679.07448  20091981.341    20091991.7024
  20739918.114   -24651382.440 9 -18591802.99948  20739917.434    20739928.2304
  22657744.973     3639641.329 8   3043249.60946  22657745.099    22657756.6364
 00  1 22 20 43  0.0000000  0  8 19 02 11 27 26 08 07 13
  23095044.075    12036504.527 8   9383245.48746  23095043.784    23095058.6654
  21149051.651   -11424237.515 9  -8886752.22148  21149050.937    21149062.0424
  23757346.318    -7676721.923 8  -5770851.69345  23757345.862    23757362.6154
  20891291.973    -4420260.927 9  -3434130.32947  20891291.590    20891302.4444
  22615404.053    -9722462.123 8  -7559355.53146  22615404.141    22615417.3634
  20084769.526   -25216905.972 9 -19630212.31348  20084768.964    20084779.3284
  20732060.929   -24692672.179 9 -18623976.80848  20732060.253    20732071.0314
  22675134.292     3731022.129 8   3114455.26646  22675134.441    22675145.9394
 00  1 22 20 43 30.0000000  0  8 19 02 11 27 26 08 07 13
  23112151.993    12126406.606 8   9453298.87246  23112151.710    23112166.7394
  21148816.265   -11425474.551 9  -8887716.15448  21148815.540    21148826.6204
  23759068.807    -7667669.645 8  -5763798.04045  23759068.479    23759085.3604
  20901184.081    -4368277.725 9  -3393624.00047  20901183.712    20901194.5784
  22610822.554    -9746537.716 8  -7578115.65546  22610822.623    22610835.7484
  20077635.356   -25254396.269 9 -19659425.49748  20077634.803    20077645.1204
  20724291.689   -24733499.583 9 -18655790.35548  20724290.992    20724301.7664
  22692568.991     3822641.515 8   3185846.83546  22692569.121    22692580.6124
 00  1 22 20 44  0.0000000  0  8 19 02 11 27 26 08 07 13
  23129308.503    12216564.132 8   9523551.30446  23129308.293    23129323.3964
  21148605.528   -11426582.037 9  -8888579.14048  21148604.786    21148615.8554
  23760884.869    -7658126.471 8  -5756361.86745  23760884.532    23760901.5134
  20911159.700    -4315855.558 9  -3352775.62147  20911159.346    20911170.2624
  22606343.751    -9770074.012 8  -7596455.56046  22606343.814    22606356.8414
  20070581.400   -25291465.148 9 -19688310.30248  20070580.826    20070591.1244
  20716612.964   -24773851.295 9 -18687233.23448  20716612.278    20716623.0514
  22710051.342     3914511.273 8   3257433.49546  22710051.469    22710062.9204
 00  1 22 20 44 30.0000000  0  8 19 02 11 27 26 08 07 13
  23146516.363    12306991.242 8   9594013.79946  23146516.110    23146531.2964
  21148418.780   -11427563.424 9  -8889343.86648  21148418.065    21148429.1624
  23762793.217    -7648098.861 8  -5748548.19045  23762792.771    23762809.7884
  20921217.057    -4263004.094 9  -3311592.72447  20921216.693    20921227.6414
  22601970.489    -9793055.587 8  -7614363.20746  22601970.522    22601983.5334
  20063608.838   -25328105.808 9 -19716861.42748  20063608.263    20063618.5714
  20709021.864   -24813742.853 9 -18718317.54748  20709021.163    20709031.9274
  22727579.623     4006622.283 8   3329208.14746  22727579.764    22727591.1574
 00  1 22 20 45  0.0000000  0  8 19 02 11 27 26 08 07 13
  23163777.162    12397696.457 8   9664692.99146  23163776.920    23163792.1264
  21148255.445   -11428422.109 9  -8890012.98348  21148254.718    21148265.8204
  23764794.195    -7637583.577 8  -5740354.52545  23764793.775    23764810.8024
  20931352.893    -4209740.070 9  -3270088.35447  20931352.526    20931363.4974
  22597701.535    -9815488.599 8  -7631843.41446  22597701.577    22597714.6074
  20056717.340   -25364320.815 9 -19745080.87848  20056716.774    20056727.0814
  20701517.413   -24853178.924 9 -18749046.93848  20701516.718    20701527.4574
  22745147.692     4098942.729 8   3401145.98546  22745147.831    22745159.2644
 00  1 22 20 45 30.0000000  0  8 19 02 11 27 26 08 07 13
  23181089.760    12488672.932 8   9735583.55746  23181089.405    23181104.5364
  21148114.782   -11429161.378 9  -8890589.04348  21148114.045    21148125.1804
  23766888.161    -7626580.535 8  -5731780.79245  23766887.756    23766904.6964
  20941568.535    -4156056.843 9  -3228257.33347  20941568.154    20941579.1254
  22593535.475    -9837380.999 8  -7648902.37046  22593535.551    22593548.5774
  20049906.829   -25400110.306 9 -19772968.76048  20049906.249    20049916.5784
  20694099.701   -24892159.383 9 -18779421.30648  20694099.003    20694109.7534
  22762753.931     4191464.240 8   3473240.50846  22762754.103    22762765.6344
 00  1 22 20 46  0.0000000  0  8 19 02 11 27 26 08 07 13
  23198450.921    12579905.015 8   9806673.29846  23198450.506    23198465.6154
  21147999.196   -11429768.693 9  -8891062.28448  21147998.465    21148009.6344
  23769076.279    -7615082.135 8  -5722821.05145  23769075.861    23769092.7894
  20951868.879    -4101928.524 9  -3186079.49047  20951868.493    20951879.4444
  22589472.806    -9858730.205 8  -7665538.06346  22589472.894    22589485.9274
  20043179.082   -25435464.536 9 -19800517.47548  20043178.506    20043188.8734
  20686766.187   -24930697.288 9 -18809450.82548  20686765.510    20686776.2184
  22780397.557     4284181.662 8   3545487.67746  22780397.738    22780409.3724
 00  1 22 20 46 30.0000000  0  8 19 02 11 27 26 08 07 13
  23215857.766    12671377.842 8   9877950.62446  23215857.336    23215872.5904
  21147910.294   -11430235.956 9  -8891426.39048  21147909.567    21147920.7274
  23771360.249    -7603080.219 8  -5713468.95445  23771359.850    23771376.7124
  20962256.739    -4047340.157 9  -3143543.16947  20962256.382    20962267.3144
  22585513.743    -9879534.979 8  -7681749.52546  22585513.864    22585526.9174
  20036534.025   -25470384.296 9 -19827727.64648  20036533.467    20036543.8424
  20679518.148   -24968786.396 9 -18839130.63048  20679517.438    20679528.1274
  22798080.907     4377107.528 8   3617897.26346  22798081.067    22798092.7384
 00  1 22 20 47  0.0000000  0  8 19 02 11 27 26 08 07 13
  23233311.697    12763098.460 8   9949421.05246  23233311.273    23233326.6554
  21147847.007   -11430568.508 9  -8891685.52948  21147846.281    21147857.4464
  23773737.386    -7590588.931 8  -5703735.52745  23773736.954    23773753.7754
  20972731.407    -3992295.731 9  -3100651.47947  20972731.050    20972741.9994
  22581659.919    -9899787.181 8  -7697530.42746  22581660.002    22581672.9854
  20029971.840   -25504868.650 9 -19854598.53648  20029971.270    20029981.6664
  20672359.290   -25006406.369 9 -18868444.88148  20672358.594    20672369.2904
  22815807.843     4470262.150 8   3690485.10746  22815807.935    22815819.6324
 00  1 22 20 47 30.0000000  0  8 19 02 11 27 26 08 07 13
  23250811.582    12855060.261 8  10021079.40546  23250811.109    23250826.5704
  21147808.364   -11430771.554 9  -8891843.75848  21147807.657    21147818.8214
  23776205.363    -7577620.215 8  -5693630.09645  23776204.946    23776221.6634
  20983293.338    -3936792.578 9  -3057402.34847  20983292.968    20983303.9244
  22577913.337    -9919475.314 8  -7712871.79746  22577913.426    22577926.3974
  20023489.868   -25538931.321 9 -19881140.84348  20023489.287    20023499.6944
  20665289.620   -25043557.512 9 -18897393.81248  20665288.928    20665299.6624
  22833581.635     4563663.178 8   3763264.94746  22833581.710    22833593.4704
 00  1 22 20 48  0.0000000  0  8 19 02 11 27 26 08 07 13
  23268355.754    12947254.835 8  10092919.13345  23268355.272    23268370.8204
  21147794.663   -11430843.737 9  -8891900.01548  21147793.937    21147805.0994
  23778764.429    -7564173.384 8  -5683152.10145  23778763.994    23778780.5104
  20993938.543    -3880851.876 9  -3013812.27347  20993938.169    20993949.1084
  22574273.805    -9938601.029 8  -7727774.93146  22574273.866    22574286.8204
  20017085.030   -25572588.861 9 -19907367.46648  20017084.461    20017094.8484
  20658307.354   -25080249.499 9 -18925984.95648  20658306.662    20658317.4124
  22851401.124     4657304.711 8   3836232.19446  22851401.194    22851413.0674
 00  1 22 20 48 30.0000000  0  8 19 02 11 27 26 08 07 13
  23285944.515    13039683.401 8  10164941.18945  23285944.046    23285959.6574
  21147803.603   -11430796.815 9  -8891863.46548  21147802.891    21147814.0294
  23781414.477    -7550247.509 8  -5672300.83645  23781414.069    23781430.5764
  21004660.497    -3824507.879 9  -2969907.94547  21004660.116    21004671.0764
  22570738.475    -9957179.208 8  -7742251.39946  22570738.553    22570751.5174
  20010754.614   -25605855.356 9 -19933289.37748  20010754.043    20010764.4154
  20651414.155   -25116473.379 9 -18954211.34548  20651413.484    20651424.2164
  22869265.304     4751181.157 8   3909382.49346  22869265.407    22869277.3944
 00  1 22 20 49  0.0000000  0  8 19 02 11 27 26 08 07 13
  23303576.925    13132341.459 8  10237142.08145  23303576.419    23303592.0904
  21147834.067   -11430636.771 9  -8891738.77348  21147833.340    21147844.4674
  23784158.423    -7535829.001 8  -5661065.69145  23784157.950    23784174.3714
  21015457.959    -3767767.126 9  -2925694.45247  21015457.611    21015468.6014
  22567305.708    -9975218.424 8  -7756307.90646  22567305.779    22567318.7744
  20004499.647   -25638725.201 9 -19958902.21048  20004499.073    20004509.4454
  20644605.317   -25152254.071 9 -18982092.39348  20644604.628    20644615.3424
  22887169.122     4845266.046 8   3982695.21546  22887169.272    22887181.3164
 00  1 22 20 49 30.0000000  0  8 19 02 11 27 26 08 07 13
  23321249.218    13225209.550 8  10309506.61545  23321248.735    23321264.5254
  21147885.174   -11430368.133 9  -8891529.46248  21147884.454    21147895.5924
  23786999.705    -7520898.047 8  -5649431.23945  23786999.243    23787015.7184
  21026333.482    -3710615.901 9  -2881161.11247  21026333.122    21026344.1754
  22563972.158    -9992735.878 8  -7769957.85146  22563972.237    22563985.2464
  19998319.199   -25671203.690 9 -19984210.09348  19998318.632    19998328.9694
  20637878.404   -25187604.228 9 -19009637.96248  20637877.724    20637888.4144
  22905108.482     4939536.771 8   4056152.73546  22905108.613    22905120.6554
 00  1 22 20 50  0.0000000  0  8 19 02 11 27 26 08 07 13
  23338963.544    13318298.783 8  10382043.46445  23338963.171    23338979.0434
  21147957.408   -11429988.497 9  -8891233.66348  21147956.694    21147967.8754
  23789940.232    -7505444.259 8  -5637389.39945  23789939.847    23789956.4924
  21037288.429    -3653047.438 9  -2836302.65647  21037288.058    21037299.1984
  22560735.352   -10009745.507 8  -7783212.09346  22560735.388    22560748.2954
  19992215.438   -25703279.188 9 -20009203.95748  19992214.848    19992225.1624
  20631234.960   -25222515.968 9 -19036841.90748  20631234.264    20631244.9554
  22923080.269     5033977.941 8   4129743.06546  22923080.401    22923092.4024
 00  1 22 20 50 30.0000000  0  8 19 02 11 27 26 08 07 13
  23356722.288    13411621.286 8  10454762.09445  23356721.968    23356737.9164
  21148051.203   -11429495.659 9  -8890849.65448  21148050.499    21148061.6974
  23792980.239    -7489468.526 8  -5624940.86345  23792979.903    23792996.6444
  21048327.339    -3595038.024 9  -2791100.60347  21048326.946    21048338.1394
  22557594.745   -10026249.290 8  -7796072.15646  22557594.782    22557607.7354
  19986188.056   -25734953.146 9 -20033884.93148  19986187.470    19986197.7934
  20624676.009   -25256983.528 9 -19063699.74248  20624675.295    20624685.9774
  22941085.128     5128593.084 8   4203468.96446  22941085.257    22941097.2834
 00  1 22 20 51  0.0000000  0  8 19 02 11 27 26 08 07 13
  23374526.421    13505181.987 8  10527666.31045  23374526.102    23374542.0504
  21148167.458   -11428884.781 9  -8890373.66148  21148166.759    21148178.0054
  23796117.420    -7472982.480 8  -5612094.67045  23796117.051    23796133.9654
  21059456.457    -3536554.408 9  -2745529.04747  21059456.082    21059467.3444
  22554552.641   -10042235.495 8  -7808528.92346  22554552.658    22554565.6034
  19980237.837   -25766221.604 9 -20058249.93548  19980237.250    19980247.5774
  20618202.402   -25291002.283 9 -19090207.85948  20618201.706    20618212.4064
  22959124.026     5223387.373 8   4277334.44546  22959124.118    22959136.2334
 00  1 22 20 51 30.0000000  0  8 19 02 11 27 26 08 07 13
  23392377.991    13598991.606 8  10600764.49145  23392377.604    23392393.6054
  21148309.244   -11428139.631 9  -8889793.04548  21148308.531    21148319.7724
  23799349.245    -7455999.671 8  -5598861.40145  23799348.843    23799365.7214
  21070677.132    -3477589.589 9  -2699582.52447  21070676.784    21070688.1094
  22551611.033   -10057693.903 8  -7820574.42646  22551611.044    22551623.9594
  19974364.842   -25797084.190 9 -20082298.67148  19974364.265    19974374.5974
  20611820.673   -25324538.348 9 -19116339.85248  20611819.984    20611830.6904
  22977198.575     5318369.532 8   4351346.32746  22977198.686    22977210.8694
 00  1 22 20 52  0.0000000  0  8 19 02 11 27 26 08 07 13
  23410278.649    13693059.128 8  10674063.62345  23410278.211    23410294.3124
  21148479.932   -11427242.544 9  -8889094.03848  21148479.232    21148490.5134
  23802673.823    -7438529.566 8  -5585248.42845  23802673.382    23802690.2224
  21081986.804    -3418157.413 9  -2653271.82847  21081986.434    21081997.7814
  22548773.268   -10072606.217 8  -7832194.39646  22548773.279    22548786.2094
  19968572.595   -25827522.600 9 -20106016.88548  19968572.015    19968582.3414
  20605530.839   -25357591.301 9 -19142095.39748  20605530.139    20605540.8684
  22995311.320     5413552.195 8   4425514.44446  22995311.467    22995323.6754
 00  1 22 20 52 30.0000000  0  8 19 02 11 27 26 08 07 13
  23428225.021    13787367.335 8  10747550.31645  23428224.607    23428240.7724
  21148678.599   -11426198.831 9  -8888280.77948  21148677.915    21148689.1564
  23806089.291    -7420581.570 8  -5571263.07246  23806088.887    23806105.7644
  21093384.597    -3358262.282 9  -2606600.38847  21093384.214    21093395.5374
  22546041.484   -10086961.944 8  -7843380.67246  22546041.530    22546054.4304
  19962863.549   -25857523.628 9 -20129394.28548  19962862.997    19962873.2944
  20599331.876   -25390166.725 9 -19167478.84248  20599331.180    20599341.9034
  23013463.941     5508944.102 8   4499845.60346  23013464.100    23013476.3284
 00  1 22 20 53  0.0000000  0  8 19 02 11 27 26 08 07 13
  23446215.295    13881906.581 7  10821217.02145  23446214.933    23446231.2134
  21148904.249   -11425013.300 9  -8887357.01148  21148903.539    21148914.7964
  23809597.181    -7402148.102 8  -5556899.42945  23809596.799    23809613.7104
  21104866.344    -3297925.730 9  -2559584.98147  21104865.955    21104877.2534
  22543416.746   -10100755.157 8  -7854128.62946  22543416.787    22543429.6734
  19957242.344   -25887063.359 9 -20152412.22948  19957241.779    19957252.0264
  20593223.300   -25422267.622 9 -19192492.52548  20593222.599    20593233.3024
  23031655.138     5604538.521 8   4574334.56246  23031655.246    23031667.5224
 00  1 22 20 53 30.0000000  0  8 19 02 11 27 26 08 07 13
  23464248.289    13976670.360 8  10895058.69345  23464248.059    23464264.3654
  21149156.972   -11423684.989 9  -8886321.98948  21149156.274    21149167.5404
  23813201.789    -7383205.869 8  -5542139.33145  23813201.433    23813218.2644
  21116426.042    -3237179.278 9  -2512250.17047  21116425.663    21116436.9874
  22540898.130   -10113990.400 8  -7864441.80446  22540898.191    22540911.1234
  19951711.884   -25916125.850 9 -20175058.30448  19951711.318    19951721.5624
  20587202.861   -25453905.028 9 -19217145.04948  20587202.177    20587212.8624
  23049884.404     5700333.239 8   4648979.58446  23049884.576    23049896.8014
 00  1 22 20 54  0.0000000  0  8 19 02 11 27 26 08 07 13
  23482322.619    14071650.930 8  10969069.29145  23482322.336    23482338.7644
  21149431.581   -11422241.870 9  -8885197.51648  21149430.904    21149442.1794
  23816905.088    -7363745.306 8  -5526975.34545  23816904.779    23816921.4844
  21128062.817    -3176027.490 8  -2464599.51747  21128062.467    21128073.8324
  22538483.253   -10126680.778 8  -7874330.42846  22538483.302    22538496.2414
  19946274.053   -25944701.940 9 -20197325.36848  19946273.492    19946283.7524
  20581266.910   -25485098.591 9 -19241451.72048  20581266.236    20581276.9044
  23068149.549     5796316.641 8   4723771.64146  23068149.782    23068161.9934
 00  1 22 20 54 30.0000000  0  8 19 02 11 27 26 08 07 13
  23500437.808    14166845.286 8  11043246.47845  23500437.505    23500453.8444
  21149726.247   -11420693.776 9  -8883991.24648  21149725.560    21149736.7994
  23820710.133    -7343750.446 8  -5511395.01545  23820709.795    23820726.4434
  21139777.247    -3114468.115 9  -2416631.26347  21139776.897    21139788.2724
  22536169.615   -10138839.249 8  -7883804.57046  22536169.664    22536182.5764
  19940927.109   -25972800.113 9 -20219220.03248  19940926.544    19940936.8004
  20575416.688   -25515841.764 9 -19265407.43848  20575416.026    20575426.6844
  23086447.540     5892472.328 8   4798697.94346  23086447.725    23086460.0174
 00  1 22 20 55  0.0000000  0  8 19 02 11 27 26 08 07 13
  23518593.664    14262253.445 8  11117590.25345  23518593.236    23518609.5854
  21150042.920   -11419029.898 9  -8882694.75548  21150042.220    21150053.4414
  23824619.188    -7323208.206 8  -5495388.16245  23824618.800    23824635.6364
  21151568.448    -3052505.682 9  -2368348.94647  21151568.074    21151579.4424
  22533956.984   -10150466.794 8  -7892865.00446  22533957.066    22533969.9094
  19935668.002   -26000436.545 9 -20240754.89448  19935667.465    19935677.7434
  20569651.697   -25546137.043 9 -19289014.14448  20569651.047    20569661.6784
  23104775.264     5988784.609 8   4873746.25546  23104775.446    23104787.7824
 00  1 22 20 55 30.0000000  0  8 19 02 11 27 26 08 07 13
  23536789.568    14357872.614 8  11192098.44245  23536789.189    23536805.4404
  21150381.229   -11417252.142 9  -8881309.53248  21150380.516    21150391.7834
  23828628.721    -7302138.031 8  -5478969.93445  23828628.324    23828645.2314
  21163441.409    -2990113.200 9  -2319731.52047  21163441.025    21163452.4214
  22531845.023   -10161565.330 8  -7901513.22446  22531845.089    22531857.9214
  19930494.049   -26027625.672 9 -20261941.20548  19930493.487    19930503.7844
  20563974.072   -25575973.556 9 -19312263.36948  20563973.407    20563984.0174
  23123129.459     6085235.650 8   4948902.68646  23123129.610    23123142.0374
 00  1 22 20 56  0.0000000  0  8 19 02 11 27 26 08 07 13
  23555027.615    14453713.016 8  11266779.03645  23555027.323    23555043.4854
  21150742.344   -11415354.505 9  -8879830.89948  21150741.636    21150752.8974
  23832735.879    -7280555.247 8  -5462152.27845  23832735.381    23832752.2984
  21175402.433    -2927257.956 9  -2270753.50647  21175402.064    21175413.4854
  22529835.813   -10172123.648 8  -7909740.48046  22529835.899    22529848.7664
  19925404.253   -26054372.639 9 -20282782.97748  19925403.710    19925414.0024
  20558386.280   -25605337.723 9 -19335144.53448  20558385.606    20558396.2204
  23141511.505     6181833.442 8   5024173.46946  23141511.663    23141524.2274
 00  1 22 20 56 30.0000000  0  8 19 02 11 27 26 08 07 13
  23573306.932    14549769.887 8  11341628.28745  23573306.719    23573322.6744
  21151131.906   -11413307.425 9  -8878235.82148  21151131.187    21151142.4594
  23836937.980    -7258473.429 8  -5444945.77145  23836937.471    23836954.4224
  21187449.758    -2863949.382 8  -2221422.24947  21187449.394    21187460.8474
  22527931.607   -10182130.068 8  -7917537.69046  22527931.708    22527944.5804
  19920395.589   -26080693.441 9 -20303292.67048  19920395.018    19920405.2854
  20552888.390   -25634229.320 9 -19357657.45948  20552887.702    20552898.3064
  23159923.542     6278588.348 8   5099566.68346  23159923.678    23159936.2884
 00  1 22 20 57  0.0000000  0  8 19 02 11 27 26 08 07 13
  23591626.097    14646036.255 8  11416640.78145  23591625.807    23591641.7414
  21151549.105   -11411115.252 9  -8876527.69248  21151548.408    21151559.6694
  23841229.837    -7235919.854 8  -5427371.65545  23841229.390    23841246.4714
  21199584.714    -2800180.005 9  -2171731.93547  21199584.363    21199595.8674
  22526134.338   -10191574.846 8  -7924897.26846  22526134.422    22526147.2564
  19915469.205   -26106581.368 9 -20323465.06248  19915468.638    19915478.8954
  20547480.210   -25662649.534 9 -19379803.07848  20547479.536    20547490.1274
  23178367.080     6375508.520 8   5175088.66346  23178367.180    23178379.8074
 00  1 22 20 57 30.0000000  0  8 19 02 11 27 26 08 07 13
  23609986.139    14742517.554 8  11491820.75845  23609985.757    23610001.7254
  21151991.853   -11408788.954 9  -8874715.04348  21151991.151    21152002.3744
  23845608.491    -7212910.437 8  -5409442.32945  23845608.019    23845625.0174
  21211806.732    -2735953.269 8  -2121685.23547  21211806.362    21211817.9224
  22524444.174   -10200456.723 8  -7931818.20846  22524444.262    22524457.1004
  19910628.483   -26132019.323 9 -20343286.82848  19910627.929    19910638.1694
  20542161.853   -25690597.823 9 -19401580.95748  20542161.168    20542171.7774
  23196844.887     6472608.784 8   5250750.97546  23196844.958    23196857.5784
 00  1 22 20 58  0.0000000  0  8 19 02 11 27 26 08 07 13
  23628387.408    14839215.865 8  11567169.83445  23628387.038    23628402.9844
  21152461.990   -11406318.766 9  -8872790.27548  21152461.286    21152472.4974
  23850076.305    -7189432.420 8  -5391147.88045  23850075.806    23850092.7774
  21224108.317    -2671308.388 8  -2071312.70847  21224107.936    21224119.5194
  22522860.683   -10208778.257 8  -7938302.52746  22522860.748    22522873.5964
  19905874.384   -26157002.376 9 -20362754.13048  19905873.820    19905884.0704
  20536929.447   -25718094.451 9 -19423006.89848  20536928.730    20536939.3694
  23215359.718     6569904.217 8   5326565.37446  23215359.801    23215372.4084
 00  1 22 20 58 30.0000000  0  8 19 02 11 27 26 08 07 13
  23646825.934    14936109.914 8  11642671.42445  23646825.622    23646841.4234
  21152957.735   -11403713.988 9  -8870760.63448  21152957.022    21152968.2384
  23854633.939    -7165482.245 8  -5372485.52345  23854633.440    23854650.4394
  21236484.344    -2606272.424 8  -2020635.44447  21236483.968    21236495.5784
  22521381.997   -10216548.701 8  -7944357.41346  22521382.051    22521394.9274
  19901205.862   -26181535.646 9 -20381870.95948  19901205.292    19901215.5414
  20531782.497   -25745141.685 9 -19444082.65948  20531781.773    20531792.4104
  23233906.788     6667369.171 8   5402511.84046  23233906.961    23233919.5514
 00  1 22 20 59  0.0000000  0  8 19 02 11 27 26 08 07 13
  23665301.532    15033198.349 8  11718324.49245  23665301.183    23665316.9164
  21153476.403   -11400988.673 9  -8868637.06648  21153475.693    21153486.9184
  23859282.722    -7141053.288 8  -5353450.07145  23859282.193    23859299.2324
  21248937.426    -2540831.242 8  -1969642.42347  21248937.077    21248948.6844
  22520006.427   -10223777.248 8  -7949990.04346  22520006.494    22520019.4314
  19896624.992   -26205608.220 9 -20400628.80648  19896624.424    19896634.6894
  20526722.347   -25771732.710 9 -19464802.93248  20526721.656    20526732.3064
  23252483.806     6764991.306 8   5478580.79646  23252483.980    23252496.6154
 00  1 22 20 59 30.0000000  0  8 19 02 11 27 26 08 07 13
  23683817.519    15130499.549 8  11794143.32745  23683817.214    23683832.9534
  21154019.914   -11398132.667 9  -8866411.65548  21154019.207    21154030.4244
  23864027.864    -7116118.223 8  -5334020.27145  23864027.287    23864044.3104
  21261466.797    -2474989.490 8  -1918337.27947  21261466.443    21261478.0104
  22518731.319   -10230477.761 8  -7955211.20746  22518731.357    22518744.3714
  19892131.948   -26229219.212 9 -20419026.98148  19892131.384    19892141.6844
  20521751.852   -25797852.879 9 -19485156.30448  20521751.177    20521761.8234
  23271089.628     6862764.734 8   5554767.64546  23271089.799    23271102.5494
 00  1 22 21  0  0.0000000  0  8 19 02 11 27 26 08 07 13
  23702375.094    15228019.341 8  11870132.49645  23702374.727    23702390.6464
  21154591.867   -11395127.529 9  -8864070.03248  21154591.151    21154602.3264
  23868872.989    -7090657.262 8  -5314180.67245  23868872.463    23868889.4384
  21274074.458    -2408736.065 8  -1866711.34947  21274074.115    21274085.6764
  22517556.162   -10236652.963 8  -7960023.04446  22517556.210    22517569.1934
  19887725.783   -26252373.741 9 -20437069.47148  19887725.234    19887735.5694
  20516873.223   -25823490.211 9 -19505133.44348  20516872.545    20516883.2264
  23289721.238     6960673.645 8   5631060.05346  23289721.441    23289734.2804
 00  1 22 21  0 30.0000000  0  8 19 02 11 27 26 08 07 13
  23720973.521    15325753.580 8  11946288.78245  23720973.152    23720989.1724
  21155189.859   -11391985.017 9  -8861621.36248  21155189.137    21155200.3474
  23873818.589    -7064668.252 8  -5293929.62345  23873818.100    23873835.0684
  21286765.485    -2342044.441 8  -1814743.96247  21286765.139    21286776.7464
  22516482.113   -10242297.140 8  -7964421.09446  22516482.174    22516495.1104
  19883407.168   -26275068.322 9 -20454753.56548  19883406.624    19883416.9374
  20512089.844   -25848626.823 9 -19524720.40848  20512089.156    20512099.8594
  23308376.409     7058705.870 8   5707448.54046  23308376.536    23308389.3984
 00  1 22 21  1  0.0000000  0  8 19 02 11 27 26 08 07 13
  23739617.957    15423729.607 8  12022633.43645  23739617.614    23739633.7004
  21155814.291   -11388703.844 9  -8859064.64748  21155813.585    21155824.8234
  23878866.281    -7038142.838 8  -5273260.60545  23878865.785    23878882.7364
  21299541.122    -2274908.655 8  -1762430.47747  21299540.755    21299552.3954
  22515510.191   -10247404.600 8  -7968400.94246  22515510.247    22515523.1304
  19879179.485   -26297284.834 9 -20472065.13948  19879178.921    19879189.2634
  20507401.743   -25873262.858 9 -19543917.31748  20507401.072    20507411.7774
  23327056.942     7156871.269 8   5783940.79646  23327057.034    23327069.8764
 00  1 22 21  1 30.0000000  0  8 19 02 11 27 26 08 07 13
  23758308.500    15521948.050 8  12099167.01345  23758308.205    23758324.3794
  21156464.048   -11385289.289 9  -8856403.98948  21156463.345    21156474.6164
  23884017.354    -7011074.120 8  -5252168.23645  23884016.859    23884033.8974
  21312398.640    -2207342.345 8  -1709781.51447  21312398.273    21312409.9654
  22514642.343   -10251965.154 8  -7971954.62246  22514642.378    22514655.2854
  19875044.254   -26319015.517 9 -20488998.13948  19875043.703    19875054.0574
  20502805.823   -25897414.749 9 -19562736.96848  20502805.153    20502815.8324
  23345761.149     7255161.331 8   5860530.17846  23345761.245    23345774.0774
 00  1 22 21  2  0.0000000  0  8 19 02 11 27 26 08 07 13
  23777039.339    15620378.277 8  12175865.59545  23777039.078    23777055.3094
  21157138.037   -11381747.547 9  -8853644.22648  21157137.339    21157148.6534
  23889266.767    -6983488.230 8  -5230672.91445  23889266.235    23889283.4764
  21325339.848    -2139336.150 8  -1656789.79547  21325339.485    21325351.2094
  22513880.642   -10255967.470 8  -7975073.31246  22513880.705    22513893.6464
  19870999.427   -26340271.193 9 -20505561.01148  19870998.874    19871009.2234
  20498295.497   -25921116.766 9 -19581206.06948  20498294.826    20498305.4824
  23364486.323     7353561.282 8   5937205.19446  23364486.422    23364499.1694
 00  1 22 21  2 30.0000000  0  8 19 02 11 27 26 08 07 13
  23795807.145    15719002.512 8  12252715.34845  23795806.826    23795823.2504
  21157831.533   -11378103.100 9  -8850804.43048  21157830.838    21157842.2074
  23894610.811    -6955405.229 8  -5208790.23045  23894610.355    23894627.6514
  21338362.689    -2070901.117 8  -1603463.90847  21338362.349    21338374.1014
  22513224.840   -10259413.790 8  -7977758.76546  22513224.919    22513237.8914
  19867045.390   -26361049.723 9 -20521752.08448  19867044.841    19867055.1524
  20493867.620   -25944385.387 9 -19599337.45748  20493866.951    20493877.5814
  23383232.526     7452071.861 8   6013966.40946  23383232.615    23383245.3494
 00  1 22 21  3  0.0000000  0  8 19 02 11 27 26 08 07 13
  23814610.969    15817816.352 7  12329712.85145  23814610.698    23814627.2674
  21158546.355   -11374347.012 9  -8847877.64348  21158545.663    21158557.0524
  23900046.533    -6926840.763 8  -5186532.37345  23900046.083    23900063.4004
  21351466.007    -2002043.325 8  -1549808.59947  21351465.678    21351477.4734
  22512672.372   -10262317.632 8  -7980021.50346  22512672.421    22512685.3474
  19863181.350   -26381355.383 9 -20537574.68748  19863180.806    19863191.1184
  20489519.047   -25967237.254 9 -19617144.10448  20489518.372    20489528.9884
  23402000.430     7550696.814 8   6090816.73046  23402000.492    23402013.3524
 00  1 22 21  3 30.0000000  0  8 19 02 11 27 26 08 07 13
  23833447.016    15916799.352 7  12406842.14245  23833446.718    23833463.4344
  21159283.543   -11370473.148 9  -8844859.08248  21159282.863    21159294.2774
  23905570.834    -6897810.269 8  -5163911.41245  23905570.368    23905587.8054
  21364652.755    -1932747.160 8  -1495811.71347  21364652.409    21364664.2044
  22512221.729   -10264686.105 8  -7981867.07346  22512221.773    22512234.6734
  19859404.918   -26401200.780 9 -20553038.65048  19859404.360    19859414.6594
  20485249.307   -25989674.838 9 -19634627.93648  20485248.637    20485259.2534
  23420789.298     7649431.817 8   6167752.82346  23420789.354    23420802.3654
 00  1 22 21  4  0.0000000  0  8 19 02 11 27 26 08 07 13
  23852314.711    16015949.432 7  12484101.63645  23852314.466    23852331.3794
  21160045.855   -11366467.356 9  -8841737.71848  21160045.165    21160056.6394
  23911181.530    -6868326.433 8  -5140937.17545  23911181.074    23911198.6064
  21377923.040    -1863012.016 8  -1441472.75547  21377922.672    21377934.4834
  22511871.287   -10266528.030 8  -7983302.34646  22511871.336    22511884.1874
  19855714.548   -26420594.122 9 -20568150.35348  19855713.985    19855724.2494
  20481063.786   -26011670.074 9 -19651767.07648  20481063.105    20481073.7234
  23439602.878     7748296.982 8   6244790.31946  23439602.980    23439616.0864
 00  1 22 21  4 30.0000000  0  8 19 02 11 27 26 08 07 13
  23871217.835    16115285.897 7  12561506.36345  23871217.680    23871234.7654
  21160834.933   -11362320.651 9  -8838506.55348  21160834.259    21160845.7344
  23916882.462    -6838368.971 8  -5117593.89545  23916882.007    23916899.5484
  21391272.874    -1792858.627 8  -1386807.89447  21391272.520    21391284.3764
  22511620.690   -10267844.895 8  -7984328.48346  22511620.769    22511633.6174
  19852112.532   -26439523.019 9 -20582900.15648  19852111.969    19852122.2254
  20476966.737   -26033200.074 9 -19668543.70348  20476966.051    20476976.6654
  23458443.748     7847305.435 8   6321939.46846  23458443.847    23458457.1334
 00  1 22 21  5  0.0000000  0  8 19 02 11 27 26 08 07 13
  23890157.458    16214813.770 7  12639060.23745  23890157.308    23890174.6874
  21161653.720   -11358018.078 9  -8835153.92548  21161653.022    21161664.5194
  23922676.035    -6807924.248 8  -5093870.93045  23922675.586    23922693.1284
  21404703.049    -1722283.181 8  -1331814.15747  21404702.682    21404714.5594
  22511470.354   -10268634.948 8  -7984944.12746  22511470.424    22511483.2704
  19848598.549   -26457989.115 9 -20597289.33448  19848598.002    19848608.2524
  20472958.842   -26054261.720 9 -19684955.37748  20472958.156    20472968.7644
  23477310.459     7946450.036 8   6399194.70545  23477310.616    23477324.0494
 00  1 22 21  5 30.0000000  0  8 19 02 11 27 26 08 07 13
  23909133.279    16314531.628 7  12716762.14545  23909133.051    23909150.7114
  21162500.328   -11353569.227 9  -8831687.31948  21162499.626    21162511.0994
  23928564.401    -6776981.800 8  -5069760.13545  23928563.890    23928581.4224
  21418210.605    -1651301.064 8  -1276503.53147  21418210.241    21418222.1004
  22511421.753   -10268890.521 8  -7985143.28246  22511421.797    22511434.7314
  19845172.880   -26475991.194 9 -20611316.94248  19845172.343    19845182.5844
  20469041.571   -26074847.223 9 -19700996.03448  20469040.878    20469051.4664
  23496201.468     8045721.871 8   6476549.07345  23496201.567    23496215.0684
 00  1 22 21  6  0.0000000  0  8 19 02 11 27 26 08 07 13
  23928145.062    16414437.854 7  12794610.84245  23928144.860    23928162.6464
  21163375.195   -11348971.730 9  -8828104.88648  21163374.521    21163385.9854
  23934548.521    -6745536.194 8  -5045257.26145  23934548.096    23934565.5284
  21431789.742    -1579942.751 8  -1220899.77247  21431789.371    21431801.2634
  22511476.113   -10268604.630 8  -7984920.51746  22511476.169    22511489.1474
  19841835.892   -26493527.145 9 -20624981.33648  19841835.333    19841845.5924
  20465213.839   -26094962.356 9 -19716670.17148  20465213.128    20465223.6974
  23515115.037     8145112.006 8   6553995.63245  23515115.064    23515128.6944
